[[{"header":{"parameterUnit":"m.s-1","parameterCategory":1,"la1":30.6,"la2":29.2853,"lo1":-89.7004,"lo2":-87.6739,"dy":0.0162,"dx":0.0183,"nx":112,"ny":82,"refTime":"2024-04-13T06:00:00:Z","depth":0,"parameterNumber":2,"parameterNumberName":"U-component_of_WINDS"},"data":[0.0,0.0,0.0,0.0,0.0,0.0,0.0,0.0,0.0,0.0,0.0,0.0,0.0,0.0,0.0,0.0,0.0,0.0,0.0,0.0,0.0,0.0,0.0,0.0,0.0,0.0,0.0,0.0,0.0,0.0,0.0,0.0,0.0,0.0,0.0,0.0,0.0,0.0,0.0,0.0,0.0,0.0,0.0,0.0,0.0,0.0,0.0,0.0,0.0,0.0,0.0,0.0,0.0,0.0,0.0,0.0,0.0,0.0,0.0,0.0,0.0,0.0,0.0,0.0,0.0,0.0,0.0,0.0,0.0,0.0,0.0,0.0,0.0,0.0,0.0,0.0,0.0,0.0,0.0,0.0,0.0,0.0,0.0,0.0,0.0,0.0,0.0,0.0,0.0,0.0,-5.1641,-5.2773,-5.5925,-5.7638,-5.6883,-5.6463,-5.4543,-5.0558,0.0,0.0,0.0,0.0,0.0,0.0,0.0,0.0,0.0,0.0,0.0,0.0,0.0,0.0,0.0,0.0,0.0,0.0,0.0,0.0,0.0,0.0,0.0,0.0,0.0,0.0,0.0,0.0,0.0,0.0,0.0,0.0,0.0,0.0,0.0,0.0,0.0,0.0,0.0,0.0,0.0,0.0,0.0,0.0,0.0,0.0,0.0,0.0,0.0,0.0,0.0,0.0,0.0,0.0,0.0,0.0,0.0,0.0,0.0,0.0,0.0,0.0,0.0,0.0,0.0,0.0,0.0,0.0,0.0,0.0,0.0,0.0,0.0,0.0,0.0,0.0,0.0,0.0,0.0,0.0,0.0,0.0,0.0,0.0,0.0,0.0,0.0,0.0,0.0,0.0,0.0,0.0,0.0,0.0,0.0,0.0,0.0,0.0,0.0,0.0,0.0,0.0,0.0,0.0,-5.1269,-5.3555,-5.425,-5.4445,-5.4198,-5.3351,-5.1595,-4.8673,0.0,0.0,0.0,0.0,0.0,0.0,0.0,0.0,0.0,0.0,0.0,0.0,0.0,0.0,0.0,0.0,0.0,0.0,0.0,0.0,0.0,0.0,0.0,0.0,0.0,0.0,0.0,0.0,0.0,0.0,0.0,0.0,0.0,0.0,0.0,0.0,0.0,0.0,0.0,0.0,0.0,0.0,0.0,0.0,0.0,0.0,0.0,0.0,0.0,0.0,0.0,0.0,0.0,0.0,0.0,0.0,0.0,0.0,0.0,0.0,0.0,0.0,0.0,0.0,0.0,0.0,0.0,0.0,0.0,0.0,0.0,0.0,0.0,0.0,0.0,0.0,0.0,0.0,0.0,0.0,0.0,0.0,0.0,0.0,0.0,0.0,0.0,0.0,0.0,0.0,0.0,0.0,0.0,0.0,0.0,0.0,0.0,0.0,0.0,0.0,0.0,0.0,0.0,-4.9297,-5.0293,-5.2363,-5.2479,-5.2369,-5.231,-5.1346,-5.0024,-4.8326,-4.7214,0.0,0.0,0.0,0.0,0.0,0.0,0.0,0.0,0.0,0.0,0.0,0.0,0.0,0.0,0.0,0.0,0.0,0.0,0.0,0.0,0.0,0.0,0.0,0.0,0.0,0.0,0.0,0.0,0.0,0.0,0.0,0.0,0.0,0.0,0.0,0.0,0.0,0.0,0.0,0.0,0.0,0.0,0.0,0.0,0.0,0.0,0.0,0.0,0.0,0.0,0.0,0.0,0.0,0.0,0.0,0.0,0.0,0.0,0.0,0.0,0.0,0.0,0.0,0.0,0.0,0.0,0.0,0.0,0.0,0.0,0.0,0.0,0.0,0.0,0.0,0.0,0.0,0.0,0.0,0.0,0.0,0.0,0.0,0.0,0.0,0.0,0.0,0.0,0.0,0.0,0.0,0.0,0.0,0.0,0.0,0.0,0.0,0.0,0.0,0.0,0.0,0.0,-4.918,-4.9473,-5.0957,-5.0846,-5.0642,-5.0608,-4.9669,-4.8593,-4.7474,-4.5287,0.0,0.0,0.0,0.0,0.0,0.0,0.0,0.0,0.0,0.0,0.0,0.0,0.0,0.0,0.0,0.0,0.0,0.0,0.0,0.0,0.0,0.0,0.0,0.0,0.0,0.0,0.0,0.0,0.0,0.0,0.0,0.0,0.0,0.0,0.0,0.0,0.0,0.0,0.0,0.0,0.0,0.0,0.0,0.0,0.0,0.0,0.0,0.0,0.0,0.0,0.0,0.0,0.0,0.0,0.0,0.0,0.0,0.0,0.0,0.0,0.0,0.0,0.0,0.0,0.0,0.0,0.0,0.0,0.0,0.0,0.0,0.0,0.0,0.0,0.0,0.0,0.0,0.0,0.0,0.0,0.0,0.0,0.0,0.0,0.0,0.0,0.0,0.0,0.0,0.0,0.0,0.0,0.0,0.0,0.0,0.0,0.0,0.0,0.0,0.0,0.0,0.0,-4.8437,-4.9258,-5.0195,-4.9551,-4.9018,-4.8881,-4.8064,-4.6765,-4.4892,-4.3821,0.0,0.0,0.0,0.0,0.0,0.0,0.0,0.0,0.0,0.0,0.0,0.0,0.0,0.0,0.0,0.0,0.0,0.0,0.0,0.0,0.0,0.0,0.0,0.0,0.0,0.0,0.0,0.0,0.0,0.0,0.0,0.0,0.0,0.0,0.0,0.0,0.0,0.0,0.0,0.0,0.0,0.0,0.0,0.0,0.0,0.0,0.0,0.0,0.0,0.0,0.0,0.0,0.0,0.0,0.0,0.0,0.0,0.0,0.0,0.0,0.0,0.0,0.0,0.0,0.0,0.0,0.0,0.0,0.0,0.0,0.0,0.0,0.0,0.0,0.0,0.0,0.0,0.0,0.0,0.0,0.0,0.0,0.0,0.0,0.0,0.0,0.0,0.0,0.0,0.0,0.0,0.0,0.0,0.0,0.0,0.0,0.0,0.0,0.0,0.0,0.0,0.0,-4.6738,-4.7617,-4.8496,-4.7793,-4.7265,-4.7201,-4.6829,-4.603,-4.4701,0.0,0.0,0.0,0.0,0.0,0.0,0.0,0.0,0.0,0.0,0.0,0.0,0.0,0.0,0.0,0.0,0.0,0.0,0.0,0.0,0.0,0.0,0.0,0.0,0.0,0.0,0.0,0.0,0.0,0.0,0.0,0.0,0.0,0.0,0.0,0.0,0.0,0.0,0.0,0.0,0.0,0.0,0.0,0.0,0.0,0.0,0.0,0.0,0.0,0.0,0.0,0.0,0.0,0.0,0.0,0.0,0.0,0.0,0.0,0.0,0.0,0.0,0.0,0.0,0.0,0.0,0.0,0.0,0.0,0.0,0.0,0.0,0.0,0.0,0.0,0.0,0.0,0.0,0.0,0.0,0.0,0.0,0.0,0.0,0.0,0.0,0.0,0.0,0.0,0.0,0.0,0.0,0.0,0.0,0.0,0.0,0.0,0.0,0.0,0.0,0.0,0.0,-4.4512,-4.5586,-4.6523,-4.7129,-4.666,-4.6308,-4.6308,-4.5969,-4.5352,-4.4403,0.0,0.0,0.0,0.0,0.0,0.0,0.0,0.0,0.0,0.0,0.0,0.0,0.0,0.0,0.0,0.0,0.0,0.0,0.0,0.0,0.0,0.0,0.0,0.0,0.0,0.0,0.0,0.0,0.0,0.0,0.0,0.0,0.0,0.0,0.0,0.0,0.0,0.0,0.0,0.0,0.0,0.0,0.0,0.0,0.0,0.0,0.0,0.0,0.0,0.0,0.0,0.0,0.0,0.0,0.0,0.0,0.0,0.0,0.0,0.0,0.0,0.0,0.0,0.0,0.0,0.0,0.0,0.0,0.0,0.0,0.0,0.0,0.0,0.0,0.0,0.0,0.0,0.0,0.0,0.0,0.0,0.0,0.0,0.0,0.0,0.0,0.0,0.0,0.0,0.0,0.0,0.0,0.0,0.0,0.0,0.0,0.0,0.0,0.0,0.0,0.0,0.0,-4.3691,-4.5215,-4.6308,-4.6308,-4.6308,-4.6308,-4.6308,-4.5508,-4.4606,0.0,0.0,0.0,0.0,0.0,0.0,0.0,0.0,0.0,0.0,0.0,0.0,0.0,0.0,0.0,0.0,0.0,0.0,0.0,0.0,0.0,0.0,0.0,0.0,0.0,0.0,0.0,0.0,0.0,0.0,0.0,0.0,0.0,0.0,0.0,0.0,0.0,0.0,0.0,0.0,0.0,0.0,0.0,0.0,0.0,0.0,0.0,0.0,0.0,0.0,0.0,0.0,0.0,0.0,0.0,0.0,0.0,0.0,0.0,0.0,0.0,0.0,0.0,0.0,0.0,0.0,0.0,0.0,0.0,0.0,0.0,0.0,0.0,0.0,0.0,0.0,0.0,0.0,0.0,0.0,0.0,0.0,0.0,0.0,0.0,0.0,0.0,0.0,0.0,0.0,0.0,0.0,0.0,0.0,0.0,0.0,0.0,0.0,0.0,0.0,0.0,0.0,0.0,-4.3691,-4.5215,-4.6308,-4.6308,-4.6308,-4.6308,-4.6308,-4.5508,-4.4606,-4.3658,0.0,0.0,0.0,0.0,0.0,0.0,0.0,0.0,0.0,0.0,0.0,0.0,0.0,0.0,0.0,0.0,0.0,0.0,0.0,0.0,0.0,0.0,0.0,0.0,0.0,0.0,0.0,0.0,0.0,0.0,0.0,0.0,0.0,0.0,0.0,0.0,0.0,0.0,0.0,0.0,0.0,0.0,0.0,0.0,0.0,0.0,0.0,0.0,0.0,0.0,0.0,0.0,0.0,0.0,0.0,0.0,0.0,0.0,0.0,0.0,0.0,0.0,0.0,0.0,0.0,0.0,0.0,0.0,0.0,0.0,0.0,0.0,0.0,0.0,0.0,0.0,0.0,0.0,0.0,0.0,0.0,0.0,0.0,0.0,0.0,0.0,0.0,0.0,0.0,0.0,0.0,0.0,0.0,0.0,0.0,0.0,0.0,0.0,0.0,0.0,0.0,0.0,-4.3691,-4.5215,-4.6308,-4.6308,-4.6308,-4.6308,-4.6308,-4.582,-4.4823,-4.321,0.0,0.0,0.0,0.0,0.0,0.0,0.0,0.0,0.0,0.0,0.0,0.0,0.0,0.0,0.0,0.0,0.0,0.0,0.0,0.0,0.0,0.0,0.0,0.0,0.0,0.0,0.0,0.0,0.0,0.0,0.0,0.0,0.0,0.0,0.0,0.0,0.0,0.0,0.0,0.0,0.0,0.0,0.0,0.0,0.0,0.0,0.0,0.0,0.0,0.0,0.0,0.0,0.0,0.0,0.0,0.0,0.0,0.0,0.0,0.0,0.0,0.0,0.0,0.0,0.0,0.0,0.0,0.0,0.0,0.0,0.0,0.0,0.0,0.0,0.0,0.0,0.0,0.0,0.0,0.0,0.0,0.0,0.0,0.0,0.0,0.0,0.0,0.0,0.0,0.0,0.0,0.0,0.0,0.0,0.0,0.0,0.0,0.0,0.0,0.0,0.0,0.0,-4.3691,-4.5215,-4.6308,-4.6308,-4.6308,-4.6308,-4.6308,-4.623,-4.5137,-4.2676,0.0,0.0,0.0,0.0,0.0,0.0,0.0,0.0,0.0,0.0,0.0,0.0,0.0,0.0,0.0,0.0,0.0,0.0,0.0,0.0,0.0,0.0,0.0,0.0,0.0,0.0,0.0,0.0,0.0,0.0,0.0,0.0,0.0,0.0,0.0,0.0,0.0,0.0,0.0,0.0,0.0,0.0,0.0,0.0,0.0,0.0,0.0,0.0,0.0,0.0,0.0,0.0,0.0,0.0,0.0,0.0,0.0,0.0,0.0,0.0,-5.1731,-5.0793,0.0,0.0,0.0,0.0,0.0,0.0,0.0,0.0,0.0,0.0,0.0,0.0,0.0,0.0,0.0,0.0,0.0,0.0,0.0,0.0,0.0,0.0,0.0,0.0,0.0,0.0,0.0,0.0,0.0,0.0,0.0,0.0,0.0,0.0,0.0,0.0,0.0,0.0,0.0,0.0,-4.3691,-4.5215,-4.6308,-4.6308,-4.6308,-4.6308,-4.6308,-4.5664,-4.4746,-4.3496,-4.1543,0.0,0.0,0.0,0.0,0.0,0.0,0.0,0.0,0.0,0.0,0.0,0.0,0.0,0.0,0.0,0.0,0.0,0.0,0.0,0.0,0.0,0.0,0.0,0.0,0.0,0.0,0.0,0.0,0.0,0.0,0.0,0.0,0.0,0.0,0.0,0.0,0.0,0.0,0.0,0.0,0.0,0.0,0.0,0.0,0.0,0.0,0.0,0.0,0.0,0.0,0.0,0.0,0.0,0.0,0.0,0.0,0.0,0.0,0.0,-5.2341,-5.175,0.0,0.0,0.0,0.0,0.0,0.0,0.0,0.0,0.0,0.0,0.0,0.0,0.0,0.0,0.0,0.0,0.0,0.0,0.0,0.0,0.0,0.0,0.0,0.0,0.0,0.0,0.0,0.0,0.0,0.0,0.0,0.0,0.0,0.0,0.0,0.0,0.0,0.0,0.0,0.0,-4.3691,-4.5215,-4.6308,-4.6308,-4.6308,-4.6308,-4.6308,-4.5879,-4.5078,-4.3789,-4.2051,0.0,0.0,0.0,0.0,0.0,0.0,0.0,0.0,0.0,0.0,0.0,0.0,0.0,0.0,0.0,0.0,0.0,0.0,0.0,0.0,0.0,0.0,0.0,0.0,0.0,0.0,0.0,0.0,0.0,0.0,0.0,0.0,0.0,0.0,0.0,0.0,0.0,0.0,0.0,0.0,0.0,0.0,0.0,0.0,0.0,0.0,0.0,0.0,0.0,0.0,0.0,0.0,0.0,-5.4511,-5.4472,-5.3664,-5.4376,-5.3914,-5.2616,-5.344,-5.3154,-5.2058,-5.1352,0.0,0.0,0.0,0.0,0.0,0.0,0.0,0.0,0.0,0.0,0.0,0.0,0.0,0.0,0.0,0.0,0.0,0.0,0.0,0.0,0.0,0.0,-4.674,-4.6016,-4.6394,-4.6561,-4.5267,0.0,0.0,0.0,0.0,0.0,0.0,0.0,0.0,0.0,0.0,0.0,-4.3672,-4.5057,-4.607,-4.6249,-4.6247,-4.6225,-4.6225,-4.6225,-4.5561,-4.3978,-4.3061,-4.1557,0.0,0.0,0.0,0.0,0.0,0.0,0.0,0.0,0.0,0.0,0.0,0.0,0.0,0.0,0.0,0.0,0.0,0.0,0.0,0.0,0.0,0.0,0.0,0.0,0.0,0.0,0.0,0.0,0.0,0.0,0.0,0.0,-5.4,-5.446,0.0,0.0,0.0,0.0,0.0,0.0,0.0,0.0,0.0,0.0,0.0,0.0,0.0,-5.4203,-5.4337,-5.5761,-5.6118,-5.5376,-5.6252,-5.6214,-5.5376,-5.5491,-5.5415,-5.5203,-5.5341,0.0,-5.2051,-5.1247,0.0,0.0,0.0,0.0,0.0,0.0,0.0,0.0,0.0,0.0,0.0,0.0,0.0,0.0,0.0,0.0,0.0,0.0,0.0,0.0,0.0,0.0,-4.5775,-4.5679,-4.5737,-4.5773,-4.5693,-4.521,-4.4553,-4.3763,-4.3619,-4.3591,0.0,0.0,0.0,0.0,0.0,0.0,-4.3593,-4.4411,-4.5219,-4.6037,-4.603,-4.5944,-4.5944,-4.5944,-4.555,-4.4631,-4.3748,-4.2774,-4.1684,-3.9563,0.0,0.0,0.0,0.0,0.0,0.0,0.0,0.0,0.0,0.0,0.0,0.0,0.0,0.0,0.0,0.0,0.0,0.0,0.0,0.0,0.0,0.0,0.0,0.0,0.0,0.0,0.0,0.0,0.0,-5.2306,-5.3895,-5.3623,-5.3871,-5.3442,0.0,0.0,0.0,0.0,0.0,0.0,0.0,0.0,0.0,-5.3791,-5.4435,-5.5025,-5.5503,-5.6979,-5.728,-5.6445,-5.73,-5.7011,-5.5722,-5.6214,-5.6145,-5.5703,-5.5703,-5.5092,-5.3985,-5.221,-5.1007,-5.0136,0.0,0.0,0.0,0.0,-4.6907,-4.6602,-4.7636,-4.7666,-4.7315,-4.7782,0.0,0.0,0.0,0.0,0.0,0.0,0.0,-4.5594,-4.5594,-4.5951,-4.6336,-4.6336,-4.6682,-4.6901,-4.6502,-4.6128,-4.5686,-4.5017,-4.489,-4.4592,-4.3692,-4.2817,0.0,0.0,0.0,-4.234,-4.2741,-4.3471,-4.4121,-4.453,-4.4962,-4.5222,-4.5222,-4.5222,-4.5261,-4.5369,-4.3677,-4.2509,-4.2116,-4.0594,-3.9253,0.0,0.0,0.0,0.0,0.0,0.0,0.0,0.0,0.0,0.0,0.0,0.0,0.0,0.0,0.0,0.0,0.0,0.0,0.0,0.0,0.0,0.0,0.0,0.0,0.0,0.0,0.0,0.0,-5.3296,-5.4442,-5.3293,-5.4667,-5.4649,0.0,0.0,0.0,0.0,0.0,0.0,-5.4595,-5.407,-5.4126,-5.4952,-5.5492,-5.6107,-5.6749,-5.7963,-5.8329,-5.78,-5.8019,-5.7509,-5.6376,-5.6579,-5.631,-5.5684,-5.5472,-5.5395,-5.5203,-5.2876,-5.1548,-5.0818,-4.8974,-4.7822,-4.7296,-4.7998,-4.7802,-4.7382,-4.8516,-4.8473,-4.7961,-4.8056,-4.765,-4.6951,-4.6091,0.0,0.0,0.0,0.0,-4.5594,-4.5594,-4.6086,-4.6567,-4.6567,-4.7028,-4.7298,-4.6701,-4.6567,-4.6428,-4.5961,-4.5872,-4.5473,-4.426,-4.3151,0.0,-4.1556,-4.1617,-4.1827,-4.207,-4.263,-4.3073,-4.332,-4.3909,-4.4369,-4.4582,-4.4602,-4.4951,-4.5761,-4.4033,-4.2805,-4.2368,-4.1548,-4.0086,-3.7983,0.0,0.0,0.0,0.0,0.0,0.0,0.0,0.0,0.0,0.0,0.0,0.0,0.0,0.0,0.0,0.0,0.0,0.0,0.0,0.0,0.0,0.0,0.0,0.0,0.0,0.0,0.0,0.0,0.0,-5.5192,-5.7647,0.0,0.0,0.0,0.0,-5.4183,-5.422,-5.4632,-5.5477,-5.5496,-5.5854,-5.6738,-5.7542,-5.7974,-5.8012,-5.8912,-5.9541,-5.9922,-5.8382,-5.7813,-5.8107,-5.6492,-5.5742,-5.5665,-5.4895,-5.4549,-5.4414,-5.2635,-5.1885,-5.1577,-4.9096,-4.8076,-4.8048,-4.8095,-4.8076,-4.7932,-4.7268,-4.7008,-4.6969,-4.6978,-4.6949,-4.6756,-4.5879,-4.562,0.0,0.0,-4.5594,-4.5594,-4.5594,-4.5633,-4.5671,-4.5671,-4.571,-4.571,-4.5671,-4.5671,-4.5682,-4.5796,-4.5816,-4.5807,-4.5784,0.0,-4.3311,-4.3272,-4.1829,-4.1094,-4.198,-4.1976,-4.2213,-4.3111,-4.3183,-4.3484,-4.4254,-4.4311,-4.4677,-4.5571,-4.5494,-4.4716,-4.3118,-4.2265,-4.1427,-4.0535,-3.8242,0.0,0.0,0.0,0.0,0.0,0.0,0.0,0.0,0.0,0.0,0.0,0.0,0.0,0.0,0.0,0.0,0.0,0.0,0.0,0.0,0.0,0.0,0.0,0.0,0.0,0.0,0.0,0.0,-5.7165,-5.9341,0.0,-5.7033,-5.6255,-5.5919,-5.5919,-5.6401,-5.6827,-5.7126,-5.7145,-5.7293,-5.7589,-5.8178,-5.8483,-5.8483,-5.8589,-5.8417,-5.8015,-5.6913,-5.6326,-5.6218,-5.5606,-5.5466,-5.5665,-5.4857,-5.4491,-5.4357,-5.2615,-5.1904,-5.175,-5.0337,-4.9433,-4.899,-4.9567,-4.9413,-4.8894,-4.8606,-4.8144,-4.749,-4.6413,-4.6067,-4.6009,-4.5691,-4.5594,-4.5594,-4.5594,-4.5594,-4.5594,-4.5594,-4.5594,-4.5594,-4.5594,-4.5594,-4.5594,-4.5594,-4.5594,-4.562,-4.5657,-4.5673,-4.5503,-4.4959,-4.3942,-4.3007,-4.2453,-4.1337,-4.0679,-4.1023,-4.101,-4.1078,-4.1429,-4.194,-4.2604,-4.3451,-4.3008,-4.3278,-4.4682,-4.3228,-4.2297,-4.2258,-4.1455,-4.0354,-3.8992,-3.864,-3.7821,0.0,0.0,0.0,0.0,0.0,0.0,0.0,0.0,0.0,0.0,0.0,0.0,0.0,0.0,0.0,0.0,0.0,0.0,0.0,0.0,0.0,0.0,0.0,0.0,0.0,-5.7354,-5.9703,-5.7813,-6.0456,-6.1263,-5.829,-5.8015,-5.8015,-5.8015,-5.8272,-5.84,-5.84,-5.8143,-5.7997,-5.7997,-5.8286,-5.8463,-5.8463,-5.7954,-5.7529,-5.7092,-5.5982,-5.5406,-5.529,-5.5023,-5.4949,-5.5021,-5.4204,-5.3761,-5.351,-5.2087,-5.151,-5.1433,-5.0914,-5.0346,-4.9913,-5.05,-5.0144,-4.9317,-4.8759,-4.799,-4.7067,-4.596,-4.5594,-4.5594,-4.5594,-4.5594,-4.5594,-4.5594,-4.5594,-4.5594,-4.5594,-4.5594,-4.5594,-4.5594,-4.5383,-4.5248,-4.5537,-4.5364,-4.5171,-4.5171,-4.5171,-4.4979,-4.4393,-4.3393,-4.247,-4.1885,-4.1066,-4.0496,-4.0496,-4.0496,-4.0496,-4.0496,-4.1008,-4.172,-4.2585,-4.2412,-4.272,-4.3816,-4.2316,-4.1489,-4.1788,-4.095,-3.9977,-3.8873,-3.8773,-3.7629,-3.5369,0.0,0.0,0.0,0.0,0.0,0.0,0.0,0.0,0.0,0.0,0.0,0.0,0.0,0.0,0.0,0.0,0.0,0.0,0.0,0.0,0.0,0.0,0.0,-5.5666,-5.8455,-5.963,-5.7299,-6.1208,-6.253,-5.8565,-5.9575,-6.0456,-6.0438,-5.9722,-5.9239,-5.9184,-5.8492,-5.8052,-5.7997,-5.8015,-5.8033,-5.7997,-5.7189,-5.6999,-5.7408,-5.5731,-5.5191,-5.5613,-5.4827,-5.4231,-5.3746,-5.2946,-5.2329,-5.1817,-5.1029,-5.0712,-5.0712,-5.0712,-5.0673,-5.0654,-5.0654,-5.0087,-4.9086,-4.7471,-4.6336,-4.5594,-4.5594,-4.5594,-4.5594,-4.5594,-4.5594,-4.5594,-4.5594,-4.5594,-4.5594,-4.5594,-4.5594,-4.5594,-4.5594,-4.496,-4.4566,-4.5383,-4.4893,-4.4297,-4.4259,-4.4239,-4.422,-4.4259,-4.2893,-4.1788,-4.175,-4.1027,0.0,-4.0458,-4.0458,-4.0477,-4.0496,-4.0516,-4.0873,-4.1731,-4.2566,-4.3047,-4.3019,-4.2981,-4.2588,-4.1734,-4.0877,-4.0442,-4.0442,-3.8518,-3.6715,-3.5126,0.0,0.0,0.0,0.0,0.0,0.0,0.0,0.0,0.0,0.0,0.0,0.0,0.0,0.0,0.0,0.0,0.0,0.0,0.0,0.0,0.0,-5.5133,-5.6675,-5.7262,-6.0107,-6.2144,-6.2089,-6.3264,-6.3649,-6.2511,-6.2254,-6.1906,-6.13,-6.1062,-6.0438,-5.9258,-5.9557,-5.9208,-5.8033,-5.8584,-5.8602,-5.7997,-5.662,-5.5992,-5.611,-5.4467,-5.3918,-5.4313,-5.4089,-5.375,-5.3327,-5.2821,-5.217,-5.1431,-5.092,-5.0712,-5.0712,-5.0712,-5.0308,-4.976,-4.976,-4.8836,-4.7528,-4.7058,-4.6336,-4.5594,-4.5594,-4.5594,-4.5594,-4.5594,-4.5594,-4.5594,-4.5594,-4.5594,-4.5594,-4.5594,-4.5594,-4.5594,-4.5594,-4.5421,-4.5152,-4.4739,-4.447,-4.4124,-4.3547,-4.2912,-4.2701,-4.3316,-4.2527,-4.1585,-4.095,-4.0169,-3.9631,-3.9631,-3.9631,-3.9842,-4.0439,-4.1066,-4.1546,-4.1769,-4.2019,-4.1788,-4.0977,-4.0375,-3.9833,-3.9342,-3.9104,-3.8971,-3.8971,-3.6699,-3.5561,0.0,0.0,0.0,0.0,0.0,0.0,0.0,0.0,0.0,0.0,0.0,0.0,0.0,0.0,0.0,0.0,0.0,0.0,0.0,0.0,0.0,0.0,-5.7261,-5.8951,-6.0805,-6.2071,-6.3007,-6.3503,-6.387,-6.3961,-6.3594,-6.3099,-6.2622,-6.2144,-6.1796,-6.119,-6.0272,-6.0015,-5.9483,-5.8529,-5.8639,-5.8474,-5.7997,-5.64,-5.5614,-5.5596,-5.3977,-5.3336,-5.3564,-5.3564,-5.3126,-5.24,-5.2152,-5.149,-5.0544,-5.0474,-5.0347,-5.0237,0.0,0.0,0.0,0.0,-4.774,-4.6846,-4.649,-4.6009,-4.5594,-4.5594,-4.5504,-4.54,-4.54,-4.54,-4.5352,-4.5222,-4.5273,-4.5352,-4.5222,-4.5171,-4.5222,-4.5352,-4.4825,-4.4269,-4.4163,-4.3679,-4.3079,-4.2466,-4.2038,0.0,-4.1852,-4.1528,-4.1085,-4.0573,-3.9823,-3.9304,-3.9304,-3.9304,-3.9438,-3.9744,-4.056,-4.1023,-4.0883,-4.1199,0.0,0.0,0.0,-3.8426,-3.7885,-3.7878,0.0,0.0,0.0,-3.5082,-3.5195,-3.5082,0.0,0.0,-3.7624,-3.8457,0.0,0.0,0.0,0.0,0.0,0.0,0.0,0.0,0.0,0.0,0.0,0.0,0.0,0.0,0.0,0.0,-5.9572,-6.1715,-6.4725,-6.3954,-6.3074,-6.3074,-6.3686,-6.3759,-6.2872,-6.278,-6.278,-6.278,-6.2144,-6.1686,-6.1594,-6.0346,0.0,0.0,0.0,-5.818,-5.7997,-5.64,-5.5614,-5.5596,-5.3977,-5.3185,-5.3185,-5.3185,-5.2476,-5.1248,-5.1283,-5.059,-4.946,-4.9872,-4.9813,-4.9575,-5.0221,-4.9933,-4.8933,-4.7451,-4.6827,-4.6644,-4.5883,0.0,0.0,-4.5531,-4.5322,-4.5052,-4.5052,-4.5052,-4.4977,-4.4682,-4.4806,-4.4985,-4.4688,-4.4593,-4.4651,-4.4851,-4.3727,-4.2775,-4.3408,-4.2585,-4.1585,-4.1197,-4.1274,-4.1106,-4.0081,-4.0142,-4.0265,-4.0145,-3.9426,-3.8935,-3.8958,-3.8942,-3.8901,-3.8804,-3.9557,0.0,-3.949,-4.0264,-3.9981,-3.8181,-3.8034,-3.7672,-3.6908,-3.7016,-3.6911,-3.6509,-3.5808,-3.5014,-3.4159,-3.4921,-3.5119,-3.477,-3.6338,-3.78,0.0,0.0,0.0,0.0,0.0,0.0,0.0,0.0,0.0,0.0,0.0,0.0,0.0,0.0,0.0,-5.8601,-6.0811,-6.2722,-6.4141,-6.4622,-6.4824,-6.4824,-6.4383,-6.3759,-6.2872,-6.278,-6.278,-6.278,-6.2677,-6.2291,-6.163,-6.1924,-6.1202,-5.9258,-5.9685,-5.9318,-5.7997,-5.64,-5.5614,-5.5596,-5.3977,0.0,-5.3185,-5.3185,-5.2348,-5.0906,-5.1176,-5.044,-4.9043,-4.9445,-4.9561,-4.949,-4.9238,-4.8445,-4.7336,-4.7019,-4.6451,-4.5825,-4.5671,-4.5419,-4.5201,-4.5201,-4.4966,-4.4714,-4.4714,-4.4714,0.0,-4.4606,-4.4663,-4.467,-4.4624,-4.4593,-4.4436,-4.3793,-4.339,-4.2841,-4.1711,-4.1264,-4.084,-4.0091,-3.9462,-3.8982,-3.8766,-3.9004,-3.8879,-3.7896,-3.7069,-3.6635,-3.6863,-3.6682,-3.7128,-3.8642,-3.9387,-3.9474,-3.8697,-3.9437,-3.8818,-3.6232,-3.5812,-3.5573,-3.5407,-3.6085,-3.6113,-3.5335,-3.517,-3.4691,-3.3876,-3.4042,-3.4413,-3.4969,-3.6186,-3.6602,0.0,0.0,0.0,0.0,0.0,0.0,0.0,0.0,0.0,0.0,0.0,-5.1139,-5.3373,0.0,-5.8258,-6.1019,-6.2498,-6.3765,-6.5076,-6.5613,-6.5448,-6.4218,-6.4071,-6.3759,-6.2872,-6.278,-6.278,-6.278,-6.278,-6.2456,-6.163,-6.1594,-6.0854,-5.9239,-5.9208,-5.8621,-5.7409,-5.6198,-5.539,-5.4968,-5.3794,-5.3185,-5.3185,-5.3185,-5.2325,-5.0822,-5.0967,-5.012,-4.8622,-4.8813,-4.888,-4.881,-4.8395,-4.7827,-4.7103,-4.629,-4.5831,-4.5577,-4.541,-4.5232,-4.5074,-4.4908,-4.4606,-4.429,-4.429,-4.429,-4.4261,-4.4095,-4.4165,-4.4266,-4.4095,-4.3752,-4.3368,-4.3113,-4.2409,-4.1584,-4.0822,-4.0119,-3.9463,-3.8863,-3.8237,-3.7739,-3.758,-3.7337,-3.7192,-3.7152,-3.6443,-3.5936,-3.6084,-3.5976,-3.6224,-3.7052,-3.7769,-3.7965,-3.7405,-3.7349,-3.6763,-3.5332,-3.4723,-3.4582,-3.4986,-3.5037,-3.5037,-3.5004,-3.4601,-3.4197,-3.3807,-3.3807,-3.4009,-3.4412,-3.4982,-3.5486,0.0,0.0,0.0,0.0,0.0,0.0,0.0,-4.6735,-4.6921,-4.9898,-5.1099,-5.2807,-5.6714,-5.8201,-5.9909,-6.3181,-6.3899,-6.4572,-6.5947,-6.6359,-6.5693,-6.3551,-6.3906,-6.3998,-6.3154,-6.2915,-6.278,-6.278,-6.278,-6.253,-6.1869,-6.1062,-6.0272,-5.9459,-5.8657,-5.785,-5.7042,-5.6069,-5.5262,-5.462,-5.3665,-5.3185,-5.3185,-5.3185,-5.2325,-5.0784,-5.0472,-4.9554,-4.8306,-4.8306,-4.8175,-4.7943,-4.7516,-4.723,-4.6916,-4.5688,-4.5314,-4.5362,-4.5096,-4.4954,-4.4842,-4.458,-4.4223,-4.3893,-4.3893,-4.3893,-4.3849,-4.358,-4.3693,-4.3833,-4.3563,-4.2892,-4.2331,-4.244,-4.1311,-4.0183,-4.0095,-3.9094,-3.8158,-3.788,-3.7237,-3.6681,-3.6428,-3.5702,-3.5533,-3.6614,-3.6036,-3.5501,-3.5555,-3.5512,-3.5496,-3.5509,-3.6012,-3.6266,-3.6074,-3.5261,-3.4766,-3.4766,-3.4174,-3.41,-3.4747,-3.4289,-3.4266,-3.4766,-3.427,-3.3972,-3.3807,-3.3807,-3.3807,-3.3807,-3.3807,-3.4523,-4.864,-4.7523,-4.7146,-4.8405,-4.8132,-4.8612,0.0,-5.2469,-5.2283,-5.531,-5.6511,-5.7577,-5.9404,-6.0901,-6.2302,-6.3505,-6.4245,-6.4829,-6.5202,-6.5904,-6.6079,-6.5131,-6.5118,-6.4861,-6.4016,-6.3264,-6.278,-6.278,-6.278,-6.2768,-6.2652,-6.1906,-6.1098,-6.0291,-5.9478,-5.8694,-5.7868,-5.6345,-5.5559,-5.5445,-5.394,-5.3185,-5.3185,-5.3185,-5.2325,-5.0729,-4.9242,-4.8471,-4.8306,-4.8306,-4.7867,-4.715,-4.6415,-4.5845,-4.5488,-4.5658,-4.5293,-4.4714,-4.4657,-4.4414,-4.4117,-4.4073,-4.3836,-4.3565,-4.3565,-4.3565,-4.3548,-4.3496,-4.3531,-4.3548,-4.3496,-4.2892,-4.2138,-4.1436,-4.0588,-3.9758,-3.9041,-3.8206,-3.7591,-3.7548,-3.6292,-3.5225,-3.5202,-3.4522,-3.4273,-3.511,-3.4552,-3.4116,-3.4372,-3.4173,-3.4412,-3.5405,-3.5317,-3.5174,-3.5151,-3.4412,-3.3935,-3.3935,-3.3844,-3.3844,-3.3935,-3.4527,-3.4564,-3.3954,-3.4546,-3.4509,-3.3807,-3.3807,-3.3807,-3.3807,-3.3807,-3.3899,-5.0062,-4.9293,-4.8733,-4.9411,-4.9712,-5.0407,-5.2739,-5.2756,-5.3162,-5.619,-5.7729,-5.8998,-6.052,-6.2026,-6.3278,-6.4084,-6.4539,-6.5002,-6.5611,-6.6118,-6.6301,-6.6048,-6.5595,-6.4989,-6.4163,-6.3759,-6.3356,-6.286,-6.278,-6.2377,-6.1465,-6.108,-6.0327,-5.9043,-5.8676,-5.8125,-5.7317,-5.6161,-5.5354,-5.4876,-5.3757,-5.3185,-5.3185,-5.3185,-5.2325,-5.0729,-4.9554,-4.8765,-4.8269,-4.7791,-4.7388,-4.6966,-4.57,-4.5072,-4.4888,-4.4793,-4.4804,-4.4837,-4.4401,-4.429,-4.428,-4.3852,-4.3595,-4.3515,-4.3515,-4.3515,-4.3515,-4.3515,-4.3515,-4.3404,-4.291,-4.2194,-4.1405,-4.0598,-3.979,-3.9111,-3.8781,-3.7698,-3.6813,-3.6813,-3.544,-3.4289,-3.4289,-3.4027,-3.3917,-3.4252,-3.4027,-3.3842,-3.3948,-3.3863,-3.397,-3.446,-3.4397,-3.4289,-3.4289,-3.399,-3.3807,-3.3807,-3.3807,-3.3587,-3.3128,-3.3426,-3.3445,-3.3109,-3.3426,-3.3665,-3.3807,-3.3807,-3.3807,-3.3807,-3.3807,-3.3807,-5.0523,-5.047,-5.035,-5.0851,-5.1412,-5.213,-5.3288,-5.338,-5.4042,-5.6833,-5.8271,-5.9539,-6.1281,-6.2482,-6.3514,-6.4444,-6.4691,-6.507,-6.5965,-6.6021,-6.6109,-6.6461,-6.5797,-6.4989,-6.4163,-6.387,-6.3484,-6.286,-6.2603,-6.1961,-6.0786,-6.0309,-5.9538,-5.8364,-5.8125,-5.7611,-5.6822,-5.5996,-5.5188,-5.4399,-5.3592,-5.3185,-5.3185,-5.2968,-5.2105,-5.0765,-4.9939,-4.8967,-4.7921,-4.7333,-4.6837,-4.6324,-4.515,-4.4562,-4.4322,-4.3994,-4.419,-4.4574,-4.4046,-4.4046,-4.4213,-4.3662,-4.3515,-4.3515,-4.3515,-4.3515,-4.3515,-4.3515,-4.3515,-4.3296,-4.2506,-4.1699,-4.0893,-4.0084,-3.9294,-3.8634,-3.8414,-3.7276,-3.6229,-3.5991,-3.478,-3.3807,-3.3807,-3.3807,-3.3807,-3.3807,-3.3807,-3.3715,-3.3495,-3.3275,-3.3311,-3.3752,-3.3605,-3.3568,-3.377,-3.3807,-3.3807,-3.3807,-3.3807,-3.344,-3.2619,-3.2601,-3.2491,-3.2284,-3.2284,-3.2669,-3.3476,-3.3476,-3.3587,-3.3807,-3.3807,-3.3807,-4.9796,-5.0335,-5.1281,-5.2954,-5.3392,-5.4004,-5.6188,-5.6115,-5.6241,-5.849,-5.8981,-5.9708,-6.1941,-6.2381,-6.2905,-6.436,-6.462,-6.4962,-6.5967,-6.5428,-6.5345,-6.6389,-6.5797,-6.4989,-6.4163,-6.3337,-6.2817,-6.278,-6.2089,-6.1612,-6.1557,-6.0089,-5.9203,-5.9166,-5.8419,-5.7611,-5.6822,-5.5996,-5.5188,-5.4399,-5.3592,-5.3185,-5.3167,-5.238,-5.1573,-5.0765,-4.9939,-4.8655,-4.7131,-4.7113,-4.6177,-4.4764,-4.4709,-4.4213,-4.3533,-4.3515,-4.3531,-4.3548,-4.3513,-4.3513,-4.3531,-4.3515,-4.3515,-4.3515,-4.3515,-4.3515,-4.3515,-4.3515,-4.3515,-4.3296,-4.2506,-4.1699,-4.0893,-4.0084,-3.9294,-3.8487,-3.7713,-3.6905,-3.6046,-3.5206,-3.4376,-3.3807,-3.3807,-3.3807,-3.3807,-3.3807,-3.3807,-3.3532,-3.2729,-3.1953,-3.2076,-3.3623,-3.3096,-3.2949,-3.3733,-3.3807,-3.3807,-3.3807,-3.3807,-3.344,-3.2619,-3.2601,-3.2228,-3.1452,-3.1452,-3.1825,-3.2638,-3.2638,-3.3041,-3.3807,-3.3807,-3.3807,-5.1109,-5.225,-5.3549,-5.4668,-5.4961,-5.5168,-5.5914,-5.5891,-5.5908,-5.6669,-5.6833,-5.7053,-5.7814,-5.915,-6.0639,-6.2161,-6.3243,-6.4581,-6.6602,-6.6206,-6.5707,-6.5703,-6.5466,-6.4769,-6.3374,-6.3503,-6.3429,-6.286,-6.2053,-6.1374,-6.0823,-5.9795,-5.8946,-5.8419,-5.7629,-5.7079,-5.6804,-5.495,-5.4142,-5.4399,-5.3592,-5.2931,-5.238,-5.2105,-5.1261,-4.9996,-4.9721,-4.8655,-4.7058,-4.6526,-4.5681,-4.4636,-4.4103,-4.3736,-4.3515,-4.3515,-4.3515,-4.3515,-4.3515,-4.3646,-4.3804,-4.3563,-4.3515,-4.3515,-4.3515,-4.3515,-4.3515,-4.3515,-4.3515,-4.3185,-4.1864,-4.1297,-4.0747,-3.9423,-3.8909,-3.8487,-3.7676,-3.6868,-3.6046,-3.5169,-3.4344,-3.3807,-3.3807,-3.3807,-3.3807,-3.3807,-3.3807,-3.3513,-3.2693,-3.2362,-3.2192,-3.2223,-3.2449,-3.2711,-3.2968,-3.3495,-3.3807,-3.3807,-3.3807,-3.344,-3.2619,-3.21,-3.1678,-3.1415,-3.087,-3.1256,-3.2601,-3.2601,-3.3005,-3.3807,-3.3807,-3.3807,-5.2821,-5.4077,-5.5178,-5.6249,-5.6325,-5.6189,-5.647,-5.609,-5.5783,-5.6047,-5.5467,-5.5091,-5.5615,-5.6664,-5.8017,-5.9793,-6.1112,-6.2757,-6.5268,-6.4951,-6.4616,-6.5176,-6.4976,-6.4518,-6.3771,-6.3943,-6.3613,-6.2456,-6.163,-6.0823,-6.0015,-5.9226,-5.8529,-5.8015,-5.7226,-5.6657,-5.6363,-5.4271,-5.3188,-5.3115,-5.2601,-5.2068,-5.1555,-5.1261,-5.0418,-4.9114,-4.882,-4.7774,-4.6195,-4.5681,-4.5002,-4.4213,-4.3699,-4.3515,-4.3515,-4.3515,-4.3515,-4.3515,-4.3515,-4.3646,-4.3788,-4.3563,-4.3515,-4.3515,-4.3515,-4.3515,-4.3515,-4.3515,-4.3515,-4.313,-4.1517,-4.1095,-4.0691,-3.9093,-3.8707,-3.8395,-3.7309,-3.6666,-3.5954,-3.4802,-3.4156,-3.3807,-3.3807,-3.3807,-3.3807,-3.3807,-3.3807,-3.3513,-3.2693,-3.2087,-3.1659,-3.1415,-3.1861,-3.2173,-3.2173,-3.2908,-3.3256,-3.2963,-3.2944,-3.2577,-3.1775,-3.1256,-3.0834,-3.0558,-3.032,-3.079,-3.1964,-3.2251,-3.2711,-3.3346,-3.3346,-3.3346,-5.4766,-5.5669,-5.611,-5.7611,-5.7474,-5.7137,-5.778,-5.681,-5.5934,-5.6515,-5.4916,-5.3839,-5.5175,-5.4938,-5.526,-5.7476,-5.8592,-5.9976,-6.2382,-6.2073,-6.2502,-6.4825,-6.4426,-6.4297,-6.5205,-6.4567,-6.3392,-6.1722,-6.086,-6.007,-5.9294,-5.8455,-5.7978,-5.7941,-5.7171,-5.6326,-5.5504,-5.3885,-5.2325,-5.0802,-5.0802,-5.0802,-5.0765,-4.9903,-4.9058,-4.8196,-4.7388,-4.614,-4.4691,-4.4691,-4.4232,-4.3515,-4.3515,-4.3515,-4.3515,-4.3515,-4.3515,-4.3515,-4.3515,-4.3515,-4.3515,-4.3515,-4.3515,-4.3515,-4.3515,-4.3515,-4.3515,-4.3515,-4.3515,-4.313,-4.1572,-4.1132,-4.0691,-3.9129,-3.8726,-3.8267,-3.6652,-3.6303,-3.5789,-3.4137,-3.3807,-3.3807,-3.3807,-3.3807,-3.3807,-3.3807,-3.3752,-3.3458,-3.2638,-3.1219,-3.0522,-3.1213,-3.1323,-3.1342,-3.1342,-3.2118,-3.2265,-3.1452,-3.1488,-3.1164,-3.0356,-3.0296,-2.9947,-2.9207,-2.985,-3.0407,-3.0868,-3.1607,-3.2151,-3.2501,-3.2501,-3.2501,-5.5243,-5.6473,-5.7483,-5.7886,-5.7862,-5.7619,-5.7268,-5.6895,-5.6179,-5.4644,-5.3449,-5.2451,-5.1668,-5.2756,-5.4499,-5.6714,-5.959,-6.2153,-6.3971,-6.4549,-6.4848,-6.5077,-6.4913,-6.4942,-6.5278,-6.4567,-6.3392,-6.1722,-6.086,-6.0309,-6.0107,-5.8767,-5.7721,-5.7134,-5.6326,-5.5225,-5.383,-5.2215,-5.1206,-5.0802,-5.0802,-5.0802,-5.0747,-4.9297,-4.8196,-4.7351,-4.6562,-4.5645,-4.4691,-4.4691,-4.4232,-4.3515,-4.3515,-4.3515,-4.3515,-4.3515,-4.3515,-4.3515,-4.3515,-4.3515,-4.3515,-4.3515,-4.3515,-4.3515,-4.3515,-4.3515,-4.3515,-4.3515,-4.3515,-4.3276,-4.2268,-4.1535,-4.0838,-3.9827,-3.9148,-3.8267,-3.6652,-3.6303,-3.5789,-3.4137,-3.3807,-3.3807,-3.3807,-3.3807,-3.3807,-3.3807,-3.3293,-3.2632,-3.1806,-3.136,-3.0705,-2.9721,-3.0155,-3.0503,-3.0503,-3.1788,-3.2265,-3.1452,-3.2522,-3.2834,-3.2014,-3.171,-3.1592,-3.1684,-3.0652,-3.065,-3.1693,-3.1559,-3.1836,-3.2501,-3.2501,-3.2501,-5.6346,-5.7299,-5.7997,-5.7997,-5.7997,-5.7702,-5.6581,-5.6084,-5.5217,-5.2913,-5.1847,-5.093,-4.9739,-5.1418,-5.3485,-5.499,-5.7895,-6.0612,-6.245,-6.309,-6.3791,-6.4929,-6.4741,-6.4872,-6.5747,-6.4769,-6.3539,-6.2236,-6.1062,-6.0089,-5.9391,-5.8492,-5.7629,-5.684,-5.6014,-5.4491,-5.2179,-5.0894,-5.0086,-4.9701,-4.9701,-4.9701,-4.9646,-4.7994,-4.7003,-4.6507,-4.5351,-4.458,-4.4176,-4.4176,-4.3901,-4.3515,-4.3515,-4.3515,-4.3515,-4.3515,-4.3515,-4.3515,-4.3515,-4.3515,-4.3515,-4.3515,-4.3515,-4.3515,-4.3515,-4.3515,-4.3515,-4.3515,-4.3515,-4.3222,-4.2066,-4.1425,-4.0802,-3.9643,-3.9038,-3.8267,-3.6652,-3.6593,-3.6321,-3.4651,-3.4045,-3.3807,-3.3807,-3.3807,-3.3807,-3.3807,-3.3421,-3.2852,-3.2027,-3.1623,-3.0779,-2.917,-3.0344,-3.098,-3.0265,-3.1665,-3.2265,-3.1452,-3.2247,-3.254,-3.21,-3.1688,-3.1576,-3.1815,-3.1041,-3.0875,-3.1397,-3.1473,-3.1672,-3.1932,-3.1932,-3.1932,-5.7772,-5.8162,-5.8125,-5.8033,-5.7997,-5.7574,-5.5959,-5.5111,-5.397,-5.1564,-5.0464,-4.9687,-4.8943,-5.0478,-5.2209,-5.328,-5.5331,-5.7596,-5.9963,-6.0258,-6.1354,-6.4341,-6.3965,-6.4135,-6.5706,-6.449,-6.328,-6.2379,-6.0847,-5.9426,-5.8235,-5.7872,-5.7317,-5.6528,-5.5482,-5.361,-5.0839,-4.9884,-4.9095,-4.8471,-4.8361,-4.8361,-4.8416,-4.6691,-4.5902,-4.581,-4.4212,-4.3515,-4.3515,-4.3515,-4.3515,-4.3515,-4.3515,-4.3515,-4.3515,-4.3515,-4.3515,-4.3515,-4.3515,-4.3515,-4.3515,-4.3515,-4.3515,-4.3515,-4.3515,-4.3515,-4.3515,-4.3515,-4.3515,-4.3149,-4.1662,-4.1168,-4.071,-3.9221,-3.8781,-3.8267,-3.6652,-3.6684,-3.6593,-3.5114,-3.427,-3.3807,-3.3807,-3.3807,-3.3807,-3.3807,-3.3715,-3.3385,-3.2693,-3.199,-3.098,-2.9482,-3.1188,-3.188,-3.0485,-3.1751,-3.2221,-3.1376,-3.1523,-3.1552,-3.1404,-3.1087,-3.0959,-3.1017,-3.1204,-3.1112,-3.075,-3.1406,-3.1528,-3.119,-3.119,-3.119,-5.8937,-5.8982,-5.8817,-5.8162,-5.7997,-5.7574,-5.5959,-5.5507,-5.4565,-5.1566,-5.0441,-4.9715,-4.8859,-4.9199,-5.0591,-5.3704,-5.5655,-5.7831,-6.0769,-6.1129,-6.1593,-6.2946,-6.2377,-6.2079,-6.249,-6.1676,-6.0784,-5.9969,-5.8411,-5.7926,-5.8935,-5.7152,-5.5703,-5.4836,-5.2747,-5.1371,-5.082,-4.9297,-4.8802,-4.9372,-4.8636,-4.8673,-4.9298,-4.6948,-4.5902,-4.581,-4.4212,-4.3515,-4.3515,-4.3515,-4.3515,-4.3515,-4.3515,-4.3515,-4.3515,-4.3515,-4.3515,-4.3515,-4.3515,-4.3515,-4.3515,-4.3515,-4.3515,-4.3515,-4.3515,-4.3515,-4.3515,-4.3515,-4.3515,-4.3277,-4.2341,-4.159,-4.0857,-3.9918,-3.9184,-3.8267,-3.6652,-3.5312,-3.4357,-3.4064,-3.3899,-3.3807,-3.3807,-3.3807,-3.3807,-3.3807,-3.3238,-3.2748,-3.2619,-3.2472,-3.2027,-3.1072,-3.1347,-3.1507,-3.1231,-3.2063,-3.2104,-3.0993,-3.2151,-3.2418,-3.1357,-3.151,-3.181,-3.2209,-3.1564,-3.1338,-3.1581,-3.1399,-3.1271,-3.119,-3.119,-3.119,-5.9205,-5.9184,-5.9093,-5.8731,-5.8309,-5.7354,-5.4913,-5.4344,-5.335,-4.981,-4.9446,-4.932,-4.7802,-4.8872,-5.0628,-5.2378,-5.4682,-5.6987,-5.9263,-6.0239,-6.0906,-6.1453,-6.0768,-6.0328,-6.0494,-5.9792,-5.8952,-5.8101,-5.697,-5.6652,-5.7401,-5.554,-5.4422,-5.4396,-5.2068,-5.0802,-5.0802,-4.915,-4.8508,-4.8912,-4.8508,-4.8526,-4.8838,-4.6819,-4.614,-4.6416,-4.4378,-4.3736,-4.4085,-4.3663,-4.3515,-4.3515,-4.3515,-4.3515,-4.3515,-4.3515,-4.3515,-4.3515,-4.3515,-4.3515,-4.3515,-4.3515,-4.3515,-4.3515,-4.3515,-4.3515,-4.3515,-4.3515,-4.3515,-4.3222,-4.1992,-4.1389,-4.0783,-3.957,-3.8652,-3.7973,-3.7624,-3.6266,-3.5092,-3.5092,-3.4743,-3.4302,-3.3862,-3.4156,-3.427,-3.3862,-3.383,-3.3702,-3.3293,-3.322,-3.2761,-3.1525,-3.2149,-3.2389,-3.1765,-3.2443,-3.2564,-3.1737,-3.2416,-3.2551,-3.1952,-3.1847,-3.1915,-3.2127,-3.1524,-3.1291,-3.1488,-3.1291,-3.119,-3.119,-3.119,-3.119,-5.9496,-5.957,-5.9648,-5.9276,-5.8731,-5.7373,-5.3956,-5.3185,-5.2126,-4.8387,-4.8425,-4.8641,-4.7084,-4.8577,-5.0294,-5.1134,-5.308,-5.5233,-5.7363,-5.8445,-5.9167,-5.9611,-5.889,-5.8382,-5.8365,-5.7798,-5.7156,-5.6476,-5.5593,-5.5115,-5.5276,-5.385,-5.3303,-5.3864,-5.1701,-5.0545,-5.0545,-4.9058,-4.8306,-4.8306,-4.8306,-4.8306,-4.8251,-4.6819,-4.6416,-4.6727,-4.4654,-4.4011,-4.4397,-4.3754,-4.3515,-4.3515,-4.3515,-4.3515,-4.3515,-4.3515,-4.3515,-4.3515,-4.3515,-4.3515,-4.3515,-4.3515,-4.3515,-4.3515,-4.3515,-4.3515,-4.3515,-4.3515,-4.3515,-4.313,-4.1517,-4.1095,-4.0691,-3.9093,-3.8098,-3.7676,-3.8303,-3.7312,-3.6303,-3.6303,-3.5752,-3.5031,-3.4302,-3.4783,-3.493,-3.3915,-3.4396,-3.4552,-3.3628,-3.3518,-3.3044,-3.1773,-3.2858,-3.3253,-3.2197,-3.2688,-3.284,-3.2384,-3.235,-3.2316,-3.2231,-3.1878,-3.1678,-3.1678,-3.137,-3.119,-3.119,-3.119,-3.119,-3.119,-3.119,-3.119,-6.0493,-6.0823,-6.1025,-5.9551,-5.9129,-5.8047,-5.4084,-5.3185,-5.2249,-4.8926,-4.7891,-4.7705,-4.8055,-4.7409,-4.7914,-5.1291,-5.1085,-5.2016,-5.6294,-5.5874,-5.5621,-5.7051,-5.6508,-5.5772,-5.5094,-5.4958,-5.4901,-5.4807,-5.3502,-5.2956,-5.3511,-5.2684,-5.2209,-5.2213,-5.0602,-4.9721,-4.9721,-4.8765,-4.8306,-4.8306,-4.8306,-4.8306,-4.8269,-4.7388,-4.6636,-4.5957,-4.5002,-4.4213,-4.3606,-4.3533,-4.3515,-4.3515,-4.3515,-4.3515,-4.3515,-4.3515,-4.3515,-4.3515,-4.3515,-4.3515,-4.3515,-4.3515,-4.3515,-4.3515,-4.3515,-4.3515,-4.3515,-4.3515,-4.3515,-4.313,-4.1517,-4.1095,-4.0691,-3.9093,-3.8098,-3.7529,-3.7584,-3.6923,-3.6303,-3.6303,-3.6229,-3.6003,-3.5444,-3.5815,-3.5596,-3.387,-3.4098,-3.4024,-3.2787,-3.2632,-3.2563,-3.2403,-3.2909,-3.3042,-3.2493,-3.2531,-3.2349,-3.188,-3.1862,-3.1696,-3.1329,-3.1271,-3.1269,-3.1269,-3.121,-3.119,-3.119,-3.119,-3.119,-3.119,-3.119,-3.119,-6.0217,-6.0988,-6.1318,-6.0199,-5.9189,-5.7556,-5.4014,-5.2839,-5.1683,-4.8893,-4.8094,-4.7897,-4.7777,-4.7324,-4.7372,-4.8521,-4.9073,0.0,-5.2442,-5.3043,-5.3675,-5.4747,-5.4584,-5.4262,-5.3974,-5.394,-5.372,-5.3248,-5.1859,-5.126,-5.1891,-5.1185,-5.1148,-5.1974,-5.0437,-4.961,-4.961,-4.8728,-4.8306,-4.8306,-4.8306,-4.8306,-4.8269,-4.7461,-4.6929,-4.6562,-4.5278,-4.4525,-4.4176,-4.3699,-4.3515,-4.3515,-4.3515,-4.3515,-4.3515,-4.3515,-4.3515,-4.3515,-4.3515,-4.3515,-4.3515,-4.3515,-4.3515,-4.3515,-4.3515,-4.3515,-4.3515,-4.3515,-4.3515,-4.313,-4.1517,-4.038,-3.9481,-3.8854,-3.8469,-3.8212,-3.8212,-3.7973,-3.7606,-3.7125,-3.7015,-3.6698,-3.5686,-3.6075,-3.6031,-3.4482,-3.4479,-3.428,-3.3279,-3.2767,-3.2401,-3.2109,-3.2501,-3.2599,-3.2109,-3.2074,-3.1897,-3.1468,-3.1449,-3.137,-3.121,-3.119,-3.119,-3.119,-3.119,-3.119,-3.119,-3.119,-3.119,-3.119,-3.119,-3.119,-5.9043,-6.0272,-6.1043,-6.0254,-5.8841,-5.6859,-5.3885,-5.2399,-5.1004,-4.8765,-4.8306,-4.8172,-4.7756,-4.7674,-4.7616,-4.7499,0.0,-4.9204,-5.0221,-5.1154,-5.1981,-5.2738,-5.2638,-5.2672,-5.3112,-5.3145,-5.2824,-5.2046,-5.0811,-5.0176,-5.0364,-4.9662,-4.9757,-5.0872,-4.9572,-4.8746,-4.8509,-4.8141,-4.7829,-4.759,-4.7829,-4.7829,-4.7572,-4.6984,-4.6617,-4.6324,-4.5186,-4.4562,-4.4305,-4.3718,-4.3515,-4.3515,-4.3515,-4.3515,-4.3515,-4.3515,-4.3515,-4.3515,-4.3515,-4.3515,-4.3515,-4.3515,-4.3515,-4.3515,-4.3515,-4.3515,-4.346,-4.3221,-4.2965,-4.2525,-4.1389,-3.9918,-3.8707,-3.8707,-3.8707,-3.8707,-3.8707,-3.8596,-3.83,-3.7731,-3.7512,-3.7069,-3.5969,-3.638,-3.6274,-3.4559,-3.4493,-3.4197,-3.3036,-3.2441,-3.1986,-3.166,-3.1914,-3.1986,-3.1641,-3.1623,-3.1507,-3.121,-3.119,-3.119,-3.119,-3.119,-3.119,-3.119,-3.119,-3.119,-3.119,-3.119,-3.119,-3.119,-3.119,-3.119,-5.684,-5.8602,-6.0236,-5.9404,-5.7992,-5.6198,-5.3736,-5.1977,-5.0325,-4.8655,-4.8306,-4.8306,-4.8287,-4.8287,-4.8562,-4.9444,-4.9086,0.0,-5.0769,-5.0493,-5.042,-5.115,-5.0574,-5.071,-5.2164,-5.2317,-5.2012,-5.1252,-5.0524,-4.9759,-4.8976,-4.8152,-4.7911,-4.8321,-4.7553,-4.6727,-4.5957,-4.6709,-4.6709,-4.592,-4.6727,-4.6691,-4.592,-4.592,-4.548,-4.4709,-4.4727,-4.425,-4.3515,-4.3515,-4.3515,-4.3515,-4.3515,-4.3515,-4.3515,-4.3515,-4.3515,-4.3515,-4.3515,-4.3515,-4.3515,-4.3515,-4.3515,-4.3515,-4.3515,-4.3515,-4.3331,-4.2543,-4.1754,-4.1113,-4.1095,-3.9918,-3.8707,-3.8707,-3.8707,-3.8707,-3.8707,-3.8283,-3.7893,-3.7893,-3.7506,-3.7039,-3.6484,-3.6845,-3.6338,-3.3798,-3.3865,-3.3475,-3.1475,-3.121,-3.121,-3.121,-3.121,-3.121,-3.121,-3.121,-3.121,-3.119,-3.119,-3.119,-3.119,-3.119,-3.119,-3.119,-3.119,-3.119,-3.119,-3.119,-3.119,-3.119,-3.119,-3.119,-5.4858,-5.6124,-5.6932,-5.6124,-5.5133,-5.3867,-5.1995,-5.0729,-4.9646,-4.8526,-4.8306,-4.8306,-4.8306,-4.8306,-4.8263,-4.812,-4.801,-4.7967,-4.798,-4.878,-4.9627,-5.0355,-5.1623,-5.2604,-5.3078,-5.2181,-5.1471,-5.1202,-4.9593,-4.8452,-4.8097,-4.7373,-4.7174,-4.7671,-4.6894,-4.631,-4.5902,-4.6159,-4.6159,-4.5902,-4.6159,-4.6159,-4.5902,-4.5902,-4.5461,-4.4691,-4.4691,-4.425,-4.3515,-4.3515,-4.3515,-4.3515,-4.3515,-4.3515,-4.3515,-4.3515,-4.3515,-4.3444,-4.3069,-4.3196,-4.3444,-4.3069,-4.2958,-4.2849,-4.225,-4.2339,-4.2635,-4.2378,-4.1313,-4.0414,-4.0948,-3.9918,-3.8707,-3.8707,-3.8707,-3.8611,-3.8216,-3.8013,-3.7807,-3.7488,-3.7304,-3.7038,-3.6498,-3.6539,-3.609,-3.4415,-3.3858,-3.3427,-3.2784,-3.2256,-3.1955,-3.1955,-3.1955,-3.1955,-3.1955,-3.1478,-3.141,-3.1921,-3.1481,-3.119,-3.119,-3.119,-3.119,-3.119,-3.119,-3.119,-3.119,-3.119,-3.119,-3.119,-3.119,-3.119,-5.2601,-5.3849,-5.4564,-5.4069,-5.3115,-5.2032,-5.1041,0.0,-4.8948,-4.8416,-4.8306,-4.8306,-4.8306,-4.8306,-4.8094,-4.7509,-4.752,-4.7558,-4.7453,-4.8343,-4.9272,-4.9999,-5.1843,-5.2841,-5.2266,-5.1606,-5.1067,-5.0811,-4.9001,-4.7607,-4.6975,-4.6241,-4.5727,-4.5419,-4.562,-4.5397,-4.4692,-4.5187,-4.5296,-4.5002,-4.5296,-4.5296,-4.4984,-4.4984,-4.4709,-4.425,-4.425,-4.3956,0.0,-4.3515,-4.3515,-4.3515,-4.3515,-4.3515,-4.3515,-4.3515,-4.3375,-4.316,-4.2826,-4.277,-4.2791,-4.2462,-4.2284,-4.2008,-4.0871,-4.098,-4.1553,-4.1777,-4.091,-4.001,-4.0524,-3.968,-3.8707,-3.8707,-3.8546,-3.8366,-3.8216,-3.7737,-3.7323,-3.721,-3.6865,-3.6481,-3.6161,-3.6097,-3.5647,-3.4299,-3.3931,-3.3609,-3.3051,-3.2831,-3.2733,-3.2733,-3.2479,-3.253,-3.3089,-3.2209,-3.1938,-3.2662,-3.2022,-3.1633,-3.1633,-3.1343,-3.119,-3.119,-3.119,-3.119,-3.119,-3.119,-3.119,-3.119,-3.119,-3.119,0.0,-5.172,-5.2837,-5.2837,-5.1738,-5.0618,-5.0618,0.0,0.0,-4.8306,-4.8251,-4.8233,-4.8306,-4.8267,-4.8055,-4.7488,-4.7528,-4.7852,-4.8553,-4.8877,-4.9373,-5.0152,-5.1522,-5.1809,-5.0304,-5.0811,-5.0879,-5.0067,-4.8663,-4.7192,-4.5703,-4.4908,-4.3751,-4.2082,-4.3841,-4.4108,-4.2711,-4.3926,-4.4196,-4.3515,-4.4268,-4.4213,-4.3515,-4.3515,-4.3479,-4.3444,-4.3444,-4.3444,-4.3444,-4.3444,-4.348,-4.3515,-4.3515,-4.3515,-4.3515,-4.3515,-4.316,-4.2693,-4.26,-4.2192,-4.1722,-4.1609,-4.1426,-4.0939,-3.9446,-3.9536,-4.0311,-4.087,-4.0451,-3.9827,-3.9832,-3.9247,-3.8627,-3.8611,-3.82,-3.798,-3.8433,-3.7414,-3.6539,-3.6999,-3.6274,-3.56,-3.56,-3.56,-3.5109,-3.3694,-3.4066,-3.402,-3.2632,-3.3051,-3.3491,-3.3491,-3.2886,-3.2987,-3.4303,-3.3123,-3.2649,-3.344,-3.278,-3.2378,-3.2378,-3.1735,-3.136,-3.136,-3.136,-3.136,-3.136,-3.1292,-3.1275,-3.1275,-3.1207,-3.119,-4.8783,0.0,-4.9462,-4.9462,-4.9169,-4.8893,0.0,0.0,0.0,0.0,0.0,0.0,0.0,-4.7917,-4.7572,-4.7428,-4.755,-4.7551,-4.7174,-4.8702,-5.0321,-5.1623,-5.2638,-5.2621,-5.1099,-5.1083,-5.0676,-4.9357,-4.7885,-4.6397,-4.4953,-4.4113,-4.2966,-4.1469,-4.2313,-4.2754,-4.2692,-4.3007,-4.3287,-4.3515,-4.3681,-4.3681,-4.3515,-4.3515,-4.3268,-4.2883,-4.2883,-4.2883,-4.2883,-4.2883,-4.3142,-4.3515,-4.3515,-4.3515,-4.3515,-4.3515,-4.316,-4.2545,-4.1544,-4.109,-4.0781,-3.976,-3.9398,-3.9154,-3.8184,-3.8848,-4.001,-4.0143,-3.9606,-3.9033,-3.9234,-3.8679,-3.7998,-3.7632,-3.7469,-3.7285,-3.7001,-3.6661,-3.6312,-3.6032,-3.5766,-3.56,-3.56,-3.56,-3.5278,-3.437,-3.4387,-3.437,-3.4037,-3.4117,-3.4235,-3.4235,-3.4083,-3.388,-3.3677,-3.2835,-3.2869,-3.415,-3.3541,-3.3136,-3.3136,-3.2983,-3.2882,-3.2882,-3.2882,-3.2882,-3.2882,-3.2327,-3.2039,-3.2039,-3.1464,-3.119,-4.7957,-4.8387,-4.8893,-4.8893,-4.86,-4.8306,-4.8306,0.0,0.0,0.0,0.0,0.0,0.0,-4.7226,-4.727,-4.6619,-4.7184,-4.7693,-4.7695,-4.877,-5.027,-5.208,-5.208,-5.1758,-5.1268,-5.0896,-5.0084,-4.8612,-4.7445,-4.5991,-4.4147,-4.3318,-4.2219,-4.073,-4.1016,-4.1411,-4.1874,-4.2422,-4.2713,-4.2734,-4.3249,-4.3375,-4.3124,-4.3124,-4.2976,-4.2674,-4.242,-4.2282,-4.2302,-4.2596,-4.2515,-4.2303,-4.3175,-4.2898,-4.2156,-4.3135,-4.2541,-4.1171,-4.0824,-4.0141,-3.9281,-3.8434,-3.8153,-3.8057,-3.7522,-3.8211,-3.9101,-3.8757,-3.8595,-3.8454,-3.8295,-3.8168,-3.7934,-3.7337,-3.7001,-3.6823,-3.6783,-3.6374,-3.6028,-3.5985,-3.5783,-3.56,-3.56,-3.56,-3.5346,-3.4607,-3.4793,-3.4878,-3.4539,-3.4793,-3.5013,-3.5013,-3.4692,-3.4472,-3.4399,-3.3728,-3.3664,-3.4438,-3.3812,-3.3558,-3.3897,-3.3592,-3.3406,-3.3406,-3.3406,-3.3406,-3.3406,-3.2666,-3.2479,-3.278,-3.2056,-3.1698,-4.7391,-4.8377,-4.9525,-4.919,-4.8455,-4.7872,-4.7969,0.0,0.0,0.0,0.0,0.0,0.0,-4.6289,-4.6797,-4.5814,-4.6919,-4.8283,-4.9365,-4.9509,-5.0168,-5.1928,-5.1133,-5.0541,-5.0845,-5.0304,-4.9323,-4.7851,-4.6938,-4.5517,-4.3341,-4.254,-4.1491,-4.0146,-4.0096,-4.0311,-4.078,-4.1874,-4.2203,-4.1793,-4.2772,-4.2995,-4.2559,-4.2559,-4.25,-4.24,-4.1895,-4.1664,-4.1686,-4.2203,-4.1779,-4.096,-4.2559,-4.2067,-4.0673,-4.2374,-4.154,-3.96,-3.9964,-3.898,-3.7502,-3.7269,-3.7262,-3.7293,-3.7134,-3.7515,-3.7901,-3.7394,-3.775,-3.8106,-3.7289,-3.7533,-3.7829,-3.712,-3.6603,-3.6395,-3.6845,-3.6249,-3.5739,-3.6203,-3.592,-3.56,-3.56,-3.56,-3.538,-3.4759,-3.5194,-3.5363,-3.4742,-3.5216,-3.56,-3.56,-3.5047,-3.4878,-3.538,-3.4759,-3.437,-3.4489,-3.4032,-3.4032,-3.4641,-3.3964,-3.3626,-3.3723,-3.3643,-3.3626,-3.3723,-3.2983,-3.297,-3.3558,-3.2797,-3.2479,-4.6535,-4.7962,-4.9158,-4.7342,-4.6323,-4.5891,-4.6413,0.0,0.0,0.0,0.0,0.0,0.0,-4.5074,-4.5231,-4.6256,-4.7775,-4.9497,-5.1505,-5.1792,-5.1691,-5.142,-5.1725,-5.1268,-4.9509,-4.9238,-4.8562,-4.7073,-4.5703,-4.4225,-4.2557,-4.1779,-4.0984,-4.013,-4.0096,-4.0146,-4.0229,-4.0868,-4.138,-4.181,-4.1979,-4.2021,-4.1937,-4.1937,-4.1664,-4.1178,-4.1087,-4.1041,-4.1041,-4.1155,-4.1213,-4.1317,-4.1612,-4.1522,-4.1196,-4.0908,-4.0354,-3.9515,-3.7957,-3.6769,-3.5943,-3.5915,-3.6204,-3.6572,-3.6533,-3.6588,-3.6797,-3.7318,-3.7875,-3.8045,-3.6832,-3.6606,-3.6551,-3.598,-3.5766,-3.5739,-3.5832,-3.5717,-3.5605,-3.5694,-3.5667,-3.56,-3.56,-3.56,-3.5566,-3.5447,-3.5515,-3.5549,-3.5447,-3.5532,-3.56,-3.56,-3.5498,-3.5211,-3.4709,-3.3998,-3.3846,-3.4455,-3.4979,-3.5312,-3.543,-3.4726,-3.4624,-3.5245,-3.4658,-3.4641,-3.5261,-3.4523,-3.4218,-3.4303,-3.3575,-3.3237,-4.5315,-4.6128,-4.6926,-4.5743,-4.6597,-4.7605,-4.7077,0.0,0.0,0.0,0.0,0.0,0.0,-4.505,-4.6435,-4.8731,-4.9029,-4.9492,-5.0913,-5.0439,-5.0101,-5.0557,-5.0202,-4.9695,-4.9069,-4.8646,-4.78,-4.6312,-4.5568,-4.435,-4.2388,-4.1965,-4.1255,-4.0146,-4.0096,-4.0096,-4.0096,-4.0343,-4.0601,-4.0885,-4.1508,-4.1621,-4.1313,-4.1313,-4.1155,-4.088,-4.0601,-4.0473,-4.0463,-4.0348,-3.9998,-3.9563,-4.0186,-3.971,-3.8673,-3.832,-3.8614,-3.8918,-3.6865,-3.591,-3.5667,-3.5941,-3.5989,-3.6028,-3.6291,-3.6788,-3.7194,-3.7148,-3.7313,-3.734,-3.6769,-3.6618,-3.6449,-3.5751,-3.56,-3.56,-3.56,-3.56,-3.56,-3.56,-3.56,-3.56,-3.56,-3.596,-3.6096,-3.5667,-3.5977,-3.6096,-3.565,-3.56,-3.56,-3.56,-3.56,-3.5447,-3.5131,-3.4771,-3.4404,-3.3931,-3.4957,-3.56,-3.56,-3.4895,-3.4844,-3.5583,-3.4878,-3.4861,-3.56,-3.4472,-3.432,-3.5081,-3.3931,-3.3609,-4.4153,-4.4473,-4.5027,-4.447,-4.6197,-4.7909,-4.7455,-4.5846,0.0,0.0,0.0,0.0,-4.3654,-4.5382,-4.7597,-5.005,-4.9779,-4.9526,-5.0253,-4.939,-4.9035,-4.9982,-4.8951,-4.8325,-4.8714,-4.7936,-4.6938,-4.5788,-4.5213,-4.413,-4.2388,-4.1965,-4.128,-4.0146,-4.0096,-4.0096,-4.0096,-4.0096,-4.0096,-4.0096,-4.0984,-4.1173,-4.0709,-4.0709,-4.0709,-4.0703,-4.0286,-4.0011,-3.9816,-3.9671,-3.89,-3.7888,-3.8772,-3.8099,-3.6634,-3.6525,-3.7228,-3.7998,-3.622,-3.56,-3.5706,-3.6298,-3.6285,-3.6144,-3.6753,-3.7453,-3.7982,-3.7591,-3.7142,-3.6795,-3.6795,-3.666,-3.6349,-3.5735,-3.56,-3.56,-3.56,-3.56,-3.565,-3.5836,-3.5718,-3.565,-3.5859,-3.6383,-3.6586,-3.5977,-3.6552,-3.6755,-3.5994,-3.5893,-3.5825,-3.5616,-3.56,-3.5532,-3.5346,-3.5498,-3.5042,-3.3744,-3.4873,-3.56,-3.56,-3.4895,-3.4844,-3.5583,-3.4878,-3.4861,-3.56,-3.4467,-3.4484,-3.5566,-3.4433,-3.4218,-4.3312,-4.4021,-4.4839,-4.3761,-4.3162,-4.3488,-4.6011,-4.4454,0.0,-4.4785,0.0,-4.4501,-4.4513,-4.5783,-4.709,-4.7973,-4.9204,-5.027,-5.1031,-5.1016,-5.076,-5.0152,-4.9407,-4.868,-4.8024,-4.6701,-4.5821,-4.572,-4.3741,-4.2455,-4.2303,-4.101,-4.0214,-4.0096,-4.0096,-4.0096,-4.0096,-4.0096,-4.0096,-4.0096,-4.0179,-4.0196,-4.0171,-4.0171,-4.0171,-4.0171,-4.0121,-3.9723,-3.9097,-3.9054,-3.847,-3.7543,-3.7611,-3.7563,-3.737,-3.6928,-3.6847,-3.6814,-3.591,-3.56,-3.574,-3.6536,-3.7045,-3.7508,-3.8226,-3.8498,-3.8679,-3.9312,-3.8191,-3.6795,-3.6795,-3.6248,-3.5667,-3.5616,-3.56,-3.56,-3.56,-3.56,-3.5802,-3.6575,-3.6113,-3.5836,-3.6592,-3.6761,-3.6778,-3.6728,-3.7347,-3.755,-3.6812,-3.6711,-3.6417,-3.5667,-3.56,-3.5312,-3.4641,-3.5216,-3.5245,-3.4472,-3.5165,-3.56,-3.56,-3.4895,-3.4844,-3.5583,-3.4878,-3.4861,-3.56,-3.5481,-3.5498,-3.56,-3.5481,-3.5464,-4.299,-4.392,-4.4812,-4.3595,-4.3121,0.0,0.0,-4.5162,-4.4518,-4.4835,-4.5122,-4.528,-4.528,-4.6853,-4.8257,-4.8545,-4.983,-5.0574,-4.9932,-4.9847,-4.939,-4.8173,-4.78,-4.7344,-4.6616,-4.6041,-4.5314,-4.435,-4.3487,-4.2591,-4.166,-4.1085,-4.0561,-4.0113,-4.0096,-4.0096,-4.0096,-4.0096,-3.9876,-3.9436,-3.9893,-4.0096,-4.0079,-3.9639,-3.9436,-3.9402,-3.892,-3.8565,-3.8278,-3.7804,-3.7403,-3.7012,-3.6495,-3.662,-3.699,-3.6305,-3.6366,-3.6694,-3.5893,-3.5943,-3.64,-3.6711,-3.7239,-3.7792,-3.8082,-3.8474,-3.8901,-3.9191,-3.8734,-3.8159,-3.8159,-3.7246,-3.6349,-3.6349,-3.6705,-3.6907,-3.6451,-3.6349,-3.6569,-3.733,-3.6874,-3.6586,-3.7347,-3.7855,-3.8007,-3.755,-3.7719,-3.7635,-3.6897,-3.6349,-3.6129,-3.6315,-3.6349,-3.6028,-3.525,-3.543,-3.5481,-3.5194,-3.5447,-3.56,-3.56,-3.4895,-3.4844,-3.5583,-3.4878,-3.4861,-3.56,-3.5148,-3.5165,-3.5583,-3.5131,-3.5165,-4.3207,-4.3739,-4.426,-4.344,0.0,0.0,-4.5314,-4.5517,-4.5466,-4.5889,-4.5838,-4.5771,-4.6007,-4.6904,-4.7682,-4.7919,-4.9001,-4.9458,-4.8443,-4.8308,-4.7936,-4.6904,-4.638,-4.5991,-4.5737,-4.506,-4.4299,-4.3443,-4.2953,-4.2243,-4.1255,-4.0984,-4.0612,-4.013,-4.0096,-3.9994,-3.9757,-3.9757,-3.9377,-3.865,-3.9157,-3.9419,-3.9402,-3.887,-3.865,-3.8616,-3.8125,-3.777,-3.7499,-3.7015,-3.666,-3.6366,-3.5802,-3.6096,-3.6711,-3.591,-3.6265,-3.6992,-3.5955,-3.6282,-3.7094,-3.688,-3.7297,-3.7939,-3.8176,-3.8447,-3.8751,-3.9208,-3.9005,-3.8751,-3.9249,-3.8082,-3.6795,-3.6795,-3.7178,-3.7483,-3.7195,-3.7168,-3.7364,-3.8108,-3.7652,-3.7364,-3.8125,-3.8667,-3.8819,-3.8328,-3.8447,-3.8328,-3.7608,-3.7009,-3.6705,-3.6795,-3.6795,-3.6468,-3.5667,-3.5819,-3.5853,-3.5616,-3.5836,-3.5853,-3.5616,-3.5131,-3.5081,-3.5583,-3.5115,-3.5115,-3.56,-3.5098,-3.5115,-3.5583,-3.5081,-3.5131,-4.4042,-4.3468,-4.3068,-4.3252,0.0,0.0,-4.5196,-4.5128,-4.5461,-4.8376,-4.7242,-4.594,-4.665,-4.5585,-4.484,-4.5539,-4.6283,-4.6786,-4.6786,-4.6769,-4.6769,-4.6769,-4.5449,-4.484,-4.5602,-4.3623,-4.2591,-4.3308,-4.2033,-4.1204,-4.1187,-4.0476,-4.0096,-4.0096,-4.0096,-3.974,-3.9005,-3.8988,-3.8616,-3.7889,-3.7889,-3.7905,-3.7905,-3.7905,-3.7889,-3.7889,-3.7889,-3.7449,-3.6795,-3.6795,-3.6315,-3.56,-3.56,-3.6096,-3.6694,-3.5887,-3.6563,-3.7669,-3.6124,-3.6597,-3.777,-3.7049,-3.7297,-3.8041,-3.8768,-3.8481,-3.821,-3.9673,-3.9022,-3.8261,-3.9706,-3.8471,-3.6829,-3.6812,-3.6829,-3.7032,-3.7736,-3.7922,-3.8125,-3.887,-3.8413,-3.8142,-3.887,-3.9005,-3.9005,-3.9005,-3.9639,-3.9825,-3.9073,-3.8988,-3.843,-3.6965,-3.6812,-3.6468,-3.5667,-3.6332,-3.6451,-3.565,-3.6349,-3.6434,-3.5633,-3.56,-3.56,-3.56,-3.56,-3.56,-3.56,-3.56,-3.56,-3.56,-3.56,-3.56,-4.3815,-4.3654,-4.3716,-4.3763,-4.3854,0.0,0.0,-4.5906,0.0,0.0,-4.7293,-4.638,-4.6075,-4.5596,-4.4956,-4.4145,-4.4547,-4.4788,-4.4266,-4.3792,-4.3286,-4.2766,-4.2439,-4.2292,-4.2508,-4.2387,-4.2168,-4.1897,-4.1457,-4.0967,-4.0443,-3.9715,-3.9571,-4.0079,-3.9089,-3.87,-3.8988,-3.8481,-3.7855,-3.7134,-3.7134,-3.7398,-3.7889,-3.7347,-3.7134,-3.7077,-3.6535,-3.6157,-3.596,-3.596,-3.5802,-3.56,-3.56,-3.5735,-3.5943,-3.5684,-3.5887,-3.6208,-3.5752,-3.6282,-3.71,-3.688,-3.7297,-3.7939,-3.8159,-3.8075,-3.799,-3.843,-3.8616,-3.865,-3.8565,-3.8447,-3.821,-3.7702,-3.7973,-3.8261,-3.7973,-3.8311,-3.8886,-3.9639,-3.9174,-3.8903,-3.9656,-3.9774,-3.9774,-3.9774,-3.9537,-3.9056,-3.8328,-3.8667,-3.843,-3.6965,-3.7263,-3.7043,-3.5701,-3.6332,-3.6451,-3.565,-3.6349,-3.6434,-3.5633,-3.56,-3.56,-3.56,-3.56,-3.56,-3.56,-3.56,-3.56,-3.56,-3.56,-3.591,-4.4488,-4.4458,-4.4587,-4.5257,-4.5422,-4.5629,-4.6603,-4.6904,-4.7085,-4.7337,-4.6555,-4.5611,-4.4812,-4.4105,-4.3468,-4.2867,-4.2863,-4.2783,-4.2318,-4.1677,-4.1098,-4.0666,-4.0429,-4.0397,-4.0674,-4.0868,-4.091,-4.0776,-4.0744,-4.0561,-4.013,-3.9394,-3.9351,-4.0079,-3.8667,-3.8125,-3.8565,-3.7838,-3.7077,-3.6315,-3.6315,-3.6569,-3.6975,-3.6535,-3.6315,-3.6299,-3.5802,-3.56,-3.56,-3.56,-3.56,-3.56,-3.56,-3.56,-3.56,-3.56,-3.5785,-3.6045,-3.5701,-3.6332,-3.7127,-3.6518,-3.684,-3.7449,-3.7449,-3.7246,-3.7104,-3.7736,-3.8007,-3.8142,-3.8294,-3.8447,-3.8514,-3.8379,-3.8667,-3.8954,-3.8802,-3.9106,-3.9571,-4.0011,-3.974,-3.9588,-4.0028,-4.0096,-4.0096,-4.0096,-3.9723,-3.9276,-3.8819,-3.8903,-3.8548,-3.7347,-3.7364,-3.7094,-3.6163,-3.6789,-3.7026,-3.6529,-3.7229,-3.733,-3.6546,-3.5921,-3.5752,-3.6079,-3.5752,-3.56,-3.56,-3.56,-3.56,-3.56,-3.56,-3.5853,-4.559,-4.5455,-4.5516,-4.724,-4.7226,-4.6803,-4.6792,-4.7834,-4.8346,-4.6742,-4.5395,-4.4176,-4.317,-4.1837,-4.1071,-4.163,-4.1103,-4.0657,-4.0657,-4.0098,-3.9666,-3.9666,-3.909,-3.8944,-3.9644,-3.9219,-3.9188,-3.9935,-4.0065,-4.0079,-4.0011,-3.9317,-3.9191,-3.9893,-3.8464,-3.7736,-3.7804,-3.706,-3.6315,-3.56,-3.56,-3.56,-3.56,-3.56,-3.56,-3.56,-3.5515,-3.5498,-3.5498,-3.5498,-3.5498,-3.5498,-3.5566,-3.56,-3.56,-3.56,-3.6062,-3.6592,-3.5836,-3.6512,-3.7466,-3.6056,-3.6096,-3.6694,-3.6694,-3.618,-3.5887,-3.7313,-3.7263,-3.7117,-3.8447,-3.8345,-3.8075,-3.8734,-3.8903,-3.9089,-3.9842,-4.0011,-4.0028,-4.0096,-4.0096,-4.0096,-4.0096,-4.0096,-4.0096,-4.0096,-4.0096,-4.0096,-4.0096,-3.952,-3.8819,-3.8091,-3.7398,-3.6981,-3.6914,-3.7584,-3.7973,-3.7905,-3.8582,-3.87,-3.8041,-3.6512,-3.6062,-3.6795,-3.6011,-3.56,-3.56,-3.5667,-3.5667,-3.56,-3.5667,-3.5701,-4.4911,-4.5036,-4.5619,-4.7783,-4.837,-4.8107,-4.7058,-4.7039,-4.6814,-4.5204,-4.5082,-4.4665,-4.2687,-4.1496,-4.0499,-3.956,-3.8723,-3.8181,-3.8181,-3.7633,-3.7255,-3.7255,-3.7141,-3.7154,-3.7326,-3.8278,-3.8974,-3.9139,-3.972,-3.9859,-3.9259,-3.8531,-3.821,-3.8379,-3.6884,-3.64,-3.7032,-3.6248,-3.5769,-3.56,-3.56,-3.56,-3.56,-3.56,-3.56,-3.5566,-3.4996,-3.4742,-3.4742,-3.4742,-3.4742,-3.4793,-3.5363,-3.56,-3.56,-3.56,-3.5701,-3.5819,-3.565,-3.5819,-3.6039,-3.5701,-3.5718,-3.5853,-3.5853,-3.5735,-3.5667,-3.6005,-3.6434,-3.688,-3.7202,-3.7584,-3.7939,-3.8108,-3.8142,-3.8345,-3.9073,-3.9225,-3.9419,-3.9994,-4.0096,-4.0096,-4.0096,-4.0096,-4.0096,-4.0096,-4.0096,-4.0096,-4.0096,-3.996,-3.9588,-3.8836,-3.8616,-3.8278,-3.7719,-3.8345,-3.8514,-3.7939,-3.8582,-3.892,-3.8768,-3.7313,-3.6626,-3.6795,-3.6011,-3.56,-3.56,-3.6231,-3.6214,-3.5616,-3.6248,-3.6535,-4.4617,-4.5077,-4.6068,-4.8471,-4.8983,-4.8616,-4.7517,-4.6771,-4.582,-4.4214,-4.4145,-4.3654,-4.1372,-4.0246,-3.931,-3.8254,-3.7439,-3.6971,-3.6971,-3.6417,-3.6013,-3.6013,-3.6042,-3.6086,-3.6086,-3.7114,-3.7975,-3.833,-3.9102,-3.9537,-3.9529,-3.8481,-3.8075,-3.8413,-3.6603,-3.5994,-3.6795,-3.6011,-3.56,-3.56,-3.56,-3.56,-3.56,-3.56,-3.56,-3.5549,-3.481,-3.4489,-3.4472,-3.4117,-3.4184,-3.4523,-3.4928,-3.5301,-3.56,-3.56,-3.56,-3.56,-3.56,-3.56,-3.56,-3.56,-3.56,-3.56,-3.56,-3.56,-3.56,-3.56,-3.591,-3.6315,-3.6711,-3.7347,-3.7905,-3.7905,-3.7905,-3.8108,-3.8836,-3.8988,-3.9208,-3.996,-4.0096,-4.0096,-4.0096,-4.0096,-4.0096,-4.0096,-4.0096,-4.0096,-4.0096,-3.9791,-3.9436,-3.9039,-3.8684,-3.8464,-3.843,-3.8768,-3.8988,-3.8954,-3.9292,-3.9537,-3.9537,-3.8454,-3.7862,-3.7862,-3.7094,-3.6698,-3.6698,-3.7127,-3.711,-3.6698,-3.7127,-3.733,-4.4488,-4.5498,-4.6798,-4.8793,-4.9075,-4.859,-4.7619,-4.6488,-4.5252,-4.3813,-4.3304,-4.2413,-3.9961,-3.8925,-3.8166,-3.7229,-3.6641,-3.6312,-3.6312,-3.5848,-3.5504,-3.5504,-3.5504,-3.5504,-3.5504,-3.6165,-3.6934,-3.7719,-3.8469,-3.9146,-3.969,-3.8565,-3.8058,-3.8396,-3.6563,-3.5926,-3.6592,-3.5943,-3.56,-3.56,-3.56,-3.5532,-3.5397,-3.5397,-3.5397,-3.5346,-3.4489,-3.4117,-3.4066,-3.3592,-3.3761,-3.4336,-3.459,-3.5064,-3.56,-3.56,-3.56,-3.56,-3.56,-3.56,-3.56,-3.56,-3.56,-3.56,-3.56,-3.56,-3.56,-3.56,-3.56,-3.5752,-3.6417,-3.7144,-3.7719,-3.7719,-3.7821,-3.8108,-3.8836,-3.8903,-3.9056,-3.9943,-4.0096,-4.0096,-4.0096,-4.0096,-4.0096,-4.0096,-4.0096,-4.0096,-4.0096,-3.9571,-3.9174,-3.9174,-3.8633,-3.8531,-3.914,-3.9174,-3.9445,-4.0062,-4.0096,-4.0096,-4.0096,-3.952,-3.9123,-3.8988,-3.8278,-3.7905,-3.7905,-3.8041,-3.8024,-3.7905,-3.8041,-3.8024,-4.4488,0.0,-4.7932,-4.7751,-4.8177,-4.8127,-4.6245,-4.5658,-4.5325,-4.4581,-4.3822,-4.2353,-3.9389,-3.8735,-3.8008,-3.6069,-3.5684,-3.5639,-3.5639,-3.5564,-3.5504,-3.5504,-3.5504,-3.5504,-3.5504,-3.6165,-3.6934,-3.7719,-3.8469,-3.8688,-3.8212,-3.8024,-3.7324,-3.609,-3.5752,-3.565,-3.5752,-3.565,-3.56,-3.56,-3.56,-3.5261,-3.4641,-3.4641,-3.4641,-3.4573,-3.319,-3.2598,-3.2649,-3.3169,-3.3457,-3.3677,-3.494,-3.5498,-3.56,-3.56,-3.56,-3.56,-3.56,-3.56,-3.56,-3.56,-3.56,-3.56,-3.56,-3.56,-3.56,-3.56,-3.56,-3.5616,-3.5718,-3.6349,-3.6948,-3.6948,-3.7432,-3.8108,-3.8836,-3.8497,-3.8447,-3.9842,-4.0096,-4.0096,-4.0096,-4.0096,-4.0096,-4.0096,-4.0096,-4.0096,-4.0096,-4.0011,-3.996,-3.996,-3.9859,-3.9859,-3.9943,-3.996,-3.9994,-4.0096,-4.0096,-4.0096,-4.0096,-4.0011,-3.9656,-3.9005,-3.8278,-3.7905,-3.7905,-3.8531,-3.8514,-3.7922,-3.8565,-3.8514,-4.4488,-4.581,-4.7112,-4.7738,-4.7907,-4.7687,-4.6776,-4.6264,-4.5588,-4.4122,-4.3873,-4.3015,-3.9968,-3.8701,-3.7538,-3.5769,-3.5504,-3.5504,-3.5504,-3.5504,-3.5504,-3.5504,-3.5504,-3.5504,-3.5504,-3.5782,-3.629,-3.707,-3.7847,-3.8139,-3.7877,-3.7874,-3.7398,-3.6315,-3.5836,-3.56,-3.56,-3.56,-3.56,-3.5583,-3.4754,-3.4421,-3.4455,-3.3203,-3.3102,-3.3829,-3.2767,-3.2293,-3.2293,-3.2188,-3.2662,-3.3474,-3.4095,-3.4873,-3.56,-3.56,-3.56,-3.56,-3.56,-3.56,-3.56,-3.56,-3.56,-3.56,-3.56,-3.56,-3.56,-3.56,-3.56,-3.5701,-3.6163,-3.684,-3.7415,-3.7415,-3.7973,-3.8599,-3.892,-3.8751,-3.8819,-3.9893,-4.0096,-4.0096,-4.0096,-4.0096,-4.0096,-4.0096,-4.0096,-4.0096,-4.0096,-4.0096,-4.0096,-4.0096,-4.0096,-4.0096,-4.0096,-4.0096,-4.0096,-4.0096,-4.0096,-4.0096,-4.0096,-4.0096,-3.996,-3.9622,-3.9317,-3.892,-3.8514,-3.9242,-3.9445,-3.914,-3.9486,-3.9453,-4.4232,0.0,-4.5883,-4.7095,-4.7209,-4.6995,-4.6832,-4.6408,-4.5533,-4.3766,-4.3617,-4.3074,-4.0672,-3.8953,-3.7452,-3.6001,-3.5619,-3.5504,-3.5504,-3.5504,-3.5504,-3.5504,-3.5504,-3.5504,-3.5504,-3.5504,-3.5814,-3.6554,-3.7338,-3.7733,-3.7544,-3.7752,-3.7466,-3.6518,-3.5904,-3.56,-3.56,-3.5397,-3.5312,-3.5295,-3.4032,-3.3694,-3.4167,-3.251,-3.2357,-3.3355,-3.2408,-3.2226,-3.2547,-3.1985,-3.251,-3.3694,-3.3897,-3.4619,-3.56,-3.56,-3.56,-3.56,-3.56,-3.56,-3.56,-3.56,-3.56,-3.56,-3.56,-3.56,-3.56,-3.56,-3.5735,-3.6045,-3.6643,-3.7483,-3.8176,-3.8176,-3.8734,-3.9249,-3.9039,-3.914,-3.9453,-3.9994,-4.0096,-4.0096,-4.0096,-4.0096,-4.0096,-4.0096,-4.0096,-4.0096,-4.0096,-4.0096,-4.0096,-4.0096,-4.0096,-4.0096,-4.0096,-4.0096,-4.0096,-4.0096,-4.0096,-4.0096,-4.0096,-4.0096,-4.0011,-3.9825,-4.0011,-3.9842,-3.9276,-3.9842,-4.0096,-4.0096,-4.0096,-4.0096,-4.3551,-4.4158,0.0,-4.4856,-4.5443,-4.5827,-4.5267,-4.5106,-4.4866,-4.4107,-4.3028,-4.1943,-4.101,-3.9745,-3.8338,-3.6785,-3.5943,-3.5504,-3.5504,-3.5504,-3.5504,-3.5504,-3.5504,-3.5504,-3.5504,-3.5504,-3.5814,-3.6554,-3.7338,-3.748,-3.6779,-3.7467,-3.7229,-3.5701,-3.5616,-3.56,-3.56,-3.4912,-3.4556,-3.4539,-3.3778,-3.3423,-3.3457,-3.3339,-3.3339,-3.3322,-3.1884,-3.2053,-3.3339,-3.3305,-3.3744,-3.4506,-3.5194,-3.5532,-3.56,-3.56,-3.56,-3.56,-3.56,-3.56,-3.56,-3.56,-3.56,-3.56,-3.56,-3.56,-3.56,-3.56,-3.6146,-3.6745,-3.6795,-3.7879,-3.8937,-3.8937,-3.952,-3.9859,-3.914,-3.9554,-4.0045,-4.0096,-4.0096,-4.0096,-4.0096,-4.0096,-4.0096,-4.0096,-4.0096,-4.0096,-4.0096,-4.0096,-4.0096,-4.0096,-4.0096,-4.0096,-4.0096,-4.0096,-4.0096,-4.0096,-4.0096,-4.0096,-4.0096,-4.0096,-3.9774,-3.9056,-3.9757,-4.0079,-4.0045,-4.0079,-4.0096,-4.0096,-4.0096,-4.0096,-4.3515,0.0,0.0,-4.4563,-4.4929,-4.5077,-4.4857,-4.5203,-4.5124,-4.3501,-4.2906,-4.2316,-4.1123,-3.9809,-3.8407,-3.6844,-3.6384,-3.6023,-3.5569,-3.5504,-3.5504,-3.5504,-3.5504,-3.5504,-3.5504,-3.5504,-3.5619,-3.5863,-3.7086,-3.7283,-3.6061,-3.7211,-3.7172,-3.565,-3.56,-3.56,-3.56,-3.4861,-3.4489,-3.4472,-3.3254,-3.2933,-3.3389,-3.2899,-3.3203,-3.4049,-3.3051,-3.2916,-3.3406,-3.3406,-3.3829,-3.4523,-3.4793,-3.5182,-3.56,-3.56,-3.56,-3.56,-3.56,-3.56,-3.56,-3.56,-3.56,-3.5701,-3.6214,-3.6366,-3.6468,-3.6941,-3.728,-3.7618,-3.8075,-3.8599,-3.9106,-3.9605,-3.991,-4.0028,-3.9774,-3.991,-4.0096,-4.0096,-4.0096,-4.0096,-4.0096,-4.0096,-4.0096,-4.0096,-4.0096,-4.0096,-4.0096,-4.0096,-4.0096,-4.0096,-4.0096,-4.0096,-4.0096,-4.0096,-4.0096,-4.0096,-4.0096,-4.0096,-4.0096,-4.0096,-3.9977,-3.9723,-3.9977,-3.9876,-3.9394,-3.9876,-4.0096,-4.0096,-4.0096,-4.0096,-4.3515,0.0,0.0,-4.4158,-4.4305,-4.4305,-4.4305,-4.4709,-4.4674,-4.325,-4.2935,-4.2541,-4.1401,-4.0322,-3.9083,-3.7597,-3.6934,-3.6446,-3.5943,-3.5651,-3.5504,-3.5504,-3.5504,-3.5504,-3.5504,-3.5504,-3.5504,-3.5504,-3.692,-3.7281,-3.6015,-3.7194,-3.7172,-3.565,-3.56,-3.5481,-3.5228,-3.4506,-3.3998,-3.3766,-3.2767,-3.2679,-3.3389,-3.3136,-3.3694,-3.4844,-3.4353,-3.4129,-3.4134,-3.388,-3.4201,-3.4861,-3.4861,-3.5182,-3.56,-3.56,-3.56,-3.56,-3.56,-3.56,-3.56,-3.56,-3.5769,-3.6096,-3.6643,-3.6981,-3.7263,-3.777,-3.8091,-3.8379,-3.887,-3.9174,-3.9503,-3.9994,-4.0096,-4.0096,-4.0096,-4.0096,-4.0096,-4.0096,-4.0096,-4.0096,-4.0096,-4.0096,-4.0096,-4.0096,-4.0096,-4.0096,-4.0096,-4.0096,-4.0096,-4.0096,-4.0096,-4.0096,-4.0096,-4.0096,-4.0096,-4.0096,-4.0096,-4.0096,-4.0096,-4.0096,-4.0096,-4.0096,-4.0096,-3.9859,-3.9385,-3.9859,-4.0096,-4.0096,-4.0096,-4.0096,0.0,0.0,0.0,-4.3515,-4.3515,-4.3515,-4.3515,-4.3515,-4.3515,-4.3515,-4.3069,-4.2519,-4.1937,-4.1335,-4.0484,-3.9159,-3.7671,-3.6661,-3.6646,-3.6006,-3.5537,-3.5537,-3.5504,-3.5504,-3.5504,-3.5504,-3.5504,-3.5504,-3.692,-3.7444,-3.6725,-3.7451,-3.7155,-3.565,-3.56,-3.5267,-3.4539,-3.3795,-3.3068,-3.2361,-3.2344,-3.2713,-3.3457,-3.4167,-3.4912,-3.56,-3.56,-3.56,-3.5532,-3.4827,-3.4962,-3.56,-3.56,-3.56,-3.56,-3.56,-3.56,-3.56,-3.56,-3.56,-3.56,-3.5616,-3.6163,-3.6812,-3.6846,-3.7347,-3.7939,-3.7973,-3.8481,-3.9022,-3.9022,-3.9571,-4.0096,-4.0096,-4.0096,-4.0096,-4.0096,-4.0096,-4.0096,-4.0096,-4.0096,-4.0096,-4.0096,-4.0096,-4.0096,-4.0096,-4.0096,-4.0096,-4.0096,-4.0096,-4.0096,-4.0096,-4.0096,-4.0096,-4.0096,-4.0096,-4.0096,-4.0096,-4.0096,-4.0096,-4.0096,-4.0096,-4.0096,-4.0096,-4.0096,-4.0096,-4.0096,-4.0096,-4.0096,-4.0096,-4.0096,-4.0096,-4.3515,0.0,0.0,0.0,0.0,0.0,-4.3515,-4.3515,-4.3515,-4.3515,-4.3069,-4.2655,-4.248,-4.1599,-4.0786,-4.0412,-3.9163,-3.8088,-3.7528,-3.6798,-3.6306,-3.6306,-3.5799,-3.5504,-3.5504,-3.5504,-3.5504,-3.5504,-3.6384,-3.6875,-3.6697,-3.697,-3.6637,-3.5633,-3.56,-3.5498,-3.5295,-3.4556,-3.4083,-3.3863,-3.3355,-3.3474,-3.4201,-3.4404,-3.4912,-3.56,-3.56,-3.56,-3.5583,-3.538,-3.5414,-3.56,-3.56,-3.56,-3.56,-3.56,-3.56,-3.56,-3.56,-3.56,-3.5701,-3.6282,-3.6626,-3.6998,-3.8082,-3.8531,-3.8802,-3.9326,-3.9656,-3.9808,-3.9808,-3.996,-4.0096,-4.0096,-4.0096,-4.0096,-4.0096,-4.0096,-4.0096,-4.0096,-4.0096,-4.0096,-4.0096,-4.0096,-4.0096,-4.0096,-4.0096,-4.0096,-4.0096,-4.0096,-4.0096,-4.0096,-4.0096,-4.0096,-4.0096,-4.0096,-4.0096,-4.0096,-4.0096,-4.0096,-4.0096,-4.0096,-4.0096,-4.0096,-4.0096,-4.0096,-4.0096,-4.0096,-4.0096,-4.0096,-4.0096,-4.0096,0.0,0.0,0.0,-4.3515,0.0,0.0,-4.3515,-4.3515,-4.3515,-4.3515,-4.325,-4.2958,-4.275,-4.1916,-4.1183,-4.0949,-4.0052,-3.9113,-3.8374,-3.7306,-3.6615,-3.6615,-3.5943,-3.5504,-3.5504,-3.5504,-3.5504,-3.5504,-3.6492,-3.7128,-3.7212,-3.7234,-3.6755,-3.5633,-3.56,-3.5447,-3.5148,-3.4709,-3.4336,-3.4032,-3.3914,-3.4083,-3.4506,-3.481,-3.5199,-3.56,-3.56,-3.56,-3.56,-3.56,-3.56,-3.56,-3.56,-3.56,-3.56,-3.56,-3.56,-3.56,-3.56,-3.5802,-3.618,-3.666,-3.7218,-3.7895,-3.8734,-3.9208,-3.9554,-3.9977,-4.0096,-4.0096,-4.0096,-4.0096,-4.0096,-4.0096,-4.0096,-4.0096,-4.0096,-4.0096,-4.0096,-4.0096,-4.0096,-4.0096,-4.0096,-4.0096,-4.0096,-4.0096,-4.0096,-4.0096,-4.0096,-4.0096,-4.0096,-4.0096,-4.0096,-4.0096,-4.0096,-4.0096,-4.0096,-4.0096,-4.0096,-4.0096,-4.0096,-4.0096,-4.0096,-4.0096,-4.0096,-4.0096,-4.0096,-4.0096,-4.0096,-4.0096,-4.0096,-4.0096,0.0,0.0,0.0,-4.3515,-4.3515,0.0,-4.3515,-4.3515,-4.3515,-4.3515,-4.3515,-4.3357,-4.2883,-4.2284,-4.1686,-4.111,-4.0528,-3.9935,-3.9139,-3.7787,-3.6873,-3.6873,-3.6117,-3.5619,-3.5619,-3.5569,-3.5504,-3.5504,-3.692,-3.7806,-3.7767,-3.7843,-3.7246,-3.5769,-3.565,-3.5301,-3.4624,-3.4624,-3.4286,-3.366,-3.4303,-3.4624,-3.4641,-3.5295,-3.56,-3.56,-3.5498,-3.5515,-3.5583,-3.5498,-3.5515,-3.56,-3.56,-3.56,-3.56,-3.56,-3.565,-3.5718,-3.5633,-3.618,-3.6931,-3.6931,-3.7879,-3.9005,-3.9089,-3.9588,-4.0096,-4.0096,-4.0096,-4.0096,-4.0096,-4.0096,-4.0096,-4.0096,-4.0096,-4.0096,-4.0096,-4.0096,-4.0096,-4.0096,-4.0096,-4.0096,-4.0096,-4.0096,-4.0096,-4.0096,-4.0096,-4.0096,-4.0096,-4.0096,-4.0096,-4.0096,-4.0096,-4.0096,-4.0096,-4.0096,-4.0096,-4.0096,-4.0096,-4.0096,-4.0096,-4.0096,-4.0096,-4.0096,-4.0096,-4.0096,-4.0096,-4.0096,-4.0096,-4.0096,-4.0096,-4.0096,-4.3515,-4.3515,-4.3515,-4.3515,-4.3515,0.0,-4.3515,-4.3515,-4.3515,-4.3515,-4.3515,-4.348,-4.3356,-4.2884,-4.2322,-4.1707,-4.1133,-4.0535,-3.9961,-3.9059,-3.8453,-3.8453,-3.7217,-3.6384,-3.6384,-3.5831,-3.5504,-3.5504,-3.692,-3.7552,-3.6966,-3.7544,-3.7499,-3.6586,-3.5943,-3.5532,-3.538,-3.538,-3.5295,-3.516,-3.5312,-3.538,-3.538,-3.5532,-3.56,-3.5566,-3.4979,-3.5064,-3.5549,-3.4962,-3.5064,-3.56,-3.56,-3.56,-3.56,-3.56,-3.6011,-3.6468,-3.5802,-3.6535,-3.7686,-3.7686,-3.8278,-3.9106,-3.9706,-3.9994,-4.0096,-4.0096,-4.0096,-4.0096,-4.0096,-4.0096,-4.0096,-4.0096,-4.0096,-4.0096,-4.0096,-4.0096,-4.0096,-4.0096,-4.0096,-4.0096,-4.0096,-4.0096,-4.0096,-4.0096,-4.0096,-4.0096,-4.0096,-4.0096,-4.0096,-4.0096,-4.0096,-4.0096,-4.0096,-4.0096,-4.0096,-4.0096,-4.0096,-4.0096,-4.0096,-4.0096,-4.0096,-4.0096,-4.0096,-4.0096,-4.0096,-4.0096,-4.0096,-4.0096,-4.0096,-4.0096,-4.3515,-4.3515,-4.3515,-4.3515,-4.3515,0.0,0.0,-4.3515,-4.3515,-4.3515,-4.3167,-4.302,-4.3441,-4.2705,-4.2092,-4.223,-4.149,-4.0803,-4.0546,-3.9569,-3.8908,-3.8908,-3.7889,-3.7024,-3.6646,-3.629,-3.6212,-3.6631,-3.7354,-3.7814,-3.785,-3.8229,-3.7939,-3.6829,-3.64,-3.6011,-3.56,-3.56,-3.56,-3.56,-3.56,-3.56,-3.56,-3.56,-3.56,-3.5583,-3.5216,-3.5267,-3.5566,-3.5194,-3.5261,-3.56,-3.56,-3.56,-3.56,-3.56,-3.5853,-3.6197,-3.6197,-3.6958,-3.7973,-3.8328,-3.8937,-3.9622,-3.9994,-4.0096,-4.0096,-4.0096,-4.0096,-4.0096,-4.0096,-4.0096,-4.0096,-4.0096,-4.0096,-4.0096,-4.0096,-4.0096,-4.0096,-4.0096,-4.0096,-4.0096,-4.0096,-4.0096,-4.0096,-4.0096,-4.0096,-4.0096,-4.0096,-4.0096,-4.0096,-4.0096,-4.0096,-4.0096,-4.0096,-4.0096,-4.0096,-4.0096,-4.0096,-4.0096,-4.0096,-4.0096,-4.0096,-4.0096,-4.0096,-4.0282,-4.0646,-4.0282,-4.0096,-4.0096,-4.0096,-4.0096,-4.3515,-4.3515,-4.3515,-4.3515,-4.3515,-4.3515,0.0,0.0,0.0,-4.3515,-4.2983,-4.2671,-4.3167,-4.2486,-4.1958,-4.2368,-4.1683,-4.1087,-4.1087,-4.0051,-3.9289,-3.9338,-3.8567,-3.7825,-3.7317,-3.7012,-3.7084,-3.7764,-3.7921,-3.8297,-3.8959,-3.8982,-3.8447,-3.7269,-3.6948,-3.6508,-3.5836,-3.5667,-3.56,-3.56,-3.56,-3.56,-3.56,-3.56,-3.56,-3.5583,-3.5447,-3.5464,-3.5583,-3.5447,-3.5464,-3.56,-3.56,-3.56,-3.56,-3.56,-3.5785,-3.6129,-3.6603,-3.7466,-3.8396,-3.8853,-3.9503,-4.0096,-4.0096,-4.0096,-4.0096,-4.0096,-4.0096,-4.0096,-4.0096,-4.0096,-4.0096,-4.0096,-4.0096,-4.0096,-4.0096,-4.0096,-4.0096,-4.0096,-4.0096,-4.0096,-4.0096,-4.0096,-4.0096,-4.0096,-4.0096,-4.0096,-4.0096,-4.0096,-4.0096,-4.0096,-4.0096,-4.0096,-4.0096,-4.0096,-4.0096,-4.0096,-4.0096,-4.0096,-4.0096,-4.0248,-4.0316,-4.0316,-4.0451,-4.073,-4.1204,-4.0595,-4.0316,-4.0316,-4.018,-4.0096,-4.3515,-4.3515,-4.3515,-4.3515,-4.3515,-4.3515,-4.3515,0.0,-4.3515,-4.3515,0.0,-4.3167,-4.2543,0.0,0.0,-4.1721,-4.1622,-4.1686,-4.1686,-4.1115,-4.0751,-4.0915,-3.9661,-3.9035,-3.9635,-3.8463,-3.769,-3.7777,-3.8414,-3.8821,-3.8917,-3.8967,-3.8903,-3.8751,-3.7489,-3.6761,-3.666,-3.596,-3.56,-3.56,-3.56,-3.56,-3.56,-3.56,-3.56,-3.5566,-3.4912,-3.5013,-3.5549,-3.4895,-3.5013,-3.56,-3.56,-3.56,-3.56,-3.56,-3.6462,-3.7567,-3.7015,-3.8149,-3.9757,-3.9174,-3.9503,-4.0096,-4.0096,-4.0096,-4.0096,-4.0096,-4.0096,-4.0096,-4.0096,-4.0096,-4.0096,-4.0096,-4.0096,-4.0096,-4.0096,-4.0096,-4.0096,-4.0096,-4.0096,-4.0096,-4.0096,-4.0096,-4.0096,-4.0096,-4.0096,-4.0096,-4.0096,-4.0096,-4.0096,-4.0096,-4.0096,-4.0096,-4.0096,-4.0096,-4.0096,-4.0096,-4.0096,-4.0096,-4.0096,-4.073,-4.1085,-4.1085,-4.1711,-4.1762,-4.1204,-4.1119,-4.1085,-4.1068,-4.0417,-4.0096,-4.341,-4.3515,-4.3515,-4.3515,-4.3515,-4.3515,-4.3515,-4.3515,-4.3515,-4.3515,0.0,0.0,0.0,0.0,0.0,0.0,-4.246,-4.2322,-4.2322,-4.1793,-4.1323,-4.1054,-4.0446,-3.9885,-3.9462,-3.844,-3.7978,-3.8414,-3.8718,-3.9113,-3.9584,-3.9615,-3.9453,-3.9005,-3.8396,-3.7675,-3.6812,-3.6451,-3.6062,-3.56,-3.56,-3.56,-3.56,-3.56,-3.56,-3.5583,-3.5261,-3.5295,-3.5566,-3.5261,-3.5312,-3.56,-3.56,-3.5893,-3.6299,-3.6299,-3.6975,-3.7922,-3.8024,-3.8691,-3.9486,-3.9605,-3.9859,-4.0096,-4.0096,-4.0096,-4.0096,-4.0096,-4.0096,-4.0096,-4.0096,-4.0096,-4.0096,-4.0096,-4.0096,-4.0096,-4.0096,-4.0096,-4.0096,-4.0096,-4.0096,-4.0096,-4.0096,-4.0096,-4.0096,-4.0096,-4.0096,-4.0096,-4.0096,-4.0096,-4.0096,-4.0096,-4.0096,-4.0096,-4.0096,-4.0096,-4.0096,-4.0096,-4.0096,-4.0299,-4.0713,-4.1035,-4.1407,-4.183,-4.2134,-4.2354,-4.2489,-4.2049,-4.183,-4.1813,-4.0654,-4.0096,-4.2922,-4.316,-4.3268,-4.3268,-4.3392,-4.3515,-4.3515,-4.3515,-4.3515,-4.3515,-4.3039,0.0,0.0,0.0,-4.2745,-4.3112,0.0,-4.275,-4.2902,-4.2422,-4.1839,-4.1308,-4.1084,-4.0521,-3.9342,-3.8734,-3.8652,-3.9183,-3.9236,-3.9489,-4.007,-4.0096,-3.9859,-3.9334,-3.9106,-3.8481,-3.7422,-3.6998,-3.6524,-3.5943,-3.5701,-3.56,-3.56,-3.56,-3.56,-3.56,-3.56,-3.56,-3.56,-3.56,-3.56,-3.56,-3.56,-3.6231,-3.7083,-3.688,-3.7381,-3.8278,-3.8802,-3.9123,-3.9402,-3.9943,-4.0096,-4.0096,-4.0096,-4.0096,-4.0096,-4.0096,-4.0096,-4.0096,-4.0096,-4.0096,-4.0096,-4.0096,-4.0096,-4.0096,-4.0096,-4.0096,-4.0096,-4.0096,-4.0096,-4.0096,-4.0096,-4.0096,-4.0096,-4.0096,-4.0096,-4.0096,-4.0096,-4.0096,-4.0096,-4.0096,-4.0096,-4.018,-4.0383,-4.0417,-4.0502,-4.0705,-4.0705,-4.0933,-4.1474,-4.1711,-4.2049,-4.2591,-4.2811,-4.3081,-4.3392,-4.2861,-4.2489,-4.2252,-4.1213,-4.0603,-4.1853,-4.2282,-4.2731,-4.2731,-4.3124,-4.3515,-4.3515,-4.3515,-4.3515,-4.3515,-4.3478,-4.3222,-4.2488,-4.2947,-4.3222,-4.2451,-4.2541,0.0,0.0,-4.3014,-4.2524,-4.2113,-4.1544,-4.0891,-4.0138,-4.0045,-4.0045,-4.0045,-4.007,-4.007,-4.0096,-4.0096,-4.0096,-4.0079,-3.9385,-3.8971,-3.892,-3.7523,-3.6795,-3.6761,-3.5977,-3.56,-3.56,-3.56,-3.56,-3.56,-3.56,-3.56,-3.56,-3.56,-3.56,-3.56,-3.56,-3.6512,-3.7787,-3.7043,-3.7726,-3.8954,-3.8988,-3.9486,-4.0079,-4.0096,-4.0096,-4.0096,-4.0096,-4.0096,-4.0096,-4.0096,-4.0096,-4.0096,-4.0096,-4.0096,-4.0096,-4.0096,-4.0096,-4.0096,-4.0096,-4.0096,-4.0096,-4.0096,-4.0096,-4.0096,-4.0096,-4.0096,-4.0096,-4.0096,-4.0096,-4.0096,-4.0096,-4.0096,-4.0096,-4.0096,-4.0096,-4.04,-4.1102,-4.117,-4.1474,-4.2168,-4.2219,-4.2236,-4.2252,-4.2963,-4.3325,-4.3358,-4.413,-4.4147,-4.3392,-4.3375,-4.3014,-4.2286,-4.2236,-4.1847,-4.1686,-4.1958,-4.2101,-4.2101,-4.2541,-4.2976,-4.2976,-4.325,-4.3515,-4.3515,-4.3515,-4.3423,-4.313,-4.3331,-4.3423,-4.313,-4.2868,-4.2769,0.0,-4.2142,-4.152,-4.1331,-4.1123,-4.0747,-4.018,-3.9673,-3.9571,-4.0062,-3.9656,-3.9605,-4.0079,-4.0096,-4.0096,-4.0096,-3.9859,-3.9503,-3.8988,-3.8007,-3.728,-3.6795,-3.5994,-3.56,-3.56,-3.56,-3.56,-3.56,-3.56,-3.56,-3.56,-3.56,-3.56,-3.56,-3.56,-3.6529,-3.7872,-3.7618,-3.8447,-3.974,-3.974,-3.9893,-4.0096,-4.0096,-4.0096,-4.0096,-4.0096,-4.0096,-4.0096,-4.0096,-4.0096,-4.0096,-4.0096,-4.0096,-4.0096,-4.0096,-4.0096,-4.0096,-4.0096,-4.0096,-4.0248,-4.073,-4.0434,-4.0265,-4.073,-4.0409,-4.0096,-4.0096,-4.0096,-4.0282,-4.0764,-4.0832,-4.1001,-4.1491,-4.1568,-4.167,-4.1897,-4.1931,-4.2033,-4.2269,-4.2286,-4.2523,-4.3014,-4.3257,-4.3656,-4.4181,-4.4479,-4.4479,-4.4181,-4.3673,-4.3257,-4.3031,-4.3031,-4.2642,-4.0321,-4.0552,-4.0756,-4.1016,-4.155,-4.2062,-4.2329,-4.2809,-4.3214,-4.3214,-4.3375,-4.3444,-4.325,-4.3375,-4.3356,-4.2959,-4.2789,-4.2616,0.0,-4.1743,-4.119,-4.0926,-4.0733,-4.0473,-4.0146,-3.9673,-3.9486,-3.9706,-3.952,-3.9486,-3.9706,-3.996,-4.0096,-4.0096,-4.0096,-3.9757,-3.9005,-3.8278,-3.7533,-3.6795,-3.5994,-3.56,-3.56,-3.56,-3.56,-3.56,-3.56,-3.56,-3.56,-3.56,-3.5752,-3.6028,-3.6028,-3.6958,-3.8261,-3.8007,-3.8819,-4.0096,-4.0096,-4.0096,-4.0096,-4.0096,-4.0096,-4.0096,-4.0096,-4.0096,-4.0096,-4.0096,-4.0096,-4.0096,-4.0096,-4.0096,-4.0096,-4.0096,-4.0096,-4.018,-4.0434,-4.0476,-4.0696,-4.1457,-4.1204,-4.1018,-4.1508,-4.1187,-4.0807,-4.0536,-4.0476,-4.0747,-4.1508,-4.1593,-4.1762,-4.2236,-4.2286,-4.2405,-4.2675,-4.2946,-4.3125,-4.3125,-4.3125,-4.3318,-4.3809,-4.3826,-4.4181,-4.4976,-4.475,-4.4733,-4.4976,-4.4215,-4.3826,-4.3826,-4.3826,-4.3572]},{"header":{"parameterUnit":"m.s-1","parameterCategory":1,"la1":30.6,"la2":29.2853,"lo1":-89.7004,"lo2":-87.6739,"dy":0.0162,"dx":0.0183,"nx":112,"ny":82,"refTime":"2024-04-13T06:00:00:Z","depth":0,"parameterNumber":3,"parameterNumberName":"V-component_of_WINDS"},"data":[0.0,0.0,0.0,0.0,0.0,0.0,0.0,0.0,0.0,0.0,0.0,0.0,0.0,0.0,0.0,0.0,0.0,0.0,0.0,0.0,0.0,0.0,0.0,0.0,0.0,0.0,0.0,0.0,0.0,0.0,0.0,0.0,0.0,0.0,0.0,0.0,0.0,0.0,0.0,0.0,0.0,0.0,0.0,0.0,0.0,0.0,0.0,0.0,0.0,0.0,0.0,0.0,0.0,0.0,0.0,0.0,0.0,0.0,0.0,0.0,0.0,0.0,0.0,0.0,0.0,0.0,0.0,0.0,0.0,0.0,0.0,0.0,0.0,0.0,0.0,0.0,0.0,0.0,0.0,0.0,0.0,0.0,0.0,0.0,0.0,0.0,0.0,0.0,0.0,0.0,0.0,0.0,-0.2809,-0.4726,-0.4852,-0.7747,-0.9311,-0.8858,0.0,0.0,0.0,0.0,0.0,0.0,0.0,0.0,0.0,0.0,0.0,0.0,0.0,0.0,0.0,0.0,0.0,0.0,0.0,0.0,0.0,0.0,0.0,0.0,0.0,0.0,0.0,0.0,0.0,0.0,0.0,0.0,0.0,0.0,0.0,0.0,0.0,0.0,0.0,0.0,0.0,0.0,0.0,0.0,0.0,0.0,0.0,0.0,0.0,0.0,0.0,0.0,0.0,0.0,0.0,0.0,0.0,0.0,0.0,0.0,0.0,0.0,0.0,0.0,0.0,0.0,0.0,0.0,0.0,0.0,0.0,0.0,0.0,0.0,0.0,0.0,0.0,0.0,0.0,0.0,0.0,0.0,0.0,0.0,0.0,0.0,0.0,0.0,0.0,0.0,0.0,0.0,0.0,0.0,0.0,0.0,0.0,0.0,0.0,0.0,0.0,0.0,0.0,0.0,0.0,0.0,-0.1717,-0.339,-0.4623,-0.6374,-0.7711,-0.8528,0.0,0.0,0.0,0.0,0.0,0.0,0.0,0.0,0.0,0.0,0.0,0.0,0.0,0.0,0.0,0.0,0.0,0.0,0.0,0.0,0.0,0.0,0.0,0.0,0.0,0.0,0.0,0.0,0.0,0.0,0.0,0.0,0.0,0.0,0.0,0.0,0.0,0.0,0.0,0.0,0.0,0.0,0.0,0.0,0.0,0.0,0.0,0.0,0.0,0.0,0.0,0.0,0.0,0.0,0.0,0.0,0.0,0.0,0.0,0.0,0.0,0.0,0.0,0.0,0.0,0.0,0.0,0.0,0.0,0.0,0.0,0.0,0.0,0.0,0.0,0.0,0.0,0.0,0.0,0.0,0.0,0.0,0.0,0.0,0.0,0.0,0.0,0.0,0.0,0.0,0.0,0.0,0.0,0.0,0.0,0.0,0.0,0.0,0.0,0.0,0.0,0.0,0.0,0.0,0.0,0.0,-0.1489,-0.2745,-0.3429,-0.551,-0.6975,-0.7384,-0.7901,0.0,0.0,0.0,0.0,0.0,0.0,0.0,0.0,0.0,0.0,0.0,0.0,0.0,0.0,0.0,0.0,0.0,0.0,0.0,0.0,0.0,0.0,0.0,0.0,0.0,0.0,0.0,0.0,0.0,0.0,0.0,0.0,0.0,0.0,0.0,0.0,0.0,0.0,0.0,0.0,0.0,0.0,0.0,0.0,0.0,0.0,0.0,0.0,0.0,0.0,0.0,0.0,0.0,0.0,0.0,0.0,0.0,0.0,0.0,0.0,0.0,0.0,0.0,0.0,0.0,0.0,0.0,0.0,0.0,0.0,0.0,0.0,0.0,0.0,0.0,0.0,0.0,0.0,0.0,0.0,0.0,0.0,0.0,0.0,0.0,0.0,0.0,0.0,0.0,0.0,0.0,0.0,0.0,0.0,0.0,0.0,0.0,0.0,0.0,0.0,0.0,0.0,0.0,0.0,0.0,-0.1165,-0.2045,-0.2376,-0.44,-0.5859,-0.6303,-0.697,0.0,0.0,0.0,0.0,0.0,0.0,0.0,0.0,0.0,0.0,0.0,0.0,0.0,0.0,0.0,0.0,0.0,0.0,0.0,0.0,0.0,0.0,0.0,0.0,0.0,0.0,0.0,0.0,0.0,0.0,0.0,0.0,0.0,0.0,0.0,0.0,0.0,0.0,0.0,0.0,0.0,0.0,0.0,0.0,0.0,0.0,0.0,0.0,0.0,0.0,0.0,0.0,0.0,0.0,0.0,0.0,0.0,0.0,0.0,0.0,0.0,0.0,0.0,0.0,0.0,0.0,0.0,0.0,0.0,0.0,0.0,0.0,0.0,0.0,0.0,0.0,0.0,0.0,0.0,0.0,0.0,0.0,0.0,0.0,0.0,0.0,0.0,0.0,0.0,0.0,0.0,0.0,0.0,0.0,0.0,0.0,0.0,0.0,0.0,0.0,0.0,0.0,0.0,0.0,0.0,-0.0108,-0.0749,-0.2081,-0.2414,-0.3475,-0.5711,-0.5915,0.0,0.0,0.0,0.0,0.0,0.0,0.0,0.0,0.0,0.0,0.0,0.0,0.0,0.0,0.0,0.0,0.0,0.0,0.0,0.0,0.0,0.0,0.0,0.0,0.0,0.0,0.0,0.0,0.0,0.0,0.0,0.0,0.0,0.0,0.0,0.0,0.0,0.0,0.0,0.0,0.0,0.0,0.0,0.0,0.0,0.0,0.0,0.0,0.0,0.0,0.0,0.0,0.0,0.0,0.0,0.0,0.0,0.0,0.0,0.0,0.0,0.0,0.0,0.0,0.0,0.0,0.0,0.0,0.0,0.0,0.0,0.0,0.0,0.0,0.0,0.0,0.0,0.0,0.0,0.0,0.0,0.0,0.0,0.0,0.0,0.0,0.0,0.0,0.0,0.0,0.0,0.0,0.0,0.0,0.0,0.0,0.0,0.0,0.0,0.0,0.0,0.0,0.0,0.0,0.0,0.0,-0.0206,-0.0772,-0.1584,-0.2765,-0.4452,0.0,0.0,0.0,0.0,0.0,0.0,0.0,0.0,0.0,0.0,0.0,0.0,0.0,0.0,0.0,0.0,0.0,0.0,0.0,0.0,0.0,0.0,0.0,0.0,0.0,0.0,0.0,0.0,0.0,0.0,0.0,0.0,0.0,0.0,0.0,0.0,0.0,0.0,0.0,0.0,0.0,0.0,0.0,0.0,0.0,0.0,0.0,0.0,0.0,0.0,0.0,0.0,0.0,0.0,0.0,0.0,0.0,0.0,0.0,0.0,0.0,0.0,0.0,0.0,0.0,0.0,0.0,0.0,0.0,0.0,0.0,0.0,0.0,0.0,0.0,0.0,0.0,0.0,0.0,0.0,0.0,0.0,0.0,0.0,0.0,0.0,0.0,0.0,0.0,0.0,0.0,0.0,0.0,0.0,0.0,0.0,0.0,0.0,0.0,0.0,0.0,0.0,0.0,0.0,0.0,0.0,0.0,0.0,0.0,-0.0853,-0.1881,-0.3105,0.0,0.0,0.0,0.0,0.0,0.0,0.0,0.0,0.0,0.0,0.0,0.0,0.0,0.0,0.0,0.0,0.0,0.0,0.0,0.0,0.0,0.0,0.0,0.0,0.0,0.0,0.0,0.0,0.0,0.0,0.0,0.0,0.0,0.0,0.0,0.0,0.0,0.0,0.0,0.0,0.0,0.0,0.0,0.0,0.0,0.0,0.0,0.0,0.0,0.0,0.0,0.0,0.0,0.0,0.0,0.0,0.0,0.0,0.0,0.0,0.0,0.0,0.0,0.0,0.0,0.0,0.0,0.0,0.0,0.0,0.0,0.0,0.0,0.0,0.0,0.0,0.0,0.0,0.0,0.0,0.0,0.0,0.0,0.0,0.0,0.0,0.0,0.0,0.0,0.0,0.0,0.0,0.0,0.0,0.0,0.0,0.0,0.0,0.0,0.0,0.0,0.0,0.0,0.0,0.0,0.0,0.0,0.0,0.0,0.0,-0.0535,0.0,0.0,0.0,0.0,0.0,0.0,0.0,0.0,0.0,0.0,0.0,0.0,0.0,0.0,0.0,0.0,0.0,0.0,0.0,0.0,0.0,0.0,0.0,0.0,0.0,0.0,0.0,0.0,0.0,0.0,0.0,0.0,0.0,0.0,0.0,0.0,0.0,0.0,0.0,0.0,0.0,0.0,0.0,0.0,0.0,0.0,0.0,0.0,0.0,0.0,0.0,0.0,0.0,0.0,0.0,0.0,0.0,0.0,0.0,0.0,0.0,0.0,0.0,0.0,0.0,0.0,0.0,0.0,0.0,0.0,0.0,0.0,0.0,0.0,0.0,0.0,0.0,0.0,0.0,0.0,0.0,0.0,0.0,0.0,0.0,0.0,0.0,0.0,0.0,0.0,0.0,0.0,0.0,0.0,0.0,0.0,0.0,0.0,0.0,0.0,0.0,0.0,0.0,0.0,0.0,0.0,0.0,0.0,0.0,0.0,0.0,-0.0535,-0.1715,0.0,0.0,0.0,0.0,0.0,0.0,0.0,0.0,0.0,0.0,0.0,0.0,0.0,0.0,0.0,0.0,0.0,0.0,0.0,0.0,0.0,0.0,0.0,0.0,0.0,0.0,0.0,0.0,0.0,0.0,0.0,0.0,0.0,0.0,0.0,0.0,0.0,0.0,0.0,0.0,0.0,0.0,0.0,0.0,0.0,0.0,0.0,0.0,0.0,0.0,0.0,0.0,0.0,0.0,0.0,0.0,0.0,0.0,0.0,0.0,0.0,0.0,0.0,0.0,0.0,0.0,0.0,0.0,0.0,0.0,0.0,0.0,0.0,0.0,0.0,0.0,0.0,0.0,0.0,0.0,0.0,0.0,0.0,0.0,0.0,0.0,0.0,0.0,0.0,0.0,0.0,0.0,0.0,0.0,0.0,0.0,0.0,0.0,0.0,0.0,0.0,0.0,0.0,0.0,0.0,0.0,0.0,0.0,0.0,0.0,-0.0293,-0.1037,0.0,0.0,0.0,0.0,0.0,0.0,0.0,0.0,0.0,0.0,0.0,0.0,0.0,0.0,0.0,0.0,0.0,0.0,0.0,0.0,0.0,0.0,0.0,0.0,0.0,0.0,0.0,0.0,0.0,0.0,0.0,0.0,0.0,0.0,0.0,0.0,0.0,0.0,0.0,0.0,0.0,0.0,0.0,0.0,0.0,0.0,0.0,0.0,0.0,0.0,0.0,0.0,0.0,0.0,0.0,0.0,0.0,0.0,0.0,0.0,0.0,0.0,0.0,0.0,0.0,0.0,0.0,0.0,0.0,0.0,0.0,0.0,0.0,0.0,0.0,0.0,0.0,0.0,0.0,0.0,0.0,0.0,0.0,0.0,0.0,0.0,0.0,0.0,0.0,0.0,0.0,0.0,0.0,0.0,0.0,0.0,0.0,0.0,0.0,0.0,0.0,0.0,0.0,0.0,0.0,0.0,0.0,0.0,0.0,0.0,0.0,0.0,0.0,0.0,0.0,0.0,0.0,0.0,0.0,0.0,0.0,0.0,0.0,0.0,0.0,0.0,0.0,0.0,0.0,0.0,0.0,0.0,0.0,0.0,0.0,0.0,0.0,0.0,0.0,0.0,0.0,0.0,0.0,0.0,0.0,0.0,0.0,0.0,0.0,0.0,0.0,0.0,0.0,0.0,0.0,0.0,0.0,0.0,0.0,0.0,0.0,0.0,0.0,0.0,0.0,0.0,0.0,0.0,0.0,0.0,0.0,0.0,0.4583,0.3274,0.0,0.0,0.0,0.0,0.0,0.0,0.0,0.0,0.0,0.0,0.0,0.0,0.0,0.0,0.0,0.0,0.0,0.0,0.0,0.0,0.0,0.0,0.0,0.0,0.0,0.0,0.0,0.0,0.0,0.0,0.0,0.0,0.0,0.0,0.0,0.0,0.0,0.0,0.0,0.0,0.0,0.0,0.0,0.0,0.0,0.0,0.0,0.0,0.0,0.0,0.0,0.0,0.0,0.0,0.0,0.0,0.0,0.0,0.0,0.0,0.0,0.0,0.0,0.0,0.0,0.0,0.0,0.0,0.0,0.0,0.0,0.0,0.0,0.0,0.0,0.0,0.0,0.0,0.0,0.0,0.0,0.0,0.0,0.0,0.0,0.0,0.0,0.0,0.0,0.0,0.0,0.0,0.0,0.0,0.0,0.0,0.0,0.0,0.0,0.0,0.0,0.0,0.0,0.0,0.0,0.0,0.0,0.0,0.0,0.0,0.6427,0.5211,0.0,0.0,0.0,0.0,0.0,0.0,0.0,0.0,0.0,0.0,0.0,0.0,0.0,0.0,0.0,0.0,0.0,0.0,0.0,0.0,0.0,0.0,0.0,0.0,0.0,0.0,0.0,0.0,0.0,0.0,0.0,0.0,0.0,0.0,0.0,0.0,0.0,0.0,0.0,0.0,0.0,0.0,0.0,0.0,0.0,0.0,0.0,0.0,0.0,0.0,0.0,0.0,0.0,0.0,0.0,0.0,0.0,0.0,0.0,0.0,0.0,0.0,0.0,0.0,0.0,0.0,0.0,0.0,0.0,0.0,0.0,0.0,0.0,0.0,0.0,0.0,0.0,0.0,0.0,0.0,0.0,0.0,0.0,0.0,0.0,0.0,0.0,0.0,0.0,0.0,0.0,0.0,0.0,0.0,0.0,0.0,0.0,0.0,0.0,0.0,0.0,0.0,0.0,0.0,0.9612,0.9605,0.9462,0.9588,0.9507,0.9219,0.8046,0.7293,0.6796,0.5454,0.0,0.0,0.0,0.0,0.0,0.0,0.0,0.0,0.0,0.0,0.0,0.0,0.0,0.0,0.0,0.0,0.0,0.0,0.0,0.0,0.0,0.0,0.4861,0.4836,0.4979,0.4688,0.3066,0.0,0.0,0.0,0.0,0.0,0.0,0.0,0.0,0.0,0.0,0.0,0.0048,0.0393,0.0603,0.0353,0.0555,0.0706,0.0706,0.0706,0.0696,0.072,0.0705,0.068,0.0,0.0,0.0,0.0,0.0,0.0,0.0,0.0,0.0,0.0,0.0,0.0,0.0,0.0,0.0,0.0,0.0,0.0,0.0,0.0,0.0,0.0,0.0,0.0,0.0,0.0,0.0,0.0,0.0,0.0,0.0,0.0,1.4217,1.2511,0.0,0.0,0.0,0.0,0.0,0.0,0.0,0.0,0.0,0.0,0.0,0.0,0.0,0.9557,0.9581,0.9832,0.9832,0.9764,0.9856,0.9849,0.9764,0.9785,0.9771,0.9734,0.9509,0.0,0.6853,0.6519,0.0,0.0,0.0,0.0,0.0,0.0,0.0,0.0,0.0,0.0,0.0,0.0,0.0,0.0,0.0,0.0,0.0,0.0,0.0,0.0,0.0,0.0,0.7506,0.749,0.75,0.7147,0.5762,0.4652,0.3458,0.2006,0.1714,0.1379,0.0,0.0,0.0,0.0,0.0,0.0,0.0143,0.1939,0.2914,0.1859,0.2765,0.3465,0.3465,0.3465,0.3485,0.3464,0.3491,0.3413,0.3326,0.229,0.0,0.0,0.0,0.0,0.0,0.0,0.0,0.0,0.0,0.0,0.0,0.0,0.0,0.0,0.0,0.0,0.0,0.0,0.0,0.0,0.0,0.0,0.0,0.0,0.0,0.0,0.0,0.0,0.0,1.6618,1.59,1.4934,1.4246,1.3325,0.0,0.0,0.0,0.0,0.0,0.0,0.0,0.0,0.0,1.2542,1.1633,1.1195,1.1292,1.056,1.01,0.9889,1.0103,1.0053,0.9825,0.9849,0.99,0.9822,0.9822,0.9343,0.849,0.8211,0.768,0.6879,0.0,0.0,0.0,0.0,0.5811,0.6342,0.5638,0.5378,0.5182,0.4443,0.0,0.0,0.0,0.0,0.0,0.0,0.0,0.7988,0.7988,0.8102,0.817,0.817,0.8231,0.8112,0.7417,0.6894,0.5812,0.3543,0.3139,0.2923,0.2242,0.215,0.0,0.0,0.0,0.2636,0.21,0.2992,0.3472,0.2967,0.3489,0.3907,0.3907,0.3907,0.391,0.4019,0.3869,0.3766,0.3777,0.3239,0.2831,0.0,0.0,0.0,0.0,0.0,0.0,0.0,0.0,0.0,0.0,0.0,0.0,0.0,0.0,0.0,0.0,0.0,0.0,0.0,0.0,0.0,0.0,0.0,0.0,0.0,0.0,0.0,0.0,1.8351,1.7886,1.6931,1.6388,1.5541,0.0,0.0,0.0,0.0,0.0,0.0,1.5012,1.4931,1.4947,1.5111,1.39,1.3276,1.3363,1.232,1.1404,1.0843,1.095,1.0594,0.9941,0.9913,0.9866,0.9819,0.9781,0.9768,0.9734,0.9323,0.9089,0.8846,0.7538,0.7574,0.8233,0.7334,0.7571,0.8195,0.7305,0.692,0.6634,0.5581,0.5166,0.509,0.5048,0.0,0.0,0.0,0.0,0.7988,0.7988,0.8126,0.8211,0.8211,0.8292,0.834,0.8235,0.8211,0.7509,0.4983,0.4518,0.4379,0.3921,0.3823,0.0,0.3681,0.387,0.3935,0.3634,0.4152,0.4432,0.4124,0.4518,0.481,0.4833,0.4835,0.4873,0.5012,0.4822,0.4735,0.478,0.4367,0.4081,0.3908,0.0,0.0,0.0,0.0,0.0,0.0,0.0,0.0,0.0,0.0,0.0,0.0,0.0,0.0,0.0,0.0,0.0,0.0,0.0,0.0,0.0,0.0,0.0,0.0,0.0,0.0,0.0,0.0,0.0,1.7468,1.8384,0.0,0.0,0.0,0.0,1.4963,1.4973,1.5023,1.519,1.5195,1.5293,1.5468,1.5486,1.5534,1.5544,1.5579,1.4776,1.3147,1.2876,1.1894,1.0246,0.9961,0.9829,0.9815,0.968,0.9618,0.9595,0.934,0.9207,0.9152,0.8602,0.8423,0.8472,0.8426,0.8423,0.8452,0.8282,0.8183,0.8176,0.8125,0.8067,0.8034,0.7832,0.7839,0.0,0.0,0.7988,0.7988,0.7988,0.7995,0.8002,0.8002,0.8008,0.8008,0.8002,0.8002,0.7593,0.6182,0.5879,0.5472,0.4207,0.0,0.3789,0.3786,0.4673,0.4909,0.3765,0.5713,0.678,0.5628,0.6646,0.7472,0.7604,0.7614,0.7677,0.7779,0.7766,0.7684,0.7409,0.6317,0.5546,0.5292,0.4062,0.0,0.0,0.0,0.0,0.0,0.0,0.0,0.0,0.0,0.0,0.0,0.0,0.0,0.0,0.0,0.0,0.0,0.0,0.0,0.0,0.0,0.0,0.0,0.0,0.0,0.0,0.0,0.0,1.9893,2.065,0.0,1.8945,1.8686,1.8643,1.8643,1.8803,1.8945,1.8976,1.8982,1.9031,1.913,1.8065,1.7532,1.7532,1.6248,1.5312,1.4599,1.4256,1.3198,1.1502,1.1376,1.0781,0.9815,0.9673,0.9608,0.9585,0.9337,0.921,0.9183,0.8876,0.8716,0.8638,0.874,0.8713,0.8621,0.857,0.8489,0.8374,0.8184,0.8123,0.8113,0.8005,0.7988,0.7988,0.7988,0.7988,0.7988,0.7988,0.7988,0.7988,0.7988,0.7988,0.7988,0.7988,0.7988,0.7839,0.7385,0.7285,0.7105,0.6519,0.6322,0.6236,0.6108,0.6316,0.6352,0.5902,0.6633,0.7058,0.6608,0.7112,0.7512,0.7662,0.7584,0.7631,0.7879,0.7574,0.7458,0.7451,0.6937,0.6527,0.6263,0.5861,0.5526,0.0,0.0,0.0,0.0,0.0,0.0,0.0,0.0,0.0,0.0,0.0,0.0,0.0,0.0,0.0,0.0,0.0,0.0,0.0,0.0,0.0,0.0,0.0,0.0,0.0,2.0875,2.173,2.1042,2.2004,2.2298,2.1216,2.1116,2.1116,2.1116,2.1209,2.1256,2.1256,2.1162,2.1109,2.1109,1.9998,1.9349,1.9349,1.7995,1.6904,1.6236,1.5854,1.4781,1.3083,1.302,1.2119,1.0508,1.0414,1.0025,0.9435,0.9184,0.9083,0.9069,0.8977,0.8821,0.8801,0.8848,0.8842,0.8696,0.8598,0.8462,0.8299,0.8052,0.7988,0.7988,0.7988,0.7988,0.7988,0.7988,0.7988,0.7988,0.7988,0.7988,0.7988,0.7988,0.7951,0.7928,0.7978,0.7948,0.7914,0.7914,0.7914,0.788,0.7828,0.7651,0.7489,0.7433,0.7241,0.7095,0.7095,0.7095,0.7095,0.7095,0.7231,0.7356,0.7509,0.7478,0.7533,0.7726,0.7461,0.7316,0.7415,0.7221,0.7004,0.6854,0.7186,0.7144,0.6795,0.0,0.0,0.0,0.0,0.0,0.0,0.0,0.0,0.0,0.0,0.0,0.0,0.0,0.0,0.0,0.0,0.0,0.0,0.0,0.0,0.0,0.0,0.0,2.0261,2.1276,2.1704,2.0855,2.2278,2.2759,2.1316,2.1683,2.2004,2.1997,2.1737,2.1635,2.1614,2.1289,2.1129,2.1109,2.1116,2.1122,2.1109,2.0815,1.9835,1.817,1.7706,1.6545,1.4837,1.4755,1.371,1.2038,1.1859,1.0825,0.9253,0.8998,0.8885,0.8885,0.8885,0.8878,0.8875,0.8875,0.8832,0.8655,0.837,0.817,0.7988,0.7988,0.7988,0.7988,0.7988,0.7988,0.7988,0.7988,0.7988,0.7988,0.7988,0.7988,0.7988,0.7988,0.7877,0.7858,0.7951,0.7916,0.7811,0.7804,0.7801,0.7797,0.7804,0.7563,0.7415,0.7409,0.7234,0.0,0.7088,0.7088,0.7092,0.7095,0.7098,0.7207,0.7405,0.7506,0.759,0.7634,0.7627,0.7605,0.75,0.73,0.7177,0.7177,0.788,0.8098,0.7868,0.0,0.0,0.0,0.0,0.0,0.0,0.0,0.0,0.0,0.0,0.0,0.0,0.0,0.0,0.0,0.0,0.0,0.0,0.0,0.0,0.0,2.0067,2.0628,2.0842,2.1877,2.2619,2.2599,2.3026,2.3166,2.2752,2.2659,2.2532,2.2311,2.2225,2.1997,2.1641,2.1677,2.155,2.1122,2.1323,2.1329,2.1109,2.0608,2.0103,1.9595,1.9087,1.7975,1.6411,1.6343,1.5349,1.3543,1.2316,1.1387,1.0639,0.938,0.8885,0.8885,0.8885,0.8814,0.8774,0.8774,0.8611,0.8381,0.835,0.817,0.7988,0.7988,0.7988,0.7988,0.7988,0.7988,0.7988,0.7988,0.7988,0.7988,0.7988,0.7988,0.7988,0.7988,0.7958,0.7911,0.7889,0.7841,0.778,0.7678,0.7567,0.7529,0.7638,0.7499,0.7333,0.7221,0.7038,0.6943,0.6943,0.6943,0.698,0.7085,0.7241,0.7326,0.7412,0.7456,0.7745,0.8337,0.826,0.8558,0.94,0.9388,0.9356,0.9356,0.9108,0.899,0.0,0.0,0.0,0.0,0.0,0.0,0.0,0.0,0.0,0.0,0.0,0.0,0.0,0.0,0.0,0.0,0.0,0.0,0.0,0.0,0.0,0.0,2.1409,2.1456,2.2131,2.2592,2.2933,2.3113,2.3247,2.328,2.3146,2.2966,2.2792,2.2619,2.2492,2.2271,2.1937,2.1844,2.165,2.1303,2.1343,2.1283,2.1109,2.0528,2.0173,2.0167,1.9646,1.8887,1.7987,1.7987,1.6942,1.5025,1.4096,1.3077,1.2018,1.0441,1.0186,1.0621,0.0,0.0,0.0,0.0,0.8418,0.8313,0.8197,0.8113,0.7988,0.7988,0.8382,0.8825,0.8825,0.8825,0.897,0.9509,0.9262,0.897,0.9509,0.9653,0.9509,0.897,0.8713,0.8605,0.8534,0.8046,0.7742,0.8158,0.7791,0.0,0.804,0.765,0.7244,0.7109,0.6977,0.6886,0.6886,0.6886,0.7132,0.7726,0.793,0.8207,0.869,0.8804,0.0,0.0,0.0,0.9447,1.0063,1.0017,0.0,0.0,0.0,1.0018,1.005,1.0018,0.0,0.0,0.8773,0.9321,0.0,0.0,0.0,0.0,0.0,0.0,0.0,0.0,0.0,0.0,0.0,0.0,0.0,0.0,0.0,0.0,2.3241,2.2768,2.3638,2.3356,2.3035,2.3035,2.318,2.3207,2.2961,2.2928,2.2928,2.2928,2.2619,2.2452,2.2418,2.1964,0.0,0.0,0.0,2.1176,2.1109,2.0528,2.0173,2.0167,1.9646,1.9424,1.9424,1.9424,1.839,1.6528,1.6354,1.5226,1.3426,1.1973,1.2132,1.2994,1.0218,0.8917,0.8628,0.8367,0.831,0.8225,0.8039,0.0,0.0,0.8233,0.9118,1.0194,1.0194,1.0194,1.0435,1.1556,1.1068,1.0489,1.1609,1.1896,1.1599,1.0458,0.9945,0.9728,0.9673,0.8664,0.8083,0.9086,0.8444,0.799,0.8886,0.803,0.7281,0.7395,0.7307,0.7172,0.7045,0.713,0.7562,0.8603,0.8905,0.0,1.0489,1.0695,1.0619,1.032,1.0414,1.0403,1.0235,1.0135,1.0584,1.1643,1.1333,1.1124,1.0975,1.1094,1.0653,0.9684,0.995,1.0305,0.0,0.0,0.0,0.0,0.0,0.0,0.0,0.0,0.0,0.0,0.0,0.0,0.0,0.0,0.0,2.4649,2.5033,2.4944,2.3584,2.3521,2.3594,2.3594,2.3434,2.3207,2.2961,2.2928,2.2928,2.2928,2.2812,2.2672,2.2432,2.2539,2.2351,2.1641,2.1724,2.159,2.1109,2.0528,2.0173,2.0167,1.9646,0.0,1.9424,1.9424,1.8924,1.8027,1.6813,1.5783,1.4877,1.348,1.3048,1.3087,1.1254,0.9636,0.8347,0.8344,0.8191,0.8029,0.8002,0.8726,0.9608,0.9608,1.0485,1.1512,1.1512,1.1512,0.0,1.1848,1.1707,1.1604,1.1853,1.1896,1.1803,1.1326,1.1171,1.103,1.0642,1.0336,1.0182,1.0275,0.9976,0.9719,0.9936,0.896,0.8442,0.9229,0.9157,0.8711,0.7877,0.8511,0.8914,0.87,0.9547,1.0163,1.0278,1.0383,1.0583,1.0818,1.1766,1.2292,1.2235,1.2425,1.2523,1.2556,1.2497,1.2327,1.1996,1.2055,1.206,1.2126,1.1496,1.1147,0.0,0.0,0.0,0.0,0.0,0.0,0.0,0.0,0.0,0.0,0.0,2.7048,2.8379,0.0,2.8651,2.886,2.75,2.6168,2.547,2.4613,2.3821,2.3374,2.332,2.3207,2.2961,2.2928,2.2928,2.2928,2.2928,2.2732,2.2432,2.2418,2.2224,2.1635,2.155,2.1336,2.0895,2.0454,2.016,2.0007,1.9579,1.9424,1.9424,1.9424,1.9045,1.8435,1.7736,1.7075,1.6446,1.5743,1.4537,1.3136,1.3024,1.1537,0.9476,0.926,0.865,0.8088,0.8775,0.946,1.0096,1.073,1.1848,1.2909,1.2909,1.2909,1.3006,1.3692,1.3397,1.306,1.3692,1.3742,1.3466,1.2617,1.2311,1.2071,1.1754,1.1079,1.0666,1.1144,1.0559,1.0156,1.0731,1.0223,0.9705,0.9781,0.9637,0.9336,0.883,0.9179,0.9622,0.9928,1.0563,1.1156,1.1659,1.1642,1.168,1.1908,1.2296,1.263,1.2777,1.2752,1.2752,1.2784,1.2636,1.2489,1.2305,1.2305,1.2378,1.2525,1.2088,1.2003,0.0,0.0,0.0,0.0,0.0,0.0,0.0,2.6982,2.709,2.8809,2.9502,3.0488,3.2744,3.2178,3.1771,3.2977,3.0307,2.7826,2.7485,2.5889,2.4399,2.3209,2.326,2.3293,2.2986,2.2899,2.2928,2.2928,2.2928,2.2759,2.2519,2.2225,2.1937,2.1715,2.1349,2.1056,2.0762,2.0408,2.0114,1.988,1.9533,1.9424,1.9424,1.9424,1.9045,1.8484,1.837,1.8036,1.7582,1.7582,1.6119,1.3917,1.4925,1.371,1.1318,1.0653,0.9735,0.892,0.9998,1.0534,1.0921,1.1945,1.3204,1.4262,1.4262,1.4262,1.4459,1.5486,1.5045,1.4507,1.5534,1.5611,1.5094,1.3994,1.3423,1.3105,1.2931,1.1813,1.1122,1.2035,1.1207,1.0605,1.1573,1.1471,1.1033,1.0413,1.0163,0.9971,0.9777,0.9932,1.0346,1.1111,1.1528,1.2134,1.3041,1.2878,1.2697,1.2697,1.2438,1.2412,1.269,1.2522,1.2472,1.2697,1.2516,1.2365,1.2305,1.2305,1.2305,1.2305,1.2305,1.2565,2.0272,2.2034,2.4739,2.7247,2.7649,2.8066,0.0,3.0293,3.0185,3.1934,3.2627,3.3242,3.4297,3.4984,3.4891,3.3411,3.3088,3.1619,2.7593,2.713,2.6279,2.3948,2.3701,2.3607,2.33,2.3026,2.2928,2.2928,2.2928,2.2846,2.2881,2.2532,2.2238,2.1944,2.1722,2.1363,2.1062,2.0508,2.0153,2.018,1.9633,1.9424,1.9424,1.9424,1.9045,1.8464,1.7923,1.7642,1.7582,1.7582,1.7245,1.6697,1.655,1.5451,1.3745,1.2448,1.1766,1.1512,1.1653,1.2474,1.3488,1.3632,1.4561,1.5588,1.5588,1.5588,1.5635,1.5778,1.5683,1.5635,1.5778,1.5611,1.5285,1.4928,1.4573,1.4226,1.3969,1.3576,1.3266,1.3389,1.2896,1.2517,1.2639,1.2395,1.2221,1.2433,1.2193,1.1664,1.0755,1.1434,1.1765,1.1248,1.2075,1.2716,1.2837,1.2525,1.2351,1.2351,1.2318,1.2318,1.2351,1.261,1.2623,1.2358,1.2616,1.2603,1.2305,1.2305,1.2305,1.2305,1.2305,1.2338,2.2683,2.3909,2.5707,2.6758,2.7911,2.9176,3.0449,3.0459,3.0693,3.2441,3.333,3.4062,3.4941,3.581,3.6258,3.5705,3.4587,3.2764,2.9728,2.8236,2.6619,2.4285,2.3875,2.3654,2.3354,2.3207,2.306,2.2879,2.2928,2.278,2.2372,2.2231,2.1957,2.149,2.1356,2.1156,2.0862,2.0441,2.0147,1.9973,1.9566,1.9424,1.9424,1.9424,1.9045,1.8464,1.8036,1.7749,1.7569,1.7454,1.7306,1.7152,1.6633,1.6072,1.5292,1.3748,1.2163,1.1023,1.2522,1.2909,1.3011,1.4513,1.5384,1.5784,1.5784,1.5784,1.5784,1.5784,1.5784,1.5744,1.5618,1.5357,1.507,1.4776,1.4482,1.4235,1.4115,1.3721,1.3353,1.3353,1.2899,1.2522,1.2522,1.2385,1.2345,1.2509,1.2385,1.215,1.1731,1.2033,1.2197,1.1865,1.2223,1.2522,1.2522,1.2371,1.2305,1.2305,1.2305,1.2225,1.2058,1.2208,1.2214,1.2051,1.2208,1.2295,1.2305,1.2305,1.2305,1.2305,1.2305,1.2305,2.3225,2.3938,2.5035,2.5561,2.7408,2.9269,2.9919,3.0432,3.1201,3.2812,3.3643,3.4375,3.5381,3.6074,3.667,3.7207,3.5859,3.3874,3.1375,2.9481,2.7299,2.4519,2.3948,2.3654,2.3354,2.3247,2.3106,2.2879,2.2786,2.2552,2.2124,2.1951,2.167,2.1243,2.1156,2.0969,2.0681,2.0381,2.0087,1.98,1.9506,1.9424,1.9424,1.9279,1.8965,1.8477,1.8176,1.7822,1.7442,1.7286,1.7105,1.6918,1.6489,1.6219,1.6022,1.4827,1.3247,1.1891,1.3782,1.3782,1.3307,1.5194,1.5784,1.5784,1.5784,1.5784,1.5784,1.5784,1.5784,1.5758,1.5471,1.5177,1.4934,1.4589,1.4302,1.4062,1.3981,1.3567,1.3186,1.31,1.2659,1.2305,1.2305,1.2305,1.2305,1.2305,1.2305,1.2271,1.2191,1.2111,1.2124,1.2285,1.2231,1.2218,1.2291,1.2305,1.2305,1.2305,1.2305,1.2171,1.1913,1.1906,1.1866,1.175,1.175,1.1891,1.2184,1.2184,1.2225,1.2305,1.2305,1.2305,2.0182,2.0978,2.19,2.4202,2.633,2.8188,2.9406,3.0945,3.2471,3.3769,3.4053,3.4473,3.5762,3.6016,3.6318,3.7158,3.7215,3.5732,3.1553,3.0684,2.8838,2.4657,2.3948,2.3654,2.3354,2.3053,2.2941,2.2928,2.2599,2.2425,2.2405,2.1871,2.1621,2.1608,2.1263,2.0969,2.0681,2.0381,2.0087,1.98,1.9506,1.9424,1.9417,1.9065,1.8771,1.8477,1.8176,1.7709,1.7213,1.7206,1.6864,1.6348,1.6328,1.6092,1.5791,1.5784,1.5683,1.5635,1.573,1.573,1.5683,1.5784,1.5784,1.5784,1.5784,1.5784,1.5784,1.5784,1.5784,1.5758,1.5471,1.5177,1.4934,1.4589,1.4302,1.4008,1.368,1.3387,1.312,1.2857,1.2512,1.2305,1.2305,1.2305,1.2305,1.2305,1.2305,1.2204,1.1953,1.163,1.1635,1.2238,1.2087,1.2033,1.2278,1.2305,1.2305,1.2305,1.2305,1.2171,1.1913,1.1906,1.173,1.1409,1.1409,1.1583,1.1919,1.1919,1.2067,1.2305,1.2305,1.2305,1.9236,2.078,2.2455,2.3417,2.512,2.7056,2.8875,2.9718,3.0672,3.2471,3.2812,3.2939,3.3379,3.415,3.501,3.5889,3.6514,3.5614,3.1946,3.1048,2.9083,2.4484,2.3828,2.3574,2.3066,2.3113,2.3086,2.2879,2.2585,2.2338,2.2138,2.1764,2.1527,2.1263,2.0975,2.0775,2.0675,2.0,1.9706,1.98,1.9506,1.9265,1.9065,1.8965,1.8657,1.8135,1.8035,1.7709,1.7186,1.6934,1.6627,1.6301,1.6052,1.5919,1.5784,1.5784,1.5784,1.5784,1.5784,1.5242,1.4657,1.5534,1.5784,1.5784,1.5784,1.5784,1.5784,1.5784,1.5784,1.5718,1.5237,1.5082,1.4881,1.4349,1.4162,1.4008,1.3666,1.3373,1.312,1.2844,1.2543,1.2305,1.2305,1.2305,1.2305,1.2305,1.2305,1.2198,1.194,1.1819,1.1717,1.1688,1.181,1.1946,1.204,1.2191,1.2305,1.2305,1.2305,1.2171,1.1913,1.1683,1.153,1.1395,1.1236,1.1376,1.1906,1.1906,1.2053,1.2305,1.2305,1.2305,1.9225,2.0555,2.1874,2.2299,2.3764,2.5533,2.7011,2.8272,2.9505,3.0987,3.1542,3.1807,3.2109,3.2715,3.3496,3.4521,3.5283,3.4876,3.2275,3.1591,2.9789,2.5428,2.4861,2.4363,2.3289,2.3273,2.3153,2.2732,2.2432,2.2138,2.1844,2.1557,2.1303,2.1116,2.0828,2.0621,2.0514,1.9753,1.9359,1.9332,1.9145,1.8951,1.8764,1.8657,1.8288,1.7876,1.7769,1.7388,1.6871,1.6627,1.638,1.6092,1.5905,1.5784,1.5784,1.5784,1.5784,1.5784,1.5784,1.5242,1.4704,1.5534,1.5784,1.5784,1.5784,1.5784,1.5784,1.5784,1.5784,1.5698,1.5162,1.5008,1.4861,1.4229,1.4088,1.3975,1.3533,1.33,1.3086,1.271,1.2432,1.2305,1.2305,1.2305,1.2305,1.2305,1.2305,1.2198,1.194,1.1718,1.1523,1.1395,1.1597,1.171,1.171,1.1977,1.2104,1.1997,1.1991,1.1857,1.1605,1.1376,1.1223,1.1122,1.1035,1.1397,1.227,1.234,1.2721,1.3346,1.3346,1.3346,1.9933,2.0193,2.0353,2.0969,2.2278,2.3594,2.4081,2.6566,2.8963,2.9498,3.0206,3.1006,3.1855,3.1719,3.1904,3.3184,3.3828,3.3846,3.2734,3.2399,3.0907,2.7433,2.6768,2.5896,2.3975,2.35,2.3073,2.2465,2.2151,2.1864,2.1655,2.1276,2.1102,2.1089,2.0808,2.0501,2.0133,1.9613,1.9045,1.849,1.849,1.849,1.8477,1.8163,1.7856,1.7542,1.7306,1.6851,1.6321,1.6321,1.6099,1.5784,1.5784,1.5784,1.5784,1.5784,1.5784,1.5784,1.5784,1.5784,1.5784,1.5784,1.5784,1.5784,1.5784,1.5784,1.5784,1.5784,1.5784,1.5698,1.5182,1.5022,1.4861,1.4242,1.4095,1.3928,1.334,1.3213,1.3026,1.2425,1.2305,1.2305,1.2305,1.2305,1.2305,1.2305,1.2285,1.2178,1.1919,1.1363,1.1109,1.1322,1.1362,1.1369,1.1369,1.169,1.1744,1.1409,1.1422,1.1343,1.1049,1.1102,1.0974,1.0667,1.1012,1.1748,1.2905,1.3213,1.398,1.5199,1.5199,1.5199,2.0449,2.0555,2.0922,2.1069,2.1418,2.2118,2.3429,2.437,2.5602,2.7842,2.8195,2.8405,2.9531,3.0459,3.1465,3.2744,3.4404,3.5075,3.3657,3.3691,3.2156,2.754,2.6971,2.6073,2.4001,2.35,2.3073,2.2465,2.2151,2.1951,2.1877,2.139,2.1009,2.0795,2.0501,2.01,1.9593,1.9005,1.8637,1.849,1.849,1.849,1.847,1.7943,1.7542,1.7293,1.6947,1.6613,1.6321,1.6321,1.6099,1.5784,1.5784,1.5784,1.5784,1.5784,1.5784,1.5784,1.5784,1.5784,1.5784,1.5784,1.5784,1.5784,1.5784,1.5784,1.5784,1.5784,1.5784,1.5698,1.5384,1.5169,1.4914,1.4496,1.4249,1.3928,1.334,1.3213,1.3026,1.2425,1.2305,1.2305,1.2305,1.2305,1.2305,1.2305,1.2118,1.1877,1.1577,1.1375,1.1176,1.0854,1.0975,1.1102,1.1102,1.157,1.1744,1.1409,1.1837,1.1951,1.1692,1.2331,1.2365,1.1571,1.2814,1.3367,1.3209,1.3968,1.4635,1.5199,1.5199,1.5199,2.0787,2.0855,2.1109,2.1109,2.1109,2.1288,2.1932,2.2659,2.3723,2.5665,2.5709,2.588,2.7217,2.8501,2.9647,3.0638,3.2922,3.4467,3.4261,3.4433,3.3031,2.8908,2.8318,2.712,2.4255,2.3574,2.3126,2.2652,2.2225,2.1871,2.1617,2.1289,2.0975,2.0688,2.0388,1.9833,1.8991,1.8524,1.823,1.809,1.809,1.809,1.807,1.7468,1.7108,1.6985,1.6506,1.6226,1.6079,1.6079,1.5979,1.5784,1.5784,1.5784,1.5784,1.5784,1.5784,1.5784,1.5784,1.5784,1.5784,1.5784,1.5784,1.5784,1.5784,1.5784,1.5784,1.5784,1.5784,1.5732,1.5311,1.5129,1.4901,1.4429,1.4208,1.3928,1.334,1.3273,1.322,1.2612,1.2392,1.2305,1.2305,1.2305,1.2305,1.2305,1.2164,1.1957,1.1657,1.151,1.1202,1.0653,1.1082,1.1276,1.1015,1.1564,1.1744,1.1409,1.1737,1.1844,1.1683,1.2602,1.2878,1.2332,1.3739,1.4479,1.4516,1.5223,1.5834,1.6446,1.6446,1.6446,2.1099,2.1169,2.1156,2.1122,2.1109,2.0955,2.0368,2.1293,2.2562,2.3296,2.3398,2.3766,2.5005,2.6417,2.7614,2.818,3.0828,3.317,3.4185,3.4615,3.366,3.0517,3.0168,2.8723,2.514,2.4272,2.3659,2.3168,2.275,2.2145,2.1196,2.1278,2.1146,2.0575,2.0194,1.9512,1.8504,1.8156,1.7869,1.7642,1.7602,1.7602,1.7622,1.6994,1.6707,1.6673,1.6037,1.5784,1.5784,1.5784,1.5784,1.5784,1.5784,1.5784,1.5784,1.5784,1.5784,1.5784,1.5784,1.5784,1.5784,1.5784,1.5784,1.5784,1.5784,1.5784,1.5784,1.5784,1.5784,1.5705,1.5164,1.5035,1.4867,1.4275,1.4115,1.3928,1.334,1.3307,1.3273,1.2824,1.2516,1.2305,1.2305,1.2305,1.2305,1.2305,1.2271,1.2151,1.194,1.1643,1.1276,1.0767,1.139,1.1603,1.1096,1.1557,1.1807,1.1614,1.1668,1.1758,1.182,1.2837,1.3341,1.3206,1.4468,1.547,1.6178,1.6567,1.7207,1.8008,1.8008,1.8008,2.1889,2.1541,2.148,2.1169,2.1109,2.0955,2.0368,2.0409,2.0809,2.1425,2.2458,2.3249,2.337,2.5953,2.826,2.863,3.1009,3.2719,3.2567,3.4146,3.3791,2.9856,3.0676,3.053,2.7904,2.7379,2.6351,2.4305,2.5095,2.4439,2.1669,2.2297,2.1872,2.0027,1.9199,1.8698,1.8497,1.7943,1.7762,1.7909,1.7702,1.7716,1.7882,1.7088,1.6707,1.6673,1.6037,1.5784,1.5784,1.5784,1.5784,1.5784,1.5784,1.5784,1.5784,1.5784,1.5784,1.5784,1.5784,1.5784,1.5784,1.5784,1.5784,1.5784,1.5784,1.5784,1.5784,1.5784,1.5784,1.5752,1.5411,1.5189,1.4921,1.4529,1.4262,1.3928,1.334,1.2852,1.2505,1.2398,1.2338,1.2305,1.2305,1.2305,1.2305,1.2305,1.2098,1.196,1.1913,1.1859,1.1657,1.1309,1.141,1.1429,1.1329,1.167,1.2123,1.2601,1.3072,1.3552,1.4084,1.5326,1.5601,1.4806,1.6519,1.7148,1.6528,1.736,1.7828,1.8008,1.8008,1.8008,2.1842,2.1614,2.1581,2.1376,2.1223,2.0875,1.9987,1.978,1.988,2.0251,2.0418,2.0872,2.2037,2.4367,2.6425,2.763,2.9535,3.1345,3.2597,3.3134,3.2641,3.0472,3.0879,3.0408,2.8048,2.7564,2.6866,2.5565,2.6869,2.6117,2.2466,2.244,2.1712,1.9866,1.8951,1.849,1.849,1.7889,1.7655,1.7802,1.7655,1.7662,1.7776,1.7041,1.6794,1.6894,1.6152,1.5919,1.6046,1.5892,1.5784,1.5784,1.5784,1.5784,1.5784,1.5784,1.5784,1.5784,1.5784,1.5784,1.5784,1.5784,1.5784,1.5784,1.5784,1.5784,1.5784,1.5784,1.5784,1.5732,1.5284,1.5115,1.4894,1.4402,1.4068,1.3821,1.3694,1.32,1.2772,1.2772,1.2645,1.2485,1.2325,1.2432,1.2516,1.2325,1.2355,1.2308,1.2118,1.2091,1.1924,1.1435,1.1662,1.2029,1.2353,1.2657,1.3198,1.4047,1.4348,1.462,1.4942,1.6009,1.6393,1.593,1.7295,1.7794,1.732,1.7794,1.8008,1.8008,1.8008,1.8008,2.1728,2.1755,2.171,2.1648,2.1376,2.0882,1.9705,1.9424,1.936,1.9182,1.871,1.8855,2.0534,2.2266,2.3989,2.5564,2.7338,2.9291,3.1634,3.1733,3.1377,3.0867,3.0983,3.0311,2.8388,2.8034,2.7569,2.6862,2.7869,2.703,2.3535,2.2443,2.1198,1.9671,1.8818,1.8397,1.8397,1.7856,1.7582,1.7582,1.7582,1.7582,1.7562,1.7041,1.6894,1.7065,1.6253,1.6019,1.6159,1.5925,1.5784,1.5784,1.5784,1.5784,1.5784,1.5784,1.5784,1.5784,1.5784,1.5784,1.5784,1.5784,1.5784,1.5784,1.5784,1.5784,1.5784,1.5784,1.5784,1.5698,1.5162,1.5008,1.4861,1.4229,1.382,1.3666,1.3941,1.3581,1.3213,1.3213,1.3013,1.288,1.2825,1.2875,1.293,1.3019,1.3074,1.3048,1.2951,1.2908,1.2726,1.2276,1.2449,1.289,1.3625,1.3917,1.445,1.5446,1.5517,1.5587,1.5807,1.6507,1.6888,1.6888,1.7613,1.8008,1.8008,1.8008,1.8008,1.8008,1.8008,1.8008,2.2017,2.2138,2.2211,2.1748,2.1594,2.1199,1.9752,1.9424,1.9082,1.7989,1.8684,1.9153,1.8146,2.0124,2.2025,2.2369,2.4778,2.6718,2.7153,2.9709,3.107,2.9778,3.1082,3.1796,3.1171,3.1094,3.0276,2.8379,2.7629,2.6548,2.4953,2.2839,2.0829,1.9068,1.8355,1.8035,1.8035,1.7749,1.7582,1.7582,1.7582,1.7582,1.7569,1.7306,1.6974,1.6727,1.638,1.6092,1.5818,1.5791,1.5784,1.5784,1.5784,1.5784,1.5784,1.5784,1.5784,1.5784,1.5784,1.5784,1.5784,1.5784,1.5784,1.5784,1.5784,1.5784,1.5784,1.5784,1.5784,1.5698,1.5162,1.5008,1.4861,1.4229,1.382,1.3613,1.3633,1.3393,1.3213,1.3213,1.3186,1.3461,1.441,1.3793,1.3709,1.5258,1.4694,1.4267,1.4856,1.4914,1.4925,1.4852,1.4096,1.3983,1.4937,1.504,1.5473,1.6419,1.6454,1.6853,1.7725,1.7828,1.7872,1.7872,1.7974,1.8008,1.8008,1.8008,1.8008,1.8008,1.8008,1.8008,2.1917,2.2198,2.2318,2.1911,2.1543,2.0949,1.9659,1.9232,1.8811,1.7796,1.8042,1.8506,1.876,1.9723,2.1091,2.3079,2.3736,0.0,2.7591,2.8501,2.9219,3.0191,3.0961,3.1328,3.1162,3.1143,3.0703,2.9592,2.8672,2.7112,2.4543,2.3326,2.1514,1.8981,1.8295,1.7995,1.7995,1.7736,1.7582,1.7582,1.7582,1.7582,1.7569,1.7333,1.7139,1.6947,1.648,1.6206,1.6079,1.5905,1.5784,1.5784,1.5784,1.5784,1.5784,1.5784,1.5784,1.5784,1.5784,1.5784,1.5784,1.5784,1.5784,1.5784,1.5784,1.5784,1.5784,1.5784,1.5784,1.5698,1.5162,1.4747,1.4419,1.4142,1.4001,1.3908,1.3908,1.3821,1.3687,1.3467,1.3427,1.3721,1.4645,1.4621,1.4833,1.5988,1.5713,1.5442,1.5563,1.5367,1.5411,1.5965,1.5199,1.4985,1.5965,1.6035,1.6428,1.7398,1.7432,1.7613,1.7974,1.8008,1.8008,1.8008,1.8008,1.8008,1.8008,1.8008,1.8008,1.8008,1.8008,1.8008,2.149,2.1937,2.2218,2.1931,2.1416,2.0695,1.9613,1.9072,1.8564,1.7749,1.7582,1.7891,1.8812,1.902,1.9784,2.2086,0.0,2.3733,2.6985,2.7558,2.837,3.0295,3.0391,3.041,3.0664,3.0684,3.0498,3.0049,2.9336,2.7599,2.4564,2.4088,2.2218,1.8642,1.8043,1.7742,1.7596,1.7522,1.7408,1.7321,1.7408,1.7408,1.7315,1.7159,1.7025,1.6918,1.6502,1.6219,1.6126,1.5912,1.5784,1.5784,1.5784,1.5784,1.5784,1.5784,1.5784,1.5784,1.5784,1.5784,1.5784,1.5784,1.5784,1.5784,1.5784,1.5784,1.5764,1.5678,1.5638,1.5478,1.5115,1.4529,1.4088,1.4088,1.4088,1.4088,1.4088,1.4334,1.4511,1.4248,1.4494,1.4977,1.5874,1.596,1.6198,1.7136,1.6917,1.6587,1.6471,1.6219,1.6298,1.6922,1.6437,1.6298,1.6957,1.6991,1.7285,1.7974,1.8008,1.8008,1.8008,1.8008,1.8008,1.8008,1.8008,1.8008,1.8008,1.8008,1.8008,1.8008,1.8008,1.8008,2.0688,2.1329,2.1924,2.1695,2.1179,2.0454,1.9625,1.8918,1.8317,1.7709,1.7582,1.7582,1.7635,1.7635,1.7735,1.7996,2.0773,0.0,2.3944,2.6848,2.9037,2.9531,2.9199,2.9277,3.0117,3.0205,3.0029,2.9665,2.917,2.7867,2.5495,2.5133,2.2724,1.7767,1.7367,1.7065,1.6727,1.7058,1.7058,1.6714,1.7065,1.7052,1.6714,1.6714,1.6553,1.6328,1.6279,1.6106,1.5784,1.5784,1.5784,1.5784,1.5784,1.5784,1.5784,1.5784,1.5784,1.5784,1.5784,1.5784,1.5784,1.5784,1.5784,1.5784,1.5784,1.5784,1.5718,1.5484,1.5197,1.5015,1.5008,1.4529,1.4088,1.4088,1.4088,1.4088,1.4088,1.4936,1.5696,1.5696,1.6552,1.7617,1.874,1.802,1.7723,1.9073,1.8387,1.7752,1.7944,1.7974,1.7974,1.7974,1.7974,1.7974,1.7974,1.7974,1.7974,1.8008,1.8008,1.8008,1.8008,1.8008,1.8008,1.8008,1.8008,1.8008,1.8008,1.8008,1.8008,1.8008,1.8008,1.8008,1.9967,2.0428,2.0722,2.0428,2.0067,1.9606,1.8925,1.8464,1.807,1.7662,1.7582,1.7582,1.7582,1.7582,1.7925,1.8955,2.1,2.2879,2.4053,2.6692,2.8652,2.9072,2.9805,3.0371,3.0644,3.0127,2.9717,2.9636,2.8633,2.7204,2.5238,2.4726,2.2817,1.9079,1.8709,1.7951,1.6707,1.68,1.68,1.6707,1.68,1.68,1.6707,1.6707,1.6547,1.6321,1.6321,1.6106,1.5784,1.5784,1.5784,1.5784,1.5784,1.5784,1.5784,1.5784,1.5784,1.592,1.6803,1.6527,1.592,1.6803,1.7084,1.7041,1.6856,1.6199,1.5518,1.5424,1.5037,1.471,1.4955,1.4529,1.4088,1.4088,1.4088,1.4292,1.5054,1.5455,1.5902,1.6642,1.705,1.7666,1.8798,1.8718,1.8737,1.957,1.9205,1.8816,1.888,1.8623,1.8403,1.8403,1.8403,1.8403,1.8403,1.8174,1.8135,1.8383,1.813,1.8008,1.8008,1.8008,1.8008,1.8008,1.8008,1.8008,1.8008,1.8008,1.8008,1.8008,1.8008,1.8008,1.9145,1.9599,1.986,1.9679,1.9332,1.8938,1.8577,0.0,1.7816,1.7622,1.7582,1.7582,1.7582,1.7582,1.8042,1.9376,2.1095,2.2875,2.4571,2.6797,2.8447,2.8867,2.9932,3.0508,3.0176,2.9795,2.9558,2.9336,2.8291,2.7072,2.5638,2.5107,2.3488,2.0579,1.9541,1.8399,1.71,1.6726,1.6486,1.638,1.6486,1.6486,1.6373,1.6373,1.6273,1.6106,1.6106,1.5999,0.0,1.5784,1.5784,1.5784,1.5784,1.5784,1.5784,1.5784,1.6109,1.6622,1.7412,1.7498,1.7343,1.8133,1.8003,1.74,1.6929,1.6401,1.5847,1.5361,1.489,1.4563,1.475,1.4442,1.4088,1.4088,1.4412,1.4776,1.5054,1.6067,1.7009,1.7253,1.798,1.8789,1.9481,1.9599,1.9607,1.9653,1.959,1.9404,1.9082,1.8955,1.8851,1.8851,1.8705,1.8734,1.9056,1.8549,1.8393,1.8857,1.8442,1.8217,1.8217,1.8096,1.8008,1.8008,1.8008,1.8008,1.8008,1.8008,1.8008,1.8008,1.8008,1.8008,0.0,1.8824,1.9296,1.9296,1.8831,1.8424,1.8424,0.0,0.0,1.7582,1.7562,1.7555,1.7582,1.7687,1.8146,1.9428,2.1223,2.321,2.5208,2.7163,2.8506,2.8955,2.9746,2.9912,2.9043,2.9336,2.9375,2.8906,2.8096,2.7246,2.6387,2.5928,2.4565,2.2199,2.0037,1.8553,1.7692,1.6861,1.6195,1.5784,1.6112,1.6092,1.5784,1.5784,1.5825,1.592,1.592,1.592,1.592,1.592,1.5879,1.5784,1.5784,1.5784,1.5784,1.5784,1.6622,1.7684,1.7755,1.851,1.9455,1.9513,1.8552,1.7272,1.6541,1.6477,1.6389,1.528,1.4723,1.4496,1.4596,1.4431,1.425,1.4292,1.5095,1.5538,1.4657,1.6854,1.8718,1.7747,1.9186,2.0605,2.0605,2.0605,2.0321,1.9453,1.9668,1.9592,1.8792,1.9082,1.9336,1.9336,1.8939,1.8997,1.9805,1.9075,1.8802,1.9307,1.8926,1.8646,1.8646,1.8276,1.8105,1.8105,1.8105,1.8105,1.8105,1.8066,1.8057,1.8057,1.8018,1.8008,1.7756,0.0,1.8003,1.8003,1.7896,1.7796,0.0,0.0,0.0,0.0,0.0,0.0,0.0,1.8454,1.922,1.9524,2.2299,2.4425,2.4557,2.6996,2.9053,2.9805,3.0391,3.0381,2.9502,2.9567,2.9258,2.8496,2.7646,2.6787,2.5888,2.5469,2.4682,2.3403,2.1968,2.0107,1.7738,1.7485,1.6834,1.5784,1.5899,1.5899,1.5784,1.5784,1.6339,1.7271,1.7271,1.7271,1.7271,1.7271,1.6669,1.5784,1.5784,1.5784,1.5784,1.5784,1.6622,1.7786,1.8334,1.8726,1.9071,1.9661,1.9643,1.9256,1.8882,1.7043,1.4959,1.471,1.4416,1.4448,1.5455,1.5529,1.5545,1.6363,1.6731,1.709,1.7698,1.8479,1.9155,1.9717,2.0235,2.0605,2.0605,2.0605,2.0419,1.9844,1.9853,1.9844,1.9602,1.9697,1.9766,1.9766,1.9678,1.9561,1.9443,1.8909,1.8929,1.9717,1.9365,1.9131,1.9131,1.9043,1.8984,1.8984,1.8984,1.8984,1.8984,1.8617,1.8451,1.8451,1.812,1.8008,1.8349,1.8151,1.7796,1.7796,1.7689,1.7582,1.7582,0.0,0.0,0.0,0.0,0.0,0.0,2.0107,2.0984,2.143,2.3461,2.5292,2.6031,2.7593,2.9023,3.0068,3.0068,2.9883,2.96,2.9385,2.8916,2.8066,2.7393,2.6553,2.5488,2.501,2.4375,2.3516,2.2853,2.15,1.936,1.8226,1.7638,1.7483,1.6332,1.6109,1.6662,1.6662,1.7037,1.7731,1.828,1.8549,1.8503,1.7917,1.7502,1.7091,1.6142,1.5933,1.613,1.5913,1.6757,1.8116,1.8604,1.9416,2.0177,1.9901,1.9808,1.9653,1.881,1.7414,1.6046,1.5856,1.5839,1.6027,1.6502,1.6695,1.684,1.7212,1.7698,1.8109,1.8189,1.9036,1.9766,1.9844,2.0245,2.0605,2.0605,2.0605,2.0458,1.998,2.0088,2.0137,1.9941,2.0088,2.0215,2.0215,2.0029,1.9902,1.9911,1.9473,1.9387,1.9883,1.9521,1.9375,1.957,1.9394,1.9287,1.9287,1.9287,1.9287,1.9287,1.8812,1.8705,1.8926,1.8461,1.8301,1.9147,1.8995,1.8455,1.8514,1.8358,1.8077,1.7875,0.0,0.0,0.0,0.0,0.0,0.0,2.1769,2.2698,2.3659,2.4751,2.6216,2.8286,2.8584,2.8965,2.998,2.9521,2.918,2.9355,2.9043,2.8476,2.7627,2.71,2.6279,2.5086,2.456,2.3955,2.312,2.3091,2.2633,2.1569,1.936,1.868,1.9488,1.739,1.6936,1.7956,1.7956,1.8095,1.8326,1.9314,1.9761,1.9716,1.868,1.8383,1.8398,1.6657,1.6306,1.664,1.6107,1.71,1.8782,1.9062,2.0292,2.1489,2.0183,1.9656,1.9259,1.7961,1.7844,1.8078,1.7736,1.7804,1.7921,1.7637,1.7852,1.8094,1.7855,1.855,1.8997,1.802,1.9274,2.0323,1.9402,1.9962,2.0605,2.0605,2.0605,2.0478,2.0068,2.037,2.0468,2.0059,2.0332,2.0605,2.0605,2.0234,2.0137,2.0478,2.0068,1.9844,1.9912,1.9648,1.9648,2.0,1.9609,1.9414,1.9519,1.9424,1.9414,1.9519,1.9043,1.8987,1.9375,1.8936,1.8705,1.892,1.9867,2.0551,2.1016,2.0806,2.0192,1.9166,0.0,0.0,0.0,0.0,0.0,0.0,2.2045,2.3171,2.4079,2.621,2.829,2.9736,2.9902,2.9844,2.9687,2.9863,2.96,2.8584,2.8428,2.8037,2.7178,2.6387,2.5469,2.457,2.4121,2.3662,2.311,2.3091,2.3003,2.2818,2.1445,2.035,1.9497,1.9131,1.9039,1.9222,1.9222,1.9761,2.0755,2.0935,2.1025,2.1025,2.08,1.9437,1.7432,1.713,1.704,1.7064,1.6632,1.8125,2.0406,2.0716,2.0803,2.0752,2.0527,1.9811,1.9038,1.8816,1.8794,1.8901,1.9169,1.8626,1.8095,1.8615,1.8803,1.9078,1.9893,2.0235,2.0323,2.0118,2.0362,2.0557,2.0401,2.0489,2.0605,2.0605,2.0605,2.0586,2.0517,2.0556,2.0576,2.0517,2.0566,2.0605,2.0605,2.0546,2.038,2.0039,1.9629,1.9541,1.9893,2.0195,2.0439,2.0507,2.0049,1.999,2.04,2.001,2.0,2.041,1.9932,1.9756,1.9805,1.9385,1.9189,1.941,2.0477,2.1509,2.337,2.3106,2.2135,2.1083,0.0,0.0,0.0,0.0,0.0,0.0,2.427,2.5607,2.6943,2.781,2.8574,2.9394,2.9121,2.8926,2.9189,2.8984,2.8691,2.833,2.8086,2.7598,2.6738,2.6309,2.5605,2.4473,2.4228,2.3818,2.312,2.3091,2.3091,2.3091,2.2536,2.1987,2.1454,2.0133,1.9852,2.0486,2.0486,2.08,2.1337,2.1987,2.2262,2.2199,2.1341,2.049,1.9618,1.8261,1.794,1.8136,1.7971,1.8938,2.0368,2.0751,2.0732,2.0489,1.9923,1.9795,1.9766,1.9195,1.9715,2.0564,2.0485,2.0101,1.9802,2.012,2.0193,2.0256,2.0537,2.0605,2.0605,2.0605,2.0605,2.0605,2.0605,2.0605,2.0605,2.0605,2.0762,2.084,2.0644,2.0771,2.084,2.0635,2.0605,2.0605,2.0605,2.0605,2.0517,2.0283,2.0126,1.9863,1.959,2.0233,2.0605,2.0605,2.0146,2.0117,2.0595,2.0137,2.0127,2.0605,1.9902,1.9814,2.0254,1.959,1.9404,1.9774,2.0856,2.1961,2.4841,2.4693,2.3626,2.2953,2.2422,0.0,0.0,0.0,0.0,2.5013,2.6201,2.748,2.8896,2.874,2.8594,2.9014,2.8516,2.831,2.8857,2.8262,2.79,2.8125,2.7676,2.71,2.6435,2.6103,2.5478,2.4473,2.4228,2.3773,2.312,2.3091,2.3091,2.3091,2.3091,2.3091,2.3091,2.1221,2.0809,2.1702,2.1702,2.1702,2.1756,2.2677,2.3042,2.2872,2.1652,2.1231,2.1164,1.9278,1.8789,1.9172,1.9421,1.9846,2.0311,2.0544,2.0605,2.0459,1.976,1.9907,2.0241,1.9491,2.0335,2.1435,2.1214,2.1175,2.119,2.119,2.1112,2.0986,2.0683,2.0605,2.0605,2.0605,2.0605,2.0635,2.0742,2.0674,2.0635,2.0703,2.1006,2.1123,2.0771,2.1103,2.1221,2.0781,2.0723,2.0684,2.0615,2.0605,2.0566,2.0458,2.0546,2.0282,1.9482,2.0184,2.0605,2.0605,2.0146,2.0117,2.0595,2.0137,2.0127,2.0605,1.995,1.9959,2.0586,1.993,1.9756,1.9454,2.0762,2.1991,2.4507,2.4732,2.4355,2.4336,2.4262,0.0,2.3813,0.0,2.5499,2.5635,2.6366,2.7187,2.7767,2.8408,2.9023,2.9463,2.9528,2.9307,2.8955,2.8525,2.8105,2.7796,2.6963,2.6455,2.6396,2.5254,2.4512,2.4424,2.3617,2.3159,2.3091,2.3091,2.3091,2.3091,2.3091,2.3091,2.3091,2.2906,2.2916,2.296,2.296,2.296,2.296,2.3047,2.2877,2.2516,2.2434,2.1324,1.9752,1.9579,1.9502,1.9661,2.068,2.106,2.1041,2.0732,2.0605,2.0635,2.0935,2.0429,1.9734,2.0005,2.0201,2.0404,2.0793,2.1061,2.119,2.119,2.0928,2.0644,2.0615,2.0605,2.0605,2.0605,2.0605,2.0723,2.1064,2.085,2.0742,2.1073,2.1171,2.1181,2.1151,2.1562,2.168,2.12,2.1142,2.1025,2.0644,2.0605,2.0439,2.0,2.0332,2.04,1.9902,2.0303,2.0605,2.0605,2.0146,2.0117,2.0595,2.0137,2.0127,2.0605,2.0537,2.0546,2.0605,2.0537,2.0527,1.8138,1.9958,2.1735,2.318,2.4211,0.0,0.0,2.5681,2.5509,2.5109,2.5594,2.6143,2.6143,2.7051,2.7861,2.8027,2.8769,2.9199,2.8828,2.8779,2.8516,2.7812,2.7598,2.7334,2.6914,2.6582,2.6162,2.5605,2.5107,2.459,2.4053,2.3721,2.3418,2.3101,2.3091,2.3091,2.3091,2.3091,2.2964,2.2711,2.2974,2.3091,2.3081,2.2828,2.2711,2.2691,2.2471,2.2266,2.21,2.1826,2.1269,2.0569,2.0334,2.0351,2.0609,2.075,2.0996,2.1132,2.0723,2.0752,2.1016,2.1142,2.1122,2.1056,2.1218,2.1436,2.1674,2.1836,2.197,2.2031,2.2031,2.1504,2.0986,2.0986,2.1191,2.1309,2.1045,2.0986,2.1113,2.1553,2.1289,2.1123,2.1562,2.1855,2.1943,2.168,2.1777,2.1728,2.1249,2.0986,2.0859,2.0967,2.0986,2.0801,2.0352,2.0507,2.0537,2.037,2.0517,2.0605,2.0605,2.0146,2.0117,2.0595,2.0137,2.0127,2.0605,2.0293,2.0303,2.0595,2.0283,2.0303,1.7512,1.936,2.117,2.2253,0.0,0.0,2.6162,2.6279,2.625,2.6494,2.6465,2.6426,2.6562,2.708,2.7529,2.7666,2.8291,2.8555,2.7969,2.7891,2.7676,2.708,2.6777,2.6553,2.6406,2.6016,2.5576,2.5145,2.4861,2.445,2.3818,2.3662,2.3447,2.311,2.3091,2.3033,2.2896,2.2896,2.2734,2.2314,2.2607,2.2701,2.2691,2.2441,2.2314,2.2295,2.2012,2.1807,2.165,2.1317,2.1112,2.0996,2.0723,2.084,2.1142,2.0732,2.0937,2.1357,2.0811,2.0947,2.1416,2.1239,2.1533,2.1904,2.2041,2.2197,2.2373,2.2637,2.2519,2.2373,2.2604,2.1931,2.119,2.119,2.1465,2.1641,2.1475,2.1405,2.1572,2.2002,2.1738,2.1572,2.2012,2.2324,2.2412,2.2129,2.2197,2.2129,2.1658,2.1367,2.1191,2.119,2.119,2.1055,2.0644,2.0732,2.0752,2.0615,2.0742,2.0752,2.0615,2.0283,2.0254,2.0595,2.0273,2.0273,2.0605,2.0264,2.0273,2.0595,2.0254,2.0283,1.7738,1.8957,2.0312,2.1978,0.0,0.0,2.6094,2.6055,2.6181,2.793,2.7275,2.6523,2.6934,2.6318,2.5889,2.6358,2.6789,2.7012,2.7012,2.7002,2.7002,2.7002,2.624,2.5889,2.6328,2.5185,2.459,2.5067,2.4268,2.3789,2.3779,2.3369,2.3091,2.3091,2.3091,2.2886,2.2519,2.251,2.2295,2.1875,2.1875,2.1885,2.1885,2.1885,2.1875,2.1875,2.1875,2.1621,2.119,2.119,2.0967,2.0605,2.0605,2.084,2.1132,2.0772,2.1163,2.1748,2.0909,2.1182,2.1807,2.1337,2.1533,2.1963,2.2383,2.2217,2.206,2.2847,2.2529,2.209,2.2867,2.2155,2.121,2.12,2.121,2.1327,2.1787,2.1894,2.2012,2.2441,2.2178,2.2021,2.2441,2.2519,2.2519,2.2519,2.2828,2.2935,2.2559,2.251,2.2187,2.1288,2.12,2.1055,2.0644,2.0977,2.1045,2.0635,2.0986,2.1035,2.0625,2.0605,2.0605,2.0605,2.0605,2.0605,2.0605,2.0605,2.0605,2.0605,2.0605,2.0605,1.6436,1.8474,2.0676,2.1168,2.3318,0.0,0.0,2.6504,0.0,0.0,2.7305,2.6777,2.6602,2.7262,2.7752,2.7318,2.8585,2.9504,2.916,2.878,2.8447,2.8172,2.6842,2.6044,2.6177,2.5093,2.4346,2.4189,2.3935,2.3652,2.335,2.293,2.2789,2.3081,2.2568,2.2344,2.251,2.2217,2.1855,2.1385,2.1385,2.1592,2.1875,2.1562,2.1385,2.1406,2.1094,2.0928,2.0762,2.0762,2.0723,2.0605,2.0605,2.0683,2.0752,2.0654,2.0772,2.0957,2.0693,2.0947,2.1366,2.1239,2.1533,2.1904,2.2031,2.1982,2.1934,2.2187,2.2295,2.2314,2.2266,2.2197,2.206,2.1768,2.1924,2.209,2.1924,2.2119,2.2451,2.2828,2.2617,2.2461,2.2838,2.2906,2.2906,2.2906,2.2769,2.2549,2.2129,2.2324,2.2187,2.1288,2.1514,2.1387,2.0664,2.0977,2.1045,2.0635,2.0986,2.1035,2.0625,2.0605,2.0605,2.0605,2.0605,2.0605,2.0605,2.0605,2.0605,2.0605,2.0605,2.0732,1.6192,1.7962,2.0143,2.1164,2.3269,2.5488,2.6703,2.708,2.739,2.8233,2.7904,2.7541,2.7798,2.8369,2.8703,2.8373,2.9184,2.9749,2.9494,2.8979,2.8511,2.8277,2.7206,2.6548,2.6731,2.5413,2.452,2.444,2.388,2.3418,2.311,2.2744,2.2662,2.3081,2.2324,2.2012,2.2266,2.1846,2.1406,2.0967,2.0967,2.1113,2.1348,2.1094,2.0967,2.0957,2.0723,2.0605,2.0605,2.0605,2.0605,2.0605,2.0605,2.0605,2.0605,2.0605,2.0713,2.081,2.0664,2.0977,2.1435,2.1084,2.1269,2.1621,2.1621,2.1504,2.1476,2.1787,2.1943,2.2021,2.2109,2.2197,2.2236,2.2158,2.2324,2.249,2.2402,2.2578,2.2789,2.3042,2.2886,2.2799,2.3052,2.3091,2.3091,2.3091,2.2877,2.2676,2.2412,2.2461,2.2256,2.1562,2.1572,2.1416,2.0879,2.124,2.1377,2.1143,2.1494,2.1553,2.1153,2.0791,2.0693,2.083,2.0693,2.0605,2.0605,2.0605,2.0605,2.0605,2.0605,2.0752,1.6593,1.7563,1.9086,2.1528,2.3289,2.4886,2.6608,2.7617,2.8407,2.9208,2.8781,2.862,2.9739,2.9431,2.9094,2.9353,2.9116,2.8867,2.8867,2.8339,2.7969,2.7969,2.7498,2.7332,2.7695,2.5958,2.4965,2.5319,2.3954,2.3081,2.3042,2.2643,2.2627,2.2974,2.2207,2.1787,2.1826,2.1396,2.0967,2.0605,2.0605,2.0605,2.0605,2.0605,2.0605,2.0605,2.0556,2.0546,2.0546,2.0546,2.0546,2.0546,2.0586,2.0605,2.0605,2.0605,2.082,2.1073,2.0742,2.1134,2.1631,2.0869,2.084,2.1132,2.1132,2.0889,2.0772,2.1543,2.1514,2.1375,2.2197,2.2139,2.1982,2.2363,2.2461,2.2568,2.2945,2.3042,2.3052,2.3091,2.3091,2.3091,2.3091,2.3091,2.3091,2.3091,2.3091,2.3091,2.3091,2.276,2.2412,2.1992,2.1592,2.1298,2.1259,2.1699,2.1924,2.1885,2.2275,2.2344,2.1963,2.1134,2.082,2.119,2.0791,2.0605,2.0605,2.0644,2.0644,2.0605,2.0644,2.0664,1.6346,1.7401,1.8838,2.0344,2.2942,2.5512,2.6692,2.7158,2.7507,2.8315,2.8582,2.8799,2.9269,3.0011,3.0311,2.9675,3.0254,3.078,3.078,3.0339,2.9968,2.9968,2.8757,2.7934,2.7999,2.6063,2.4829,2.4934,2.3807,2.2955,2.2666,2.2246,2.206,2.2158,2.1349,2.1016,2.1327,2.0928,2.0703,2.0605,2.0605,2.0605,2.0605,2.0605,2.0605,2.0586,2.0205,2.0059,2.0059,2.0059,2.0059,2.0088,2.0468,2.0605,2.0605,2.0605,2.0664,2.0732,2.0635,2.0732,2.086,2.0664,2.0674,2.0752,2.0752,2.0683,2.0644,2.084,2.1035,2.1239,2.1424,2.1699,2.1904,2.2002,2.2021,2.2139,2.2559,2.2646,2.2701,2.3033,2.3091,2.3091,2.3091,2.3091,2.3091,2.3091,2.3091,2.3091,2.3091,2.3013,2.2799,2.2422,2.2295,2.21,2.1777,2.2139,2.2236,2.1904,2.2275,2.2471,2.2383,2.1543,2.1093,2.119,2.0791,2.0605,2.0605,2.0918,2.0908,2.0615,2.0928,2.1094,1.6239,1.6966,1.8089,2.0016,2.2971,2.551,2.5867,2.6327,2.6923,2.7762,2.8668,2.9445,2.9715,3.0743,3.1339,3.0565,3.0794,3.1022,3.1022,3.0557,3.0218,3.0218,2.9448,2.8897,2.8897,2.74,2.616,2.5672,2.4553,2.3581,2.2822,2.2217,2.1982,2.2178,2.1133,2.0781,2.119,2.0791,2.0605,2.0605,2.0605,2.0605,2.0605,2.0605,2.0605,2.0576,2.0098,1.9912,1.9902,1.9697,1.9736,1.9932,2.0166,2.0381,2.0605,2.0605,2.0605,2.0605,2.0605,2.0605,2.0605,2.0605,2.0605,2.0605,2.0605,2.0605,2.0605,2.0605,2.0732,2.0967,2.1142,2.1562,2.1885,2.1885,2.1885,2.2002,2.2422,2.251,2.2637,2.3013,2.3091,2.3091,2.3091,2.3091,2.3091,2.3091,2.3091,2.3091,2.3091,2.2916,2.2711,2.2539,2.2334,2.2207,2.2187,2.2383,2.251,2.249,2.2685,2.2769,2.2769,2.2146,2.1804,2.1804,2.1416,2.1241,2.1241,2.1435,2.1426,2.1241,2.1435,2.1553,1.6192,1.656,1.7439,1.99,2.2494,2.4492,2.4591,2.5307,2.6192,2.7112,2.8526,2.9698,3.0181,3.1101,3.1601,3.117,3.0746,3.047,3.047,3.008,2.9792,2.9792,2.9792,2.9792,2.9792,2.8767,2.7643,2.6595,2.5462,2.4224,2.2973,2.2266,2.1973,2.2168,2.1163,2.0742,2.1073,2.0752,2.0605,2.0605,2.0605,2.0566,2.0488,2.0488,2.0488,2.0458,1.9912,1.9697,1.9668,1.9394,1.9492,1.9824,1.9971,2.0244,2.0605,2.0605,2.0605,2.0605,2.0605,2.0605,2.0605,2.0605,2.0605,2.0605,2.0605,2.0605,2.0605,2.0605,2.0605,2.0693,2.1025,2.1445,2.1777,2.1777,2.1836,2.2002,2.2422,2.2461,2.2549,2.3003,2.3091,2.3091,2.3091,2.3091,2.3091,2.3091,2.3091,2.3091,2.3091,2.2789,2.2617,2.2617,2.2305,2.2246,2.2598,2.2617,2.2773,2.3071,2.3091,2.3091,2.3091,2.276,2.2588,2.251,2.21,2.1885,2.1885,2.1963,2.1953,2.1885,2.1963,2.1953,1.6192,0.0,1.7862,1.9353,2.0264,2.1365,2.3373,2.3958,2.4418,2.5674,2.6986,2.8299,2.948,2.9857,2.9963,2.9999,2.9942,2.9905,2.9905,2.9842,2.9792,2.9792,2.9792,2.9792,2.9792,2.8767,2.7643,2.6595,2.5462,2.3999,2.2173,2.1953,2.1603,2.0889,2.0693,2.0635,2.0693,2.0635,2.0605,2.0605,2.0605,2.041,2.0,2.0,2.0,1.9961,1.9114,1.8773,1.8802,1.915,1.9316,1.9443,2.0224,2.0546,2.0605,2.0605,2.0605,2.0605,2.0605,2.0605,2.0605,2.0605,2.0605,2.0605,2.0605,2.0605,2.0605,2.0605,2.0605,2.0615,2.0674,2.0986,2.1278,2.1278,2.1611,2.2002,2.2422,2.2227,2.2197,2.2945,2.3091,2.3091,2.3091,2.3091,2.3091,2.3091,2.3091,2.3091,2.3091,2.3042,2.3013,2.3013,2.2955,2.2955,2.3003,2.3013,2.3033,2.3091,2.3091,2.3091,2.3091,2.3042,2.2838,2.2519,2.21,2.1885,2.1885,2.2246,2.2236,2.1894,2.2266,2.2236,1.6192,1.6673,1.7322,1.8265,1.9174,2.0119,2.1132,2.2005,2.2854,2.377,2.4507,2.5718,2.8116,2.8899,2.9328,2.9749,2.9792,2.9792,2.9792,2.9792,2.9792,2.9792,2.9792,2.9792,2.9792,2.9365,2.8609,2.7493,2.6378,2.5005,2.3268,2.2365,2.1592,2.0967,2.0742,2.0605,2.0605,2.0605,2.0605,2.0595,2.0116,1.9873,1.9893,1.917,1.9111,1.9531,1.887,1.8598,1.8598,1.8584,1.8857,1.9326,1.9734,2.0184,2.0605,2.0605,2.0605,2.0605,2.0605,2.0605,2.0605,2.0605,2.0605,2.0605,2.0605,2.0605,2.0605,2.0605,2.0605,2.0664,2.0879,2.1269,2.1602,2.1602,2.1924,2.2285,2.2471,2.2373,2.2412,2.2974,2.3091,2.3091,2.3091,2.3091,2.3091,2.3091,2.3091,2.3091,2.3091,2.3091,2.3091,2.3091,2.3091,2.3091,2.3091,2.3091,2.3091,2.3091,2.3091,2.3091,2.3091,2.3091,2.3013,2.2818,2.2643,2.2471,2.2236,2.2656,2.2773,2.2598,2.274,2.2721,1.6099,0.0,1.67,1.7141,1.8063,1.8928,1.9279,2.0179,2.1172,2.2,2.2464,2.357,2.6161,2.7657,2.8673,2.9283,2.9624,2.9792,2.9792,2.9792,2.9792,2.9792,2.9792,2.9792,2.9792,2.9792,2.9326,2.8176,2.7128,2.5752,2.4092,2.2684,2.1631,2.1084,2.0781,2.0605,2.0605,2.0488,2.0439,2.0429,1.9648,1.9453,1.9727,1.8769,1.8682,1.9258,1.8711,1.8559,1.8744,1.8467,1.8769,1.9453,1.957,2.0038,2.0605,2.0605,2.0605,2.0605,2.0605,2.0605,2.0605,2.0605,2.0605,2.0605,2.0605,2.0605,2.0605,2.0605,2.0683,2.081,2.1103,2.1641,2.2041,2.2041,2.2363,2.2604,2.2539,2.2598,2.2721,2.3033,2.3091,2.3091,2.3091,2.3091,2.3091,2.3091,2.3091,2.3091,2.3091,2.3091,2.3091,2.3091,2.3091,2.3091,2.3091,2.3091,2.3091,2.3091,2.3091,2.3091,2.3091,2.3091,2.3042,2.2935,2.3042,2.2945,2.2676,2.2945,2.3091,2.3091,2.3091,2.3091,1.5798,1.6072,0.0,1.6382,1.6596,1.7191,1.8461,1.8799,1.9218,2.0626,2.1511,2.2419,2.3617,2.5688,2.741,2.8099,2.9106,2.9792,2.9792,2.9792,2.9792,2.9792,2.9792,2.9792,2.9792,2.9792,2.9326,2.8176,2.7128,2.5639,2.3657,2.2513,2.1494,2.0664,2.0615,2.0605,2.0605,2.0156,1.9951,1.9941,1.9502,1.9297,1.9316,1.9248,1.9248,1.9238,1.8408,1.8506,1.9248,1.9228,1.9482,1.9922,2.037,2.0566,2.0605,2.0605,2.0605,2.0605,2.0605,2.0605,2.0605,2.0605,2.0605,2.0605,2.0605,2.0605,2.0605,2.0605,2.0869,2.1161,2.119,2.1814,2.248,2.248,2.276,2.2955,2.2598,2.2779,2.3062,2.3091,2.3091,2.3091,2.3091,2.3091,2.3091,2.3091,2.3091,2.3091,2.3091,2.3091,2.3091,2.3091,2.3091,2.3091,2.3091,2.3091,2.3091,2.3091,2.3091,2.3091,2.3091,2.3091,2.2906,2.2549,2.2896,2.3081,2.3062,2.3081,2.3091,2.3091,2.3091,2.3091,1.5784,0.0,0.0,1.6274,1.6353,1.6574,1.7051,1.7295,1.7661,1.8633,1.978,2.0925,2.1923,2.4038,2.6151,2.7827,2.8426,2.8976,2.9714,2.9792,2.9792,2.9792,2.9792,2.9792,2.9792,2.9792,2.9624,2.9236,2.7504,2.5924,2.4668,2.2859,2.1515,2.0635,2.0605,2.0605,2.0605,2.0127,1.9912,1.9902,1.9199,1.9014,1.9277,1.8994,1.917,1.9658,1.9082,1.9004,1.9287,1.9287,1.9531,1.9932,2.0088,2.0312,2.0605,2.0605,2.0605,2.0605,2.0605,2.0605,2.0605,2.0605,2.0605,2.0664,2.0908,2.0996,2.1055,2.1328,2.1523,2.1719,2.1982,2.2285,2.2578,2.2808,2.2984,2.3052,2.2906,2.2984,2.3091,2.3091,2.3091,2.3091,2.3091,2.3091,2.3091,2.3091,2.3091,2.3091,2.3091,2.3091,2.3091,2.3091,2.3091,2.3091,2.3091,2.3091,2.3091,2.3091,2.3091,2.3091,2.3091,2.3091,2.3023,2.2877,2.3023,2.2964,2.2744,2.2964,2.3091,2.3091,2.3091,2.3091,1.5784,0.0,0.0,1.6072,1.6126,1.6126,1.6126,1.6273,1.6537,1.6982,1.8169,1.9499,2.0529,2.2293,2.4363,2.6632,2.7643,2.8347,2.9106,2.9585,2.9792,2.9792,2.9792,2.9792,2.9792,2.9792,2.9792,2.9792,2.7758,2.6165,2.5453,2.3185,2.1515,2.0635,2.0605,2.0537,2.039,1.9922,1.9629,1.9446,1.887,1.8867,1.9277,1.9131,1.9453,2.0117,1.9834,1.9754,1.9707,1.9561,1.9746,2.0127,2.0127,2.0312,2.0605,2.0605,2.0605,2.0605,2.0605,2.0605,2.0605,2.0605,2.0703,2.084,2.1103,2.1298,2.1514,2.1807,2.1992,2.2158,2.2441,2.2617,2.275,2.3033,2.3091,2.3091,2.3091,2.3091,2.3091,2.3091,2.3091,2.3091,2.3091,2.3091,2.3091,2.3091,2.3091,2.3091,2.3091,2.3091,2.3091,2.3091,2.3091,2.3091,2.3091,2.3091,2.3091,2.3091,2.3091,2.3091,2.3091,2.3091,2.3091,2.3091,2.3091,2.2955,2.2682,2.2955,2.3091,2.3091,2.3091,2.3091,0.0,0.0,0.0,1.5784,1.5784,1.5784,1.5784,1.5784,1.5784,1.5784,1.6803,1.8048,1.9222,2.044,2.2038,2.4351,2.6562,2.8004,2.8056,2.9028,2.9753,2.9753,2.9792,2.9792,2.9792,2.9792,2.9792,2.9792,2.7758,2.6341,2.5835,2.3289,2.1505,2.0635,2.0605,2.0361,1.9941,1.9512,1.9092,1.8637,1.8627,1.8887,1.9316,1.9727,2.0156,2.0605,2.0605,2.0605,2.0566,2.0107,2.0185,2.0605,2.0605,2.0605,2.0605,2.0605,2.0605,2.0605,2.0605,2.0605,2.0605,2.0615,2.0879,2.12,2.122,2.1562,2.1904,2.1924,2.2217,2.2529,2.2529,2.2789,2.3091,2.3091,2.3091,2.3091,2.3091,2.3091,2.3091,2.3091,2.3091,2.3091,2.3091,2.3091,2.3091,2.3091,2.3091,2.3091,2.3091,2.3091,2.3091,2.3091,2.3091,2.3091,2.3091,2.3091,2.3091,2.3091,2.3091,2.3091,2.3091,2.3091,2.3091,2.3091,2.3091,2.3091,2.3091,2.3091,2.3091,2.3091,2.3091,2.3091,1.5784,0.0,0.0,0.0,0.0,0.0,1.5784,1.5784,1.5784,1.5784,1.6803,1.7777,1.8141,1.9898,2.1515,2.2171,2.4235,2.5994,2.683,2.7855,2.8557,2.8557,2.9314,2.9792,2.9792,2.9792,2.9792,2.9792,2.849,2.71,2.5875,2.2989,2.1152,2.0625,2.0605,2.0546,2.0429,1.9951,1.9678,1.9551,1.9258,1.9326,1.9746,1.9863,2.0156,2.0605,2.0605,2.0605,2.0595,2.0478,2.0498,2.0605,2.0605,2.0605,2.0605,2.0605,2.0605,2.0605,2.0605,2.0605,2.0664,2.0947,2.1093,2.1307,2.1931,2.2246,2.2402,2.2705,2.2838,2.2925,2.2925,2.3013,2.3091,2.3091,2.3091,2.3091,2.3091,2.3091,2.3091,2.3091,2.3091,2.3091,2.3091,2.3091,2.3091,2.3091,2.3091,2.3091,2.3091,2.3091,2.3091,2.3091,2.3091,2.3091,2.3091,2.3091,2.3091,2.3091,2.3091,2.3091,2.3091,2.3091,2.3091,2.3091,2.3091,2.3091,2.3091,2.3091,2.3091,2.3091,2.3091,2.3091,0.0,0.0,0.0,1.5784,0.0,0.0,1.5784,1.5784,1.5784,1.5784,1.6386,1.7084,1.7598,1.9268,2.0702,2.1203,2.2892,2.45,2.5641,2.7105,2.8096,2.8096,2.9106,2.9792,2.9792,2.9792,2.9792,2.9792,2.8319,2.6483,2.4281,2.2483,2.1221,2.0625,2.0605,2.0517,2.0293,2.0039,1.9824,1.9648,1.958,1.9678,1.9922,2.0098,2.0322,2.0605,2.0605,2.0605,2.0605,2.0605,2.0605,2.0605,2.0605,2.0605,2.0605,2.0605,2.0605,2.0605,2.0605,2.0723,2.0889,2.1112,2.1434,2.1824,2.2363,2.2637,2.2779,2.3023,2.3091,2.3091,2.3091,2.3091,2.3091,2.3091,2.3091,2.3091,2.3091,2.3091,2.3091,2.3091,2.3091,2.3091,2.3091,2.3091,2.3091,2.3091,2.3091,2.3091,2.3091,2.3091,2.3091,2.3091,2.3091,2.3091,2.3091,2.3091,2.3091,2.3091,2.3091,2.3091,2.3091,2.3091,2.3091,2.3091,2.3091,2.3091,2.3091,2.3091,2.3091,2.3091,2.3091,2.3091,0.0,0.0,0.0,1.5784,1.5784,0.0,1.5784,1.5784,1.5784,1.5784,1.5784,1.6157,1.7271,1.8495,1.9716,2.089,2.212,2.329,2.4457,2.6397,2.7723,2.7723,2.8858,2.9624,2.9624,2.9714,2.9792,2.9792,2.7758,2.5261,2.2469,2.207,2.1504,2.0703,2.0635,2.0381,1.999,1.999,1.9795,1.9434,1.9805,1.999,2.0,2.0429,2.0605,2.0605,2.0546,2.0556,2.0595,2.0546,2.0556,2.0605,2.0605,2.0605,2.0605,2.0605,2.0635,2.0674,2.0625,2.0889,2.1268,2.1268,2.1814,2.2519,2.2568,2.2799,2.3091,2.3091,2.3091,2.3091,2.3091,2.3091,2.3091,2.3091,2.3091,2.3091,2.3091,2.3091,2.3091,2.3091,2.3091,2.3091,2.3091,2.3091,2.3091,2.3091,2.3091,2.3091,2.3091,2.3091,2.3091,2.3091,2.3091,2.3091,2.3091,2.3091,2.3091,2.3091,2.3091,2.3091,2.3091,2.3091,2.3091,2.3091,2.3091,2.3091,2.3091,2.3091,2.3091,2.3091,2.3091,2.3091,1.5784,1.5784,1.5784,1.5784,1.5784,0.0,1.5784,1.5784,1.5784,1.5784,1.5784,1.5879,1.6103,1.7217,1.8457,1.967,2.0845,2.2066,2.3246,2.4585,2.5452,2.5452,2.7227,2.8426,2.8426,2.9275,2.9792,2.9792,2.7758,2.6051,2.511,2.3064,2.165,2.1123,2.0752,2.0566,2.0478,2.0478,2.0429,2.0351,2.0439,2.0478,2.0478,2.0566,2.0605,2.0586,2.0195,2.0244,2.0576,2.0185,2.0244,2.0605,2.0605,2.0605,2.0605,2.0605,2.0791,2.1055,2.0723,2.1094,2.1758,2.1758,2.21,2.2578,2.2867,2.3033,2.3091,2.3091,2.3091,2.3091,2.3091,2.3091,2.3091,2.3091,2.3091,2.3091,2.3091,2.3091,2.3091,2.3091,2.3091,2.3091,2.3091,2.3091,2.3091,2.3091,2.3091,2.3091,2.3091,2.3091,2.3091,2.3091,2.3091,2.3091,2.3091,2.3091,2.3091,2.3091,2.3091,2.3091,2.3091,2.3091,2.3091,2.3091,2.3091,2.3091,2.3091,2.3091,2.3091,2.3091,2.3091,2.3091,1.5784,1.5784,1.5784,1.5784,1.5784,0.0,0.0,1.5784,1.5784,1.5784,1.5712,1.5658,1.5758,1.6714,1.7705,1.8472,2.0124,2.1525,2.2129,2.3717,2.4787,2.4787,2.6284,2.7522,2.8056,2.8609,2.874,2.8171,2.7139,2.5807,2.423,2.2914,2.1904,2.121,2.1016,2.0791,2.0605,2.0605,2.0605,2.0605,2.0605,2.0605,2.0605,2.0605,2.0605,2.0595,2.0332,2.0361,2.0586,2.037,2.041,2.0605,2.0605,2.0605,2.0605,2.0605,2.0752,2.0898,2.0898,2.1338,2.1924,2.2129,2.248,2.2818,2.3033,2.3091,2.3091,2.3091,2.3091,2.3091,2.3091,2.3091,2.3091,2.3091,2.3091,2.3091,2.3091,2.3091,2.3091,2.3091,2.3091,2.3091,2.3091,2.3091,2.3091,2.3091,2.3091,2.3091,2.3091,2.3091,2.3091,2.3091,2.3091,2.3091,2.3091,2.3091,2.3091,2.3091,2.3091,2.3091,2.3091,2.3091,2.3091,2.3091,2.3091,2.3198,2.3467,2.3198,2.3091,2.3091,2.3091,2.3091,1.5784,1.5784,1.5784,1.5784,1.5784,1.5784,0.0,0.0,0.0,1.5784,1.5645,1.5531,1.5712,1.6362,1.7059,1.755,1.9492,2.0935,2.0935,2.2775,2.4253,2.4581,2.5527,2.6547,2.7487,2.7701,2.7441,2.6565,2.6307,2.5228,2.3063,2.2676,2.2197,2.1463,2.1278,2.1025,2.0742,2.0644,2.0605,2.0605,2.0605,2.0605,2.0605,2.0605,2.0605,2.0595,2.0517,2.0527,2.0595,2.0517,2.0527,2.0605,2.0605,2.0605,2.0605,2.0605,2.0713,2.0859,2.1133,2.1631,2.2168,2.2432,2.275,2.3091,2.3091,2.3091,2.3091,2.3091,2.3091,2.3091,2.3091,2.3091,2.3091,2.3091,2.3091,2.3091,2.3091,2.3091,2.3091,2.3091,2.3091,2.3091,2.3091,2.3091,2.3091,2.3091,2.3091,2.3091,2.3091,2.3091,2.3091,2.3091,2.3091,2.3091,2.3091,2.3091,2.3091,2.3091,2.3091,2.3091,2.3091,2.3179,2.3218,2.3218,2.3296,2.3516,2.3789,2.3437,2.3218,2.3218,2.314,2.3091,1.5784,1.5784,1.5784,1.5784,1.5784,1.5784,1.5784,0.0,1.5784,1.5784,0.0,1.5712,1.5484,0.0,0.0,1.7122,1.864,1.9716,1.9716,2.0836,2.2241,2.3742,2.4543,2.5168,2.5678,2.6312,2.6637,2.6513,2.5546,2.4851,2.4555,2.324,2.2461,2.2373,2.159,2.1171,2.1112,2.0762,2.0605,2.0605,2.0605,2.0605,2.0605,2.0605,2.0605,2.0586,2.0156,2.0215,2.0576,2.0146,2.0215,2.0605,2.0605,2.0605,2.0605,2.0605,2.1104,2.1689,2.1317,2.197,2.2896,2.2617,2.275,2.3091,2.3091,2.3091,2.3091,2.3091,2.3091,2.3091,2.3091,2.3091,2.3091,2.3091,2.3091,2.3091,2.3091,2.3091,2.3091,2.3091,2.3091,2.3091,2.3091,2.3091,2.3091,2.3091,2.3091,2.3091,2.3091,2.3091,2.3091,2.3091,2.3091,2.3091,2.3091,2.3091,2.3091,2.3091,2.3091,2.3091,2.3091,2.3516,2.3721,2.3721,2.4082,2.4111,2.3789,2.374,2.3721,2.3711,2.3276,2.3091,1.6015,1.5784,1.5784,1.5784,1.5784,1.5784,1.5784,1.5784,1.5784,1.5784,0.0,0.0,0.0,0.0,0.0,0.0,1.7533,1.8457,1.8457,1.9488,2.0772,2.2175,2.2593,2.3377,2.4898,2.5928,2.6224,2.5546,2.5083,2.45,2.3844,2.3219,2.2721,2.2519,2.2168,2.1697,2.12,2.1045,2.082,2.0605,2.0605,2.0605,2.0605,2.0605,2.0605,2.0595,2.041,2.0429,2.0586,2.041,2.0439,2.0605,2.0605,2.0723,2.0957,2.0957,2.1348,2.1894,2.1953,2.2282,2.274,2.2808,2.2955,2.3091,2.3091,2.3091,2.3091,2.3091,2.3091,2.3091,2.3091,2.3091,2.3091,2.3091,2.3091,2.3091,2.3091,2.3091,2.3091,2.3091,2.3091,2.3091,2.3091,2.3091,2.3091,2.3091,2.3091,2.3091,2.3091,2.3091,2.3091,2.3091,2.3091,2.3091,2.3091,2.3091,2.3091,2.3091,2.3091,2.3208,2.3506,2.3691,2.3906,2.415,2.4326,2.4453,2.4531,2.4277,2.415,2.4141,2.3413,2.3091,1.707,1.6567,1.6339,1.6339,1.6062,1.5784,1.5784,1.5784,1.5784,1.5784,1.5665,0.0,0.0,0.0,1.5558,1.5691,0.0,1.7598,1.7225,1.8226,1.9621,2.1275,2.1787,2.2577,2.4168,2.5094,2.5221,2.4425,2.4339,2.3963,2.3135,2.3091,2.2955,2.2652,2.2578,2.2217,2.1551,2.1307,2.1034,2.0752,2.0664,2.0605,2.0605,2.0605,2.0605,2.0605,2.0605,2.0605,2.0605,2.0605,2.0605,2.0605,2.0605,2.0918,2.1356,2.1239,2.1582,2.21,2.2402,2.2588,2.2691,2.3003,2.3091,2.3091,2.3091,2.3091,2.3091,2.3091,2.3091,2.3091,2.3091,2.3091,2.3091,2.3091,2.3091,2.3091,2.3091,2.3091,2.3091,2.3091,2.3091,2.3091,2.3091,2.3091,2.3091,2.3091,2.3091,2.3091,2.3091,2.3091,2.3091,2.3091,2.3091,2.314,2.3257,2.3276,2.3325,2.3442,2.3442,2.3633,2.3945,2.4082,2.4277,2.459,2.4717,2.4873,2.5116,2.4746,2.4531,2.4394,2.3734,2.3383,1.9405,1.8549,1.7645,1.7645,1.6716,1.5784,1.5784,1.5784,1.5784,1.5784,1.5771,1.5732,1.5464,1.5631,1.5732,1.5451,1.6704,0.0,0.0,1.6943,1.8822,2.1631,2.3028,2.3549,2.3174,2.3178,2.3178,2.3178,2.3135,2.3135,2.3091,2.3091,2.3091,2.3081,2.2682,2.25,2.2471,2.1609,2.119,2.1171,2.0771,2.0605,2.0605,2.0605,2.0605,2.0605,2.0605,2.0605,2.0605,2.0605,2.0605,2.0605,2.0605,2.1134,2.1816,2.1387,2.1726,2.249,2.251,2.274,2.3081,2.3091,2.3091,2.3091,2.3091,2.3091,2.3091,2.3091,2.3091,2.3091,2.3091,2.3091,2.3091,2.3091,2.3091,2.3091,2.3091,2.3091,2.3091,2.3091,2.3091,2.3091,2.3091,2.3091,2.3091,2.3091,2.3091,2.3091,2.3091,2.3091,2.3091,2.3091,2.3091,2.3266,2.373,2.3769,2.3945,2.4346,2.4375,2.4385,2.4394,2.4805,2.5077,2.5096,2.5478,2.5488,2.5116,2.5106,2.4834,2.4414,2.4385,2.416,1.9716,1.9177,1.891,1.891,1.7948,1.7037,1.7037,1.6386,1.5784,1.5784,1.5784,1.5751,1.5698,1.5718,1.5751,1.5698,1.6832,1.7552,0.0,1.8818,2.0419,2.1401,2.1923,2.2412,2.3023,2.2847,2.2789,2.3071,2.2838,2.2808,2.3081,2.3091,2.3091,2.3091,2.2955,2.275,2.251,2.1943,2.1523,2.119,2.0781,2.0605,2.0605,2.0605,2.0605,2.0605,2.0605,2.0605,2.0605,2.0605,2.0605,2.0605,2.0605,2.1143,2.1865,2.1719,2.2197,2.2886,2.2886,2.2974,2.3091,2.3091,2.3091,2.3091,2.3091,2.3091,2.3091,2.3091,2.3091,2.3091,2.3091,2.3091,2.3091,2.3091,2.3091,2.3091,2.3091,2.3091,2.3179,2.3516,2.3286,2.3188,2.3516,2.333,2.3091,2.3091,2.3091,2.3198,2.3535,2.3574,2.3672,2.3955,2.3939,2.3997,2.4189,2.4209,2.4268,2.4404,2.4414,2.4551,2.4834,2.5037,2.5205,2.5508,2.5615,2.5615,2.5508,2.5215,2.5037,2.4844,2.4844,2.4619,2.0545,1.9998,1.9713,1.9894,1.899,1.8125,1.8295,1.735,1.648,1.648,1.6109,1.592,1.6386,1.6109,1.6103,1.6976,1.7451,1.787,0.0,1.9687,2.0818,2.1248,2.1658,2.2262,2.3003,2.2847,2.274,2.2867,2.276,2.274,2.2867,2.3013,2.3091,2.3091,2.3091,2.2896,2.2519,2.21,2.167,2.119,2.0781,2.0605,2.0605,2.0605,2.0605,2.0605,2.0605,2.0605,2.0605,2.0605,2.0693,2.0801,2.0801,2.1338,2.209,2.1943,2.2412,2.3091,2.3091,2.3091,2.3091,2.3091,2.3091,2.3091,2.3091,2.3091,2.3091,2.3091,2.3091,2.3091,2.3091,2.3091,2.3091,2.3091,2.3091,2.314,2.3286,2.3369,2.3496,2.3935,2.3789,2.3682,2.3965,2.3779,2.35,2.3344,2.3369,2.3525,2.3965,2.4014,2.4111,2.4385,2.4414,2.4482,2.4639,2.4795,2.4836,2.4836,2.4836,2.501,2.5293,2.5303,2.5508,2.5967,2.5771,2.5762,2.5967,2.5527,2.5303,2.5303,2.5303,2.5156]}]]